[[{"header":{"parameterUnit":"m.s-1","parameterCategory":1,"la1":30.6,"la2":28.766,"lo1":-90.7593,"lo2":-88.6598,"dy":0.0162,"dx":0.0183,"nx":116,"ny":114,"refTime":"2024-06-30T00:00:00:Z","depth":0,"parameterNumber":2,"parameterNumberName":"U-component_of_WINDS"},"data":[0.0,0.0,0.0,0.0,0.0,0.0,0.0,0.0,0.0,0.0,0.0,0.0,0.0,0.0,0.0,0.0,0.0,0.0,0.0,0.0,0.0,0.0,0.0,0.0,0.0,0.0,0.0,0.0,0.0,0.0,0.0,0.0,0.0,0.0,0.0,0.0,0.0,0.0,0.0,0.0,0.0,0.0,0.0,0.0,0.0,0.0,0.0,0.0,0.0,0.0,0.0,0.0,0.0,0.0,0.0,0.0,0.0,0.0,0.0,0.0,0.0,0.0,0.0,0.0,0.0,0.0,0.0,0.0,0.0,0.0,0.0,0.0,0.0,0.0,0.0,0.0,0.0,0.0,0.0,0.0,0.0,0.0,0.0,0.0,0.0,0.0,0.0,0.0,0.0,0.0,0.0,0.0,0.0,0.0,0.0,0.0,0.0,0.0,0.0,0.0,0.0,0.0,0.0,0.0,0.0,0.0,0.0,0.0,0.0,0.0,0.0,0.0,0.0,0.0,0.0,0.0,0.0,0.0,0.0,0.0,0.0,0.0,0.0,0.0,0.0,0.0,0.0,0.0,0.0,0.0,0.0,0.0,0.0,0.0,0.0,0.0,0.0,0.0,0.0,0.0,0.0,0.0,0.0,0.0,0.0,0.0,0.0,0.0,0.0,0.0,0.0,0.0,0.0,0.0,0.0,0.0,0.0,0.0,0.0,0.0,0.0,0.0,0.0,0.0,0.0,0.0,0.0,0.0,0.0,0.0,0.0,0.0,0.0,0.0,0.0,0.0,0.0,0.0,0.0,0.0,0.0,0.0,0.0,0.0,0.0,0.0,0.0,0.0,0.0,0.0,0.0,0.0,0.0,0.0,0.0,0.0,0.0,0.0,0.0,0.0,0.0,0.0,0.0,0.0,0.0,0.0,0.0,0.0,0.0,0.0,0.0,0.0,0.0,0.0,0.0,0.0,0.0,0.0,0.0,0.0,0.0,0.0,0.0,0.0,0.0,0.0,0.0,0.0,0.0,0.0,0.0,0.0,0.0,0.0,0.0,0.0,0.0,0.0,0.0,0.0,0.0,0.0,0.0,0.0,0.0,0.0,0.0,0.0,0.0,0.0,0.0,0.0,0.0,0.0,0.0,0.0,0.0,0.0,0.0,0.0,0.0,0.0,0.0,0.0,0.0,0.0,0.0,0.0,0.0,0.0,0.0,0.0,0.0,0.0,0.0,0.0,0.0,0.0,0.0,0.0,0.0,0.0,0.0,0.0,0.0,0.0,0.0,0.0,0.0,0.0,0.0,0.0,0.0,0.0,0.0,0.0,0.0,0.0,0.0,0.0,0.0,0.0,0.0,0.0,0.0,0.0,0.0,0.0,0.0,0.0,0.0,0.0,0.0,0.0,0.0,0.0,0.0,0.0,0.0,0.0,0.0,0.0,0.0,0.0,0.0,0.0,0.0,0.0,0.0,0.0,0.0,0.0,0.0,0.0,0.0,0.0,0.0,0.0,0.0,0.0,0.0,0.0,0.0,0.0,0.0,0.0,0.0,0.0,0.0,0.0,0.0,0.0,0.0,0.0,0.0,0.0,0.0,0.0,0.0,0.0,0.0,0.0,0.0,0.0,0.0,0.0,0.0,0.0,0.0,0.0,0.0,0.0,0.0,0.0,0.0,0.0,0.0,0.0,0.0,0.0,0.0,0.0,0.0,0.0,0.0,0.0,0.0,0.0,0.0,0.0,0.0,0.0,0.0,0.0,0.0,0.0,0.0,0.0,0.0,0.0,0.0,0.0,0.0,0.0,0.0,0.0,0.0,0.0,0.0,0.0,0.0,0.0,0.0,0.0,0.0,0.0,0.0,0.0,0.0,0.0,0.0,0.0,0.0,0.0,0.0,0.0,0.0,0.0,0.0,0.0,0.0,0.0,0.0,0.0,0.0,0.0,0.0,0.0,0.0,0.0,0.0,0.0,0.0,0.0,0.0,0.0,0.0,0.0,0.0,0.0,0.0,0.0,0.0,0.0,0.0,0.0,0.0,0.0,0.0,0.0,0.0,0.0,0.0,0.0,0.0,0.0,0.0,0.0,0.0,0.0,0.0,0.0,0.0,0.0,0.0,0.0,0.0,0.0,0.0,0.0,0.0,0.0,0.0,0.0,0.0,0.0,0.0,0.0,0.0,0.0,0.0,0.0,0.0,0.0,0.0,0.0,0.0,0.0,0.0,0.0,0.0,0.0,0.0,0.0,0.0,0.0,0.0,0.0,0.0,0.0,0.0,0.0,0.0,0.0,0.0,0.0,0.0,0.0,0.0,0.0,0.0,0.0,0.0,0.0,0.0,0.0,0.0,0.0,0.0,0.0,0.0,0.0,0.0,0.0,0.0,0.0,0.0,0.0,0.0,0.0,0.0,0.0,0.0,0.0,0.0,0.0,0.0,0.0,0.0,0.0,0.0,0.0,0.0,0.0,0.0,0.0,0.0,0.0,0.0,0.0,0.0,0.0,0.0,0.0,0.0,0.0,0.0,0.0,0.0,0.0,0.0,0.0,0.0,0.0,0.0,0.0,0.0,0.0,0.0,0.0,0.0,0.0,0.0,0.0,0.0,0.0,0.0,0.0,0.0,0.0,0.0,0.0,0.0,0.0,0.0,0.0,0.0,0.0,0.0,0.0,0.0,0.0,0.0,0.0,0.0,0.0,0.0,0.0,0.0,0.0,0.0,0.0,0.0,0.0,0.0,0.0,0.0,0.0,0.0,0.0,0.0,0.0,0.0,0.0,0.0,0.0,0.0,0.0,0.0,0.0,0.0,0.0,0.0,0.0,0.0,0.0,0.0,0.0,0.0,0.0,0.0,0.0,0.0,0.0,0.0,0.0,0.0,0.0,0.0,0.0,0.0,0.0,0.0,0.0,0.0,0.0,0.0,0.0,0.0,0.0,0.0,0.0,0.0,0.0,0.0,0.0,0.0,0.0,0.0,0.0,0.0,0.0,0.0,0.0,0.0,0.0,0.0,0.0,0.0,0.0,0.0,0.0,0.0,0.0,0.0,0.0,0.0,0.0,0.0,0.0,0.0,0.0,0.0,0.0,0.0,0.0,0.0,0.0,0.0,0.0,0.0,0.0,0.0,0.0,0.0,0.0,0.0,0.0,0.0,0.0,0.0,0.0,0.0,0.0,0.0,0.0,0.0,0.0,0.0,0.0,0.0,0.0,0.0,0.0,0.0,0.0,0.0,0.0,0.0,0.0,0.0,0.0,0.0,0.0,0.0,0.0,0.0,0.0,0.0,0.0,0.0,0.0,0.0,0.0,0.0,0.0,0.0,0.0,0.0,0.0,0.0,0.0,0.0,0.0,0.0,0.0,0.0,0.0,0.0,0.0,0.0,0.0,0.0,0.0,0.0,0.0,0.0,0.0,0.0,0.0,0.0,0.0,0.0,0.0,0.0,0.0,0.0,0.0,0.0,0.0,0.0,0.0,0.0,0.0,0.0,0.0,0.0,0.0,0.0,0.0,0.0,0.0,0.0,0.0,0.0,0.0,0.0,0.0,0.0,0.0,0.0,0.0,0.0,0.0,0.0,0.0,0.0,0.0,0.0,0.0,0.0,0.0,0.0,0.0,0.0,0.0,0.0,0.0,0.0,0.0,0.0,0.0,0.0,0.0,0.0,0.0,0.0,0.0,0.0,0.0,0.0,0.0,0.0,0.0,0.0,0.0,0.0,0.0,0.0,0.0,0.0,0.0,0.0,0.0,0.0,0.0,0.0,0.0,0.0,0.0,0.0,0.0,0.0,0.0,0.0,0.0,0.0,0.0,0.0,0.0,0.0,0.0,0.0,0.0,0.0,0.0,0.0,0.0,0.0,0.0,0.0,0.0,0.0,0.0,0.0,0.0,0.0,0.0,0.0,0.0,0.0,0.0,0.0,0.0,0.0,0.0,0.0,0.0,0.0,0.0,0.0,0.0,0.0,0.0,0.0,0.0,0.0,0.0,0.0,0.0,0.0,0.0,0.0,0.0,0.0,0.0,0.0,0.0,0.0,0.0,0.0,0.0,0.0,0.0,0.0,0.0,0.0,0.0,0.0,0.0,0.0,0.0,0.0,0.0,0.0,0.0,0.0,0.0,0.0,0.0,0.0,0.0,0.0,0.0,0.0,0.0,0.0,0.0,0.0,0.0,0.0,0.0,0.0,0.0,0.0,0.0,0.0,0.0,0.0,0.0,0.0,0.0,0.0,0.0,0.0,0.0,0.0,0.0,0.0,0.0,0.0,0.0,0.0,0.0,0.0,0.0,0.0,0.0,0.0,0.0,0.0,0.0,0.0,0.0,0.0,0.0,0.0,0.0,0.0,0.0,0.0,0.0,0.0,0.0,0.0,0.0,0.0,0.0,0.0,0.0,0.0,0.0,0.0,0.0,0.0,0.0,0.0,0.0,0.0,0.0,0.0,0.0,0.0,0.0,0.0,0.0,0.0,0.0,0.0,0.0,0.0,0.0,0.0,0.0,0.0,0.0,0.0,0.0,0.0,0.0,0.0,0.0,0.0,0.0,0.0,0.0,0.0,0.0,0.0,0.0,0.0,0.0,0.0,0.0,0.0,0.0,0.0,0.0,0.0,0.0,0.0,0.0,0.0,0.0,0.0,0.0,0.0,0.0,0.0,0.0,0.0,0.0,0.0,0.0,0.0,0.0,0.0,0.0,0.0,0.0,0.0,0.0,0.0,0.0,0.0,0.0,0.0,0.0,0.0,0.0,0.0,0.0,0.0,0.0,0.0,0.0,0.0,0.0,0.0,0.0,0.0,0.0,0.0,0.0,0.0,0.0,0.0,0.0,0.0,0.0,0.0,0.0,0.0,0.0,0.0,0.0,0.0,0.0,0.0,0.0,0.0,0.0,0.0,0.0,0.0,0.0,0.0,0.0,0.0,0.0,0.0,0.0,0.0,0.0,0.0,0.0,0.0,0.0,0.0,0.0,0.0,0.0,0.0,0.0,0.0,0.0,0.0,0.0,0.0,0.0,0.0,0.0,0.0,0.0,0.0,0.0,0.0,0.0,0.0,0.0,0.0,0.0,0.0,0.0,0.0,0.0,0.0,0.0,0.0,0.0,0.0,0.0,0.0,0.0,0.0,0.0,0.0,0.0,0.0,0.0,0.0,0.0,0.0,0.0,0.0,0.0,0.0,0.0,0.0,0.0,0.0,0.0,0.0,0.0,0.0,0.0,0.0,0.0,0.0,0.0,0.0,0.0,0.0,0.0,0.0,0.0,0.0,0.0,0.0,0.0,0.0,0.0,0.0,0.0,0.0,0.0,0.0,0.0,0.0,0.0,0.0,0.0,0.0,0.0,0.0,0.0,0.0,0.0,0.0,0.0,0.0,0.0,0.0,0.0,0.0,0.0,0.0,0.0,0.0,0.0,0.0,0.0,0.0,0.0,0.0,0.0,0.0,0.0,0.0,0.0,0.0,0.0,0.0,0.0,0.0,0.0,0.0,0.0,0.0,0.0,0.0,0.0,0.0,0.0,0.0,0.0,0.0,0.0,0.0,0.0,0.0,0.0,0.0,0.0,0.0,0.0,0.0,0.0,0.0,0.0,0.0,0.0,0.0,0.0,0.0,0.0,0.0,0.0,0.0,0.0,0.0,0.0,0.0,0.0,0.0,0.0,0.0,0.0,0.0,0.0,0.0,0.0,0.0,0.0,0.0,0.0,0.0,0.0,0.0,0.0,0.0,0.0,0.0,0.0,0.0,0.0,0.0,0.0,0.0,0.0,0.0,0.0,0.0,0.0,0.0,0.0,0.0,0.0,0.0,0.0,0.0,0.0,0.0,0.0,0.0,0.0,0.0,0.0,0.0,0.0,0.0,0.0,0.0,0.0,0.0,0.0,0.0,0.0,0.0,0.0,0.0,0.0,0.0,0.0,0.0,0.0,0.0,0.0,0.0,0.0,0.0,0.0,0.0,0.0,0.0,0.0,0.0,0.0,0.0,0.0,0.0,0.0,0.0,0.0,0.0,0.0,0.0,0.0,0.0,0.0,0.0,0.0,0.0,0.0,0.0,0.0,0.0,0.0,0.0,0.0,0.0,0.0,0.0,0.0,0.0,0.0,0.0,0.0,0.0,0.0,1.1863,1.1367,0.0,0.0,0.0,0.0,0.0,0.0,0.0,0.0,0.0,0.0,0.0,0.0,0.0,0.0,0.0,0.0,0.0,0.0,0.0,0.0,0.0,0.0,0.0,0.6116,0.6248,0.6383,0.6522,0.6642,0.674,0.0,0.0,0.0,0.0,0.0,0.6908,0.6908,0.7022,0.7279,0.7562,0.7992,0.856,0.8547,0.8077,0.7236,0.0,0.0,0.0,0.0,0.0,0.0,0.0,0.0,0.0,0.0,0.0,0.0,0.0,0.0,0.0,0.0,0.0,0.0,0.0,0.0,0.0,0.0,0.0,0.0,0.0,0.0,0.0,0.0,0.0,0.0,0.0,0.0,0.0,0.0,0.0,0.0,0.0,0.0,0.0,0.0,0.0,0.0,0.0,0.0,0.0,0.0,0.0,0.0,0.0,0.0,0.0,0.0,0.0,0.0,0.0,0.0,0.0,0.0,0.0,0.0,0.0,0.0,0.0,0.0,0.0,0.0,0.0,0.0,0.0,0.0,1.3228,1.2527,0.0,0.0,0.0,0.0,0.0,0.0,0.0,0.0,0.0,0.0,0.0,0.0,0.0,0.0,0.0,0.0,0.0,0.0,0.0,0.0,0.0,0.5984,0.6104,0.6325,0.6517,0.6641,0.6865,0.6979,0.6945,0.0,0.0,0.0,0.0,0.6908,0.6908,0.6983,0.7306,0.7861,0.8266,0.9018,1.0101,1.0664,0.0,0.0,0.9074,0.0,0.0,0.0,0.0,0.0,0.0,0.0,0.0,0.0,0.0,0.0,0.0,0.0,0.0,0.0,0.0,0.0,0.0,0.0,0.0,0.0,0.0,0.0,0.0,0.0,0.0,0.0,0.0,0.0,0.0,0.0,0.0,0.0,0.0,0.0,0.0,0.0,0.0,0.0,0.0,0.0,0.0,0.0,0.0,0.0,0.0,0.0,0.0,0.0,0.0,0.0,0.0,0.0,0.0,0.0,0.0,0.0,0.0,0.0,0.0,0.0,0.0,0.0,1.7269,1.7377,1.7124,1.6729,1.6365,1.5892,1.4592,1.3841,1.3478,1.2877,0.0,0.0,0.0,0.0,0.0,0.0,0.0,0.0,0.0,0.0,0.0,0.0,0.0,0.0,0.0,0.0,0.0,0.0,0.0,0.6104,0.6177,0.6765,0.7197,0.7274,0.7839,0.7996,0.7515,0.0,0.0,0.0,0.6908,0.6908,0.6908,0.7358,0.7888,0.8487,1.0469,1.1773,1.2442,0.0,0.0,0.0,1.0977,0.9804,0.0,0.0,0.0,0.0,0.0,0.0,0.0,0.0,0.0,0.0,0.0,0.0,0.0,0.0,0.0,0.0,0.0,0.0,0.0,0.0,0.0,0.0,0.0,0.0,0.0,0.0,0.0,0.0,0.0,0.0,0.0,0.0,0.0,0.0,0.0,0.0,0.0,0.0,0.0,0.0,0.0,0.0,1.0115,1.0795,0.0,0.0,0.0,0.0,0.0,0.0,0.0,0.0,0.0,0.0,0.0,0.0,0.0,1.6793,1.7186,1.7792,1.8308,1.8738,1.9269,1.9321,1.8951,1.8606,1.8242,1.782,1.716,0.0,1.472,1.4485,0.0,0.0,0.0,0.0,0.0,0.0,0.0,0.0,0.0,0.0,0.0,0.0,0.0,0.0,0.0,0.0,0.0,0.0,0.0,0.0,0.0,0.7122,0.7511,0.7872,0.8215,0.8316,0.0,0.0,0.0,0.7358,0.7061,0.7035,0.7345,0.7914,0.897,1.0521,1.2177,1.3304,0.0,0.0,0.0,0.0,0.0,0.0,0.0,0.0,0.0,0.0,0.0,0.0,0.0,0.0,0.0,0.0,0.0,0.0,0.0,0.0,0.0,0.0,0.0,0.0,0.0,0.0,0.0,0.0,0.0,0.0,0.0,0.0,0.0,0.0,0.0,0.0,0.0,0.0,0.0,0.0,0.0,0.0,0.0,0.0,0.0,0.0,0.0,0.9762,1.1135,1.2066,1.2442,1.2651,0.0,0.0,0.0,0.0,0.0,0.0,0.0,0.0,0.0,1.7196,1.792,1.8674,1.9407,1.9447,1.9797,2.0282,2.0237,2.0074,1.9765,1.943,1.9034,1.8587,1.8298,1.7652,1.6732,1.5539,1.4585,1.3828,0.0,0.0,0.0,0.0,1.1394,1.1747,0.0,0.0,0.0,0.0,0.0,0.0,0.0,0.0,0.0,0.0,0.0,0.0,0.7157,0.7707,0.8248,0.8717,0.0,0.0,0.0,0.0,0.0,0.7953,0.7541,0.758,0.8135,0.9165,1.0599,0.0,0.0,0.0,0.0,0.0,0.0,0.0,0.0,0.0,0.0,0.0,0.0,0.0,0.0,0.0,0.0,0.0,0.0,0.0,0.0,0.0,0.0,0.0,0.0,0.0,0.0,0.0,0.0,0.0,0.0,0.0,0.0,0.0,0.0,0.0,0.0,0.0,0.0,0.0,0.0,0.0,0.0,0.0,0.0,0.0,0.0,0.0,0.0,0.0,0.0,1.1149,1.2301,1.3422,1.3945,1.4284,0.0,0.0,0.0,0.0,0.0,0.0,1.6349,1.7835,1.8864,1.923,1.9597,2.0215,2.1101,2.0834,2.1006,2.1606,2.1164,2.0815,2.0644,2.0227,1.98,1.9306,1.9119,1.874,1.8224,1.6525,1.5584,1.5143,1.4324,1.3914,1.3834,1.3492,1.36,1.3924,0.0,0.0,0.0,0.0,0.0,0.0,0.0,0.0,0.0,0.0,0.0,0.709,0.0,0.0,0.0,0.0,0.0,0.0,0.0,0.0,0.0,0.8605,0.8526,0.8808,0.9393,1.1568,0.0,0.0,0.0,0.0,0.0,0.0,0.0,0.0,0.0,0.0,0.0,0.0,0.0,0.0,0.0,0.0,0.0,0.0,0.0,0.0,0.0,0.0,0.0,0.0,0.0,0.0,0.0,0.0,0.0,0.0,0.0,0.0,0.0,0.0,0.0,0.0,0.0,0.0,0.0,0.0,0.0,0.0,0.0,0.0,0.0,0.0,0.0,0.0,0.0,0.0,0.0,0.0,0.0,1.5225,1.5382,0.0,0.0,0.0,0.0,1.699,1.7617,1.8192,1.8702,1.9707,2.0412,2.0673,2.0944,2.1342,2.1932,2.1832,2.2039,2.2715,2.2478,2.2196,2.1866,2.1545,2.1018,2.0382,2.0075,1.9446,1.8628,1.7768,1.7286,1.7084,1.6545,1.6311,1.6208,1.6177,1.6456,1.6781,0.0,0.0,0.0,0.5988,0.6,0.6025,0.6086,0.6104,0.6152,0.6242,0.6756,0.0,0.0,0.0,0.0,0.0,0.0,0.0,0.0,0.0,1.013,0.9713,0.937,0.9959,1.1659,1.2847,0.0,0.0,0.0,0.0,0.0,0.0,0.0,0.0,0.0,0.0,0.0,0.0,0.0,0.0,0.0,0.0,0.0,0.0,0.0,0.0,0.0,0.0,0.0,0.0,0.0,0.0,0.0,0.0,0.0,0.0,0.0,0.0,0.0,0.0,0.0,0.0,0.0,0.0,0.0,0.0,0.0,0.0,0.0,0.0,0.0,0.0,0.0,0.0,0.0,0.0,0.0,0.0,0.0,1.6493,1.7238,0.0,1.7996,1.8362,1.8662,1.8858,1.9664,2.0239,2.0421,2.1017,2.1648,2.2279,2.2024,2.22,2.2876,2.2364,2.2149,2.2298,2.2023,2.1746,2.1479,2.129,2.0983,2.0603,2.0534,2.0216,1.9754,1.9354,1.8472,1.7399,1.7245,1.7062,1.688,1.688,1.6992,1.7113,0.5929,0.5929,0.0,0.5995,0.5995,0.6032,0.6122,0.6141,0.6247,0.6534,0.707,0.7869,0.0,0.0,0.0,0.0,0.0,0.0,0.0,0.0,1.1001,1.0806,1.086,1.1694,1.3415,0.0,0.0,0.0,0.0,0.0,0.0,0.0,0.0,0.0,0.0,0.0,0.0,0.0,0.0,0.0,0.0,0.0,1.0834,0.0,0.0,0.0,0.0,0.0,0.0,0.0,0.0,0.0,0.0,0.0,0.0,0.0,0.0,0.0,0.0,0.0,0.0,0.0,0.0,0.0,0.0,0.0,0.0,0.0,0.0,0.0,0.0,0.0,0.0,0.0,0.0,0.0,0.0,1.5267,1.6961,1.7957,1.8741,1.9355,1.9747,2.0152,2.0466,2.0649,2.1225,2.1701,2.2034,2.214,2.256,2.3282,2.2742,2.2645,2.3097,2.2558,2.2229,2.21,2.1826,2.161,2.1477,2.1343,2.1104,2.0792,2.0792,2.0637,2.0349,2.0206,1.9371,1.8183,1.8183,1.8117,1.7985,1.7919,1.7843,1.7721,0.6007,0.6002,0.5998,0.5998,0.5998,0.6045,0.6183,0.6201,0.6426,0.7015,0.763,0.0,0.0,0.0,0.0,0.0,0.0,0.0,0.0,1.2583,1.2354,1.1861,1.2981,1.3938,1.4547,0.0,0.0,0.0,0.0,0.0,0.0,0.0,0.0,0.0,0.0,0.0,0.0,0.0,0.0,0.0,0.0,0.0,1.2086,0.0,0.0,0.0,0.0,0.0,0.0,0.0,0.0,0.0,0.0,0.0,0.0,0.0,0.0,0.0,0.0,0.0,0.0,0.0,0.0,0.0,0.0,0.0,0.0,0.0,0.0,0.0,0.0,0.0,0.0,0.0,0.0,0.0,1.6336,1.6937,1.7944,1.963,1.9865,2.0322,2.1433,2.1577,2.1812,2.2428,2.2302,2.257,2.3518,2.3067,2.3069,2.3725,2.3147,2.2788,2.2518,2.2396,2.2345,2.2402,2.2176,2.2101,2.2101,2.1883,2.1559,2.1135,2.1135,2.0886,2.0401,2.0186,1.9897,1.9608,1.9515,1.9442,1.9433,1.9195,1.9049,1.8756,0.602,0.6009,0.5998,0.5998,0.6039,0.6093,0.6183,0.6201,0.6426,0.7015,0.0,0.0,0.0,0.0,0.0,0.0,0.0,0.0,1.257,0.0,1.2549,1.2801,1.3702,0.0,0.0,0.0,0.0,0.0,0.0,0.0,0.0,0.0,0.0,0.0,0.0,0.0,0.0,0.0,0.0,0.0,0.0,0.0,1.3744,0.0,0.0,0.0,0.0,0.0,0.0,0.0,0.0,0.0,0.0,0.0,0.0,0.0,0.0,0.0,0.0,0.0,0.0,0.0,0.0,0.0,0.0,0.0,0.0,0.0,0.0,0.0,0.0,0.0,0.0,0.0,1.5774,1.6781,1.6963,1.8558,1.9926,2.0411,2.121,2.1799,2.2126,2.291,2.3459,2.3629,2.4103,2.4389,2.4368,2.3872,2.367,2.3824,2.3271,2.3018,2.3099,2.2731,2.2435,2.2176,2.2101,2.2025,2.1883,2.1807,2.1735,2.1621,2.1621,2.1538,2.135,2.0888,2.051,2.0223,1.9206,1.8682,1.8397,1.8017,1.7784,1.7561,0.6057,0.6039,0.6039,0.6039,0.6086,0.6122,0.6224,0.6212,0.6497,0.7315,0.0,0.0,0.0,0.0,0.0,0.0,0.0,0.0,1.2689,1.2753,1.3089,0.0,0.0,0.0,0.0,0.0,0.0,0.0,0.0,0.0,0.0,0.0,0.0,0.0,0.0,0.0,0.0,0.0,0.0,0.0,0.0,0.0,1.5093,1.4618,1.3831,1.287,1.2059,1.2063,1.2275,1.103,0.0,0.0,0.0,0.0,0.0,0.0,0.0,0.0,0.0,0.0,0.0,0.0,0.0,0.0,0.0,0.0,0.0,0.0,0.0,0.0,0.0,0.0,0.0,0.0,1.7891,1.8819,1.9316,2.0322,2.1198,2.1668,2.2309,2.2923,2.3433,2.4086,2.457,2.4818,2.5123,2.5205,2.4991,2.4384,2.3949,2.3789,2.33,2.2926,2.2777,2.2553,2.2327,2.1949,2.1949,2.1873,2.1807,2.1807,2.1807,2.1807,2.1807,2.1731,2.1655,2.1031,2.0557,2.0119,0.0,0.0,0.0,0.0,1.7294,1.7044,0.6122,0.6104,0.6104,0.6134,0.6122,0.617,0.629,0.626,0.6616,0.7756,0.0,0.0,0.0,0.0,0.0,0.0,0.0,0.0,0.0,0.0,0.0,0.0,0.0,0.0,0.0,0.0,0.0,0.0,0.0,0.0,0.0,0.0,0.0,0.0,0.0,0.0,0.0,0.0,0.0,0.0,0.0,0.0,1.6079,1.5915,1.5055,1.3899,1.4063,1.4132,1.4062,1.3356,0.0,0.0,0.0,0.0,0.0,0.0,0.0,0.0,0.0,0.0,0.0,0.0,0.0,0.0,0.0,0.0,0.0,0.0,0.0,0.0,0.0,0.0,0.0,0.0,2.0087,2.1237,2.2294,2.2046,2.2111,2.3106,2.3341,2.3825,2.493,2.5153,2.5367,2.5814,2.5588,2.538,2.5283,2.4602,0.0,0.0,0.0,2.281,2.2258,2.2268,2.2161,2.188,2.188,2.1859,2.1807,2.1807,2.1807,2.1807,2.1807,2.1655,2.1349,2.0722,2.0001,1.9283,1.8913,1.8665,1.8336,1.7546,1.7147,1.6894,0.6212,0.6194,0.6194,0.6254,0.6266,0.629,0.6366,0.6319,0.6696,0.7835,0.7958,0.0,0.0,0.0,0.0,0.0,0.0,0.0,0.0,0.0,0.0,0.0,0.0,0.0,0.0,0.0,0.0,0.0,0.0,0.0,0.0,0.0,0.0,0.0,0.0,0.0,0.0,0.0,0.0,0.0,0.0,0.0,1.6553,1.6418,1.63,1.6222,1.6046,1.6209,1.6519,1.6362,1.4964,1.3043,1.1616,0.0,0.0,0.0,0.0,0.0,0.0,0.0,0.0,0.0,0.0,0.0,0.0,0.0,0.0,0.0,0.0,0.0,0.0,0.0,0.0,2.007,2.1186,2.2066,2.2808,2.321,2.341,2.3193,2.406,2.4713,2.5009,2.5798,2.6322,2.6324,2.6343,2.6095,2.5366,2.4732,2.4173,2.3721,2.3438,2.3313,2.3234,2.3234,2.2966,2.2366,2.2366,0.0,2.1807,2.1807,2.1807,2.1807,2.1655,2.1349,2.0944,2.0157,1.8886,1.761,1.7538,1.7139,1.6574,1.6417,1.6335,1.6252,0.6425,0.6319,0.626,0.6284,0.6325,0.6366,0.6448,0.639,0.6644,0.7493,0.7811,0.0,0.0,0.0,0.0,0.0,0.0,0.0,0.0,0.0,0.0,0.0,0.0,0.0,0.0,0.0,0.0,0.0,0.0,0.0,0.0,0.0,0.0,0.0,0.0,0.0,0.0,0.0,0.0,0.0,0.0,0.0,1.7142,1.6678,1.6565,1.6693,1.6565,1.682,1.7199,1.7199,1.6258,1.4833,1.337,1.2157,1.1084,0.0,0.0,0.0,0.0,0.0,0.0,0.0,0.0,0.0,0.0,0.0,0.0,0.0,0.0,1.6532,1.7094,0.0,2.0129,2.1225,2.2027,2.2721,2.3232,2.387,2.4235,2.3995,2.4536,2.5184,2.5834,2.6283,2.6596,2.6683,2.6549,2.6082,2.5229,2.4833,2.4362,2.3568,2.3573,2.3504,2.3346,2.3346,2.3151,2.2842,2.2842,2.2718,2.2501,2.2501,2.2412,2.2244,2.1928,2.1402,2.0622,1.9118,1.7764,1.6574,1.6484,1.6237,1.6087,1.5914,1.5914,1.5914,0.6633,0.6472,0.6349,0.636,0.6418,0.647,0.653,0.6483,0.6614,0.7157,0.7599,0.8083,0.869,0.9526,1.022,0.0,0.0,0.0,0.0,0.0,0.0,0.0,0.0,0.0,0.0,0.0,0.0,0.0,0.0,0.0,0.0,0.0,0.0,0.0,0.0,0.0,0.0,0.0,0.0,0.0,0.0,0.0,1.7657,1.6865,1.6565,1.6522,1.6522,1.682,1.724,1.7199,1.6911,1.6336,1.4768,1.3926,1.3263,1.2108,1.1428,0.0,0.0,0.0,0.0,0.0,0.0,0.0,0.0,0.0,1.5408,1.5892,1.7735,1.9277,1.9394,2.069,2.1927,2.2334,2.2845,2.3295,2.3752,2.4333,2.4777,2.4893,2.5104,2.5605,2.6518,2.6518,2.6578,2.6812,2.6358,2.57,2.5016,2.4842,2.4411,2.3616,2.3764,2.3766,2.3453,2.3453,2.3412,2.3318,2.3318,2.3277,2.3184,2.3184,2.293,2.2594,2.1918,2.1066,1.9998,1.8102,1.6881,1.6095,1.5838,1.5801,1.5922,1.5741,1.5658,1.5658,0.6706,0.6616,0.6564,0.6564,0.6621,0.6672,0.6685,0.6633,0.6751,0.7217,0.7298,0.7535,0.8212,0.8373,0.9032,1.0498,0.0,0.0,0.0,0.0,0.0,0.0,0.0,0.0,0.0,0.0,0.0,0.0,0.0,0.0,0.0,0.0,0.0,0.0,0.0,0.0,0.0,0.0,0.0,0.0,0.0,0.0,1.7821,1.7136,1.6693,1.6522,1.6522,1.6934,1.7434,1.7282,1.7256,1.7152,1.6363,1.5721,1.5086,1.3868,0.0,1.2807,1.2741,1.3342,1.4254,1.5158,1.5544,1.5724,0.0,0.0,1.7721,1.78,1.9224,2.066,2.1132,2.2109,2.2928,2.3308,2.3583,2.3979,2.4556,2.4759,2.5025,2.5701,2.6038,2.6285,2.6414,2.6534,2.6582,2.6289,2.5734,2.529,2.4957,2.4374,2.4204,2.4349,2.4259,2.4242,2.4385,2.4385,2.4198,2.3805,2.3805,2.3588,2.3184,2.293,2.2594,2.2093,2.04,1.9281,1.8562,1.7502,1.671,1.6182,1.594,1.5679,1.5431,1.5423,1.5423,1.5423,0.6891,0.6757,0.6685,0.6757,0.6757,0.6774,0.6807,0.6757,0.6778,0.6923,0.7125,0.7382,0.7698,0.8327,0.9104,1.0063,1.1545,0.0,0.0,0.0,0.0,0.0,0.0,0.0,0.0,0.0,0.0,0.0,0.0,0.0,0.0,0.0,0.0,0.0,0.0,0.0,0.0,0.0,0.0,0.0,0.0,0.0,1.8274,1.7295,1.696,1.6905,1.6778,1.6645,0.0,0.0,1.714,1.6903,1.6968,1.6639,1.6135,1.5544,1.5016,0.0,1.4807,1.5311,1.5964,0.0,1.7273,1.7727,1.8507,1.9131,1.9821,2.0489,2.142,2.2217,2.2356,2.2902,2.339,2.3563,2.3679,2.3915,2.4397,2.4666,2.4935,2.5227,2.5542,2.5924,2.6333,2.6314,2.6025,2.5511,2.5302,2.5063,2.4548,2.4637,2.4588,2.4519,2.4535,2.4598,2.454,2.454,2.4447,2.426,2.426,2.4083,2.3813,2.3466,2.2758,2.1528,1.9896,1.8762,1.8137,1.7163,1.6645,1.6344,1.6264,1.6096,1.5928,1.5562,1.5431,1.5431,0.7023,0.6891,0.6807,0.6924,0.6908,0.6891,0.6911,0.6874,0.6791,0.6706,0.6961,0.7156,0.7169,0.8198,0.9077,0.9554,1.124,1.2773,0.0,0.0,0.0,0.0,0.0,0.0,0.0,0.0,0.0,0.0,0.0,0.0,0.0,0.0,0.0,0.0,0.0,0.0,0.0,0.0,0.0,0.0,0.0,0.0,1.8299,1.7334,1.7086,1.7199,1.7044,1.6387,0.0,0.0,1.6374,1.6362,1.6969,1.6943,1.6678,1.6745,1.6534,1.631,1.6445,1.6875,1.7473,1.8075,1.8707,1.9466,2.0605,2.0927,2.1303,2.2346,2.288,2.3163,2.3218,2.3346,2.3546,2.374,2.3673,2.3867,2.4408,2.4693,2.4892,2.5037,2.5093,2.535,2.5836,2.5664,2.5312,2.4802,2.4858,2.4767,2.4457,2.4705,2.4891,2.4711,2.4788,2.47,2.454,2.454,2.454,2.454,2.4454,2.4282,2.4024,2.3396,2.2227,2.0692,1.9429,1.8512,1.7871,1.7184,1.6766,1.6506,1.6506,1.6448,1.6309,1.5855,1.5635,1.5548,0.7039,0.6993,0.6993,0.6993,0.7042,0.7075,0.7009,0.6927,0.6858,0.6706,0.6715,0.6693,0.6624,0.764,0.8543,0.9075,1.0716,1.2202,1.334,1.4691,0.0,0.0,0.0,0.0,0.0,0.0,0.0,0.0,0.0,0.0,0.0,0.0,0.0,0.0,0.0,0.0,0.0,0.0,0.0,0.0,0.0,0.0,1.7683,1.7093,1.7044,1.7199,1.7199,0.0,0.0,0.0,1.4717,1.5843,1.6349,1.6546,0.0,1.7206,1.7578,0.0,0.0,1.8257,1.9169,1.9457,2.0188,2.098,2.1526,2.1776,2.2065,2.2855,2.2985,2.3179,2.3761,2.3437,2.3367,2.4054,2.3779,2.3951,2.5119,2.511,2.511,2.5557,2.5052,2.4707,2.4562,2.4671,2.4587,2.4261,2.4288,2.4468,2.4681,2.4568,2.4732,2.5168,2.4786,2.454,2.454,2.454,2.454,2.454,2.4282,2.411,2.3754,2.2138,2.0701,1.953,1.8796,1.8249,1.7707,1.7404,1.7121,1.6835,1.6835,1.6645,1.6367,1.6345,1.6155,1.5855,0.7155,0.7088,0.7069,0.7058,0.7091,0.712,0.7182,0.7104,0.6993,0.6924,0.6824,0.0,0.0,0.0,0.0,0.0,1.0238,1.1754,1.2852,1.383,0.0,0.0,0.0,0.0,0.0,0.0,0.0,0.0,0.0,0.0,0.0,0.0,0.0,0.0,0.0,0.0,0.0,0.0,0.0,0.0,0.0,0.0,1.7015,1.688,1.6876,1.6857,0.0,0.0,0.0,0.0,0.0,0.0,1.619,0.0,0.0,1.7584,0.0,1.765,1.8314,1.8859,1.9337,1.9867,2.0573,2.1244,2.185,2.1913,2.2091,2.261,2.2544,2.2339,2.2305,2.2359,2.2538,2.2759,2.3292,2.3946,2.456,2.4505,2.4505,2.4517,2.4085,2.3661,2.3398,2.3838,2.4032,2.3604,2.4203,2.4581,2.4533,2.4973,2.5219,2.5189,2.4956,2.47,2.454,2.454,2.4454,2.4292,2.3387,2.2765,2.2325,2.0791,1.9803,1.9271,1.8357,1.7908,1.7721,1.7426,1.7267,1.7172,1.7172,1.7099,1.6982,1.6769,1.663,1.6462,0.7266,0.7201,0.7166,0.7169,0.7185,0.0,0.0,0.0,0.0,0.0,0.0,0.0,0.0,0.0,0.0,0.0,0.0,1.1389,1.2084,0.0,0.0,0.0,0.0,0.0,0.0,0.0,0.0,0.0,0.0,0.0,0.0,0.0,0.0,0.0,0.0,0.0,0.0,0.0,0.0,0.0,0.0,0.0,1.6312,1.6341,1.6265,0.0,0.0,0.0,0.0,0.0,0.0,0.0,0.0,0.0,0.0,0.0,1.7994,1.8261,1.8908,1.9633,2.0214,2.0568,2.1158,2.1645,2.1817,2.1803,2.1864,2.2052,2.1749,2.1542,2.1511,2.1462,2.1571,2.2017,2.2703,2.338,2.4023,2.4061,2.4108,2.4049,2.3612,2.3183,2.2978,2.3341,2.3446,2.3224,2.4051,2.4612,2.4486,2.5218,2.5475,2.52,2.5031,2.4786,2.454,2.4454,2.4196,2.3677,2.2677,2.1774,2.106,1.9894,1.9088,1.8643,1.8001,1.7628,1.7527,1.7333,1.7326,1.7326,1.7326,1.7326,1.7304,1.7099,1.6952,1.6762,0.7345,0.7314,0.7312,0.0,0.0,0.0,0.0,0.0,0.0,0.0,0.0,0.0,0.0,0.0,0.0,0.0,0.0,0.0,1.1105,0.0,0.0,0.0,0.0,0.0,1.5638,1.5705,0.0,0.0,0.0,0.0,0.0,0.0,0.0,0.0,0.0,0.0,0.0,0.0,0.0,0.0,0.0,0.0,1.5578,1.5642,0.0,0.0,0.0,0.0,0.0,0.0,0.0,0.0,0.0,0.0,0.0,0.0,1.8618,1.9497,1.9417,2.0514,2.1665,2.1392,2.1825,2.2177,2.1536,2.1426,2.135,2.1055,2.0777,2.0702,2.1217,2.0655,2.0531,2.1777,2.2039,2.2515,2.3502,2.3773,2.3982,2.4162,2.3711,2.3342,2.3375,2.3152,2.3078,2.3078,2.3951,2.4497,2.4519,2.5228,2.5475,2.52,2.5031,2.4786,2.4454,2.4282,2.3677,2.2706,2.198,2.0979,1.9894,1.9363,1.8643,1.7721,1.7721,1.7527,1.7326,1.7326,1.7326,1.7326,1.7326,1.7326,1.7326,1.7326,1.7135,1.6791,0.0,0.0,0.0,0.0,0.0,0.0,0.0,0.0,0.0,0.0,0.0,0.0,0.0,0.0,0.0,0.0,0.0,0.0,0.0,0.0,0.0,0.0,0.0,0.0,0.0,0.0,0.0,0.0,0.0,0.0,0.0,0.0,0.0,0.0,0.0,0.0,0.0,0.0,0.0,0.0,0.0,0.0,1.535,0.0,0.0,0.0,0.0,0.0,0.0,0.0,0.0,0.0,0.0,1.7005,1.7987,0.0,0.0,1.9102,1.9849,2.0463,2.0875,2.0827,2.1042,2.1234,2.0922,2.0294,1.9697,1.9432,1.8882,1.8474,1.8446,1.9019,1.9631,2.0079,2.1519,2.2662,2.3026,2.3544,2.396,2.4258,2.3851,2.3766,2.4149,2.4115,2.4115,2.4115,2.4344,2.4639,2.4978,2.5402,2.5475,2.52,2.4786,2.454,2.4292,2.3503,2.2784,2.1971,2.1087,2.0184,1.9363,1.8727,1.8087,1.7721,1.7527,1.7333,1.7326,1.7326,1.7326,1.7326,1.7326,1.7326,1.7326,1.7326,1.7188,1.6893,0.0,0.0,0.0,0.0,0.0,0.0,0.0,0.0,0.0,0.0,0.0,0.0,0.0,0.0,0.0,0.0,0.0,0.0,0.0,0.0,0.0,0.0,0.0,0.0,0.0,0.0,0.0,0.0,0.0,0.0,0.0,0.0,0.0,0.0,0.0,0.0,0.0,0.0,0.0,0.0,0.0,0.0,0.0,0.0,0.0,0.0,0.0,0.0,0.0,0.0,0.0,1.6585,1.7297,1.7918,1.8582,1.9267,0.0,2.0226,2.07,2.1058,2.1255,2.1181,2.0908,2.0456,1.9849,1.9146,1.8466,1.7955,1.7454,1.7183,1.7376,1.7955,1.8626,1.927,2.0687,2.1905,2.2456,2.3191,2.3783,2.4136,2.4084,2.4181,2.4465,2.4486,2.4574,2.477,2.4792,2.4902,2.5164,2.5467,2.5475,2.5115,2.4711,2.4196,2.359,2.2608,2.1891,2.1257,2.0275,1.9463,1.8912,1.8179,1.7807,1.7527,1.7333,1.7326,1.7326,1.7326,1.7326,1.7326,1.7326,1.7326,1.7326,1.7326,1.7153,1.6842,0.0,0.0,0.0,0.0,0.0,0.0,0.0,0.0,0.0,0.7245,0.7161,0.755,0.8765,0.8853,0.0,0.0,0.0,0.0,0.0,0.0,0.0,0.0,0.0,0.0,0.0,0.0,0.0,0.0,0.0,0.0,0.0,0.0,0.0,0.0,0.0,0.0,0.0,0.0,0.0,0.0,0.0,0.0,0.0,0.0,0.0,0.0,0.0,0.0,0.0,0.0,1.5396,1.67,1.802,1.8836,1.9388,1.9689,2.07,2.1729,2.167,2.1806,2.1978,2.1838,2.091,1.9742,1.871,1.808,1.7429,1.6596,1.6208,1.6219,1.6896,1.7051,1.7514,1.8744,1.9714,2.0711,2.1879,2.2722,2.3431,2.405,2.4292,2.4541,2.4661,2.4683,2.4836,2.524,2.5273,2.5262,2.5262,2.5416,2.5295,2.469,2.4358,2.3667,2.253,2.1722,2.0997,2.0456,1.9554,1.8912,1.845,1.7908,1.7527,1.7326,1.7326,1.7326,1.7326,1.7326,1.7326,1.7326,1.7326,1.7326,1.7326,1.7239,1.7059,1.6741,0.0,0.0,0.0,0.0,0.0,0.0,0.0,0.7294,0.7439,0.7864,0.7449,0.755,0.8765,0.8901,0.0,0.0,0.0,0.0,0.0,0.0,0.0,0.0,0.0,0.0,0.0,0.0,0.0,0.0,0.0,0.0,0.0,0.0,0.0,0.0,0.0,0.0,0.0,0.0,0.0,0.0,0.0,0.0,0.0,0.0,0.0,0.0,0.0,0.0,0.0,0.0,1.6293,1.7706,1.7775,1.8748,1.9879,2.0001,2.0428,2.1043,2.1701,2.143,2.1023,2.1406,2.0269,1.8977,1.84,1.7053,0.0,0.0,1.4582,1.4271,1.4824,1.54,1.6197,1.7445,1.8794,2.0125,2.1363,2.221,2.3165,2.4459,2.4568,2.4792,2.5579,2.5655,2.5688,2.5764,2.5775,2.5692,2.5525,2.5337,2.469,2.3484,2.3028,2.2315,2.1356,2.0736,2.0283,1.9729,1.9188,1.8643,1.8179,1.7815,1.7527,1.7326,1.7326,1.7326,1.7326,1.7326,1.7326,1.7326,1.7326,1.7326,1.7232,1.7153,1.6777,1.6156,0.0,0.0,0.0,0.0,0.0,0.0,0.0,0.7606,0.7906,0.8126,0.8114,0.8412,0.9286,0.909,0.9252,0.0,0.0,0.0,0.0,0.0,0.0,0.0,0.0,0.0,0.0,0.0,0.0,0.0,0.0,0.0,0.0,0.0,0.0,0.0,0.0,0.0,0.0,0.0,0.0,0.0,0.0,0.0,0.0,0.0,0.0,0.0,0.0,0.0,0.0,0.0,1.5778,1.7376,1.8154,1.8939,1.96,2.0322,2.0766,2.1214,2.172,2.157,2.1181,2.1082,1.9772,1.8239,1.7192,0.0,0.0,0.0,1.3685,1.3538,1.3872,1.4635,1.5487,1.6241,1.7551,1.8921,2.0209,2.1349,2.2589,2.404,2.4598,2.512,2.583,2.5895,2.5895,2.5895,2.5812,2.5728,2.5654,2.4861,2.4003,2.2969,2.2148,2.1427,2.0817,2.0093,1.9646,1.9371,1.8727,1.8365,1.8087,1.7714,1.7426,1.7326,1.7326,1.7326,1.7326,1.7326,1.7326,1.7326,1.7326,1.7239,1.7153,1.7073,1.6588,1.5873,0.0,0.0,0.0,0.0,0.0,0.0,0.0,0.7924,0.8334,0.8406,0.8902,0.9391,0.9791,0.9273,0.909,0.0,0.0,0.0,0.0,0.0,0.0,0.0,0.0,0.0,0.0,0.0,0.0,0.0,0.0,0.0,0.0,0.0,0.0,0.0,0.0,0.0,0.0,0.0,0.0,0.0,0.0,0.0,0.0,0.0,0.0,0.0,0.0,0.0,0.0,0.0,1.4837,1.6273,1.8044,1.8794,1.9239,2.0145,2.0789,2.1353,2.1682,2.1635,2.1425,2.0899,1.9488,1.7776,1.6205,1.5006,0.0,1.307,1.2947,1.3024,1.3218,1.4019,1.4767,0.0,1.6376,1.7622,1.8905,2.0369,2.1822,2.3263,2.4377,2.5218,2.5699,2.5841,2.5895,2.5812,2.5475,2.5295,2.5295,2.4176,2.3232,2.253,2.1445,2.0637,2.0275,1.9546,1.9104,1.9012,1.8365,1.8087,1.7994,1.752,1.7326,1.7326,1.7326,1.7326,1.7326,1.7326,1.7326,1.7326,1.7239,1.7059,1.6885,1.669,1.617,1.5308,0.0,0.0,0.0,0.0,0.0,0.0,0.0,0.799,0.856,0.9046,0.9626,1.0009,0.9977,0.9336,0.8928,0.0,0.0,0.0,0.0,0.0,0.0,0.0,0.0,0.0,0.0,0.0,0.0,0.0,1.0777,0.0,0.0,0.0,0.0,0.0,0.0,1.0705,0.0,0.0,0.0,0.0,0.0,0.0,0.0,0.0,0.0,0.0,0.0,0.0,0.0,0.0,0.0,1.4576,1.6083,1.7751,1.91,1.879,0.0,0.0,2.1164,2.1099,2.096,2.0914,1.9537,1.7822,1.6351,0.0,1.3477,1.2484,1.2064,1.1986,1.2407,1.3022,1.3746,1.4538,0.0,1.6607,1.7923,1.9375,2.0749,2.2269,2.3689,2.4738,2.5196,2.5644,2.5812,2.5644,2.4861,2.4337,2.4337,2.3396,2.2441,2.1535,2.0736,2.0011,1.9371,1.9012,1.8743,1.8574,1.828,1.7994,1.7721,1.7426,1.7326,1.7326,1.7326,1.7326,1.7326,1.7326,1.7326,1.7232,1.7066,1.6878,1.6588,1.5818,1.5081,1.426,0.0,0.0,0.0,0.0,0.0,0.0,0.0,0.804,0.8486,0.8687,0.9206,0.9403,0.9008,0.8682,0.8469,0.0,0.0,0.0,0.0,0.0,0.0,0.0,0.0,0.0,0.0,0.0,0.0,0.0,1.0777,0.0,0.0,0.0,0.0,0.0,0.0,1.0944,1.0944,0.0,0.0,0.0,0.0,0.0,0.0,0.0,0.0,0.0,0.0,0.0,0.0,0.0,0.0,0.0,1.4723,1.5727,0.0,0.0,1.894,1.939,2.0116,2.0213,2.0084,1.9704,1.8554,1.7174,1.5537,1.4203,1.3048,1.1992,1.1691,1.1625,1.1801,1.2509,1.3158,0.0,1.4664,1.5833,1.695,1.8348,1.9921,2.1669,2.2892,2.3897,2.4683,2.5185,2.533,2.5009,2.4069,2.327,2.2755,2.2325,2.1793,2.0907,2.0275,1.9646,1.9188,1.8912,1.8743,1.8481,1.8187,1.7994,1.7721,1.7426,1.7326,1.7326,1.7326,1.7326,1.7333,1.7153,1.716,1.7044,1.6472,1.603,1.5638,1.481,1.4118,1.3353,0.0,0.0,0.0,0.0,0.0,0.762,0.7633,0.8089,0.8425,0.8436,0.8917,0.902,0.8398,0.8261,0.8125,0.7889,0.0,0.0,0.0,0.0,0.0,0.0,0.0,0.0,0.0,0.0,0.0,0.0,0.0,0.0,0.0,0.0,1.1085,1.1085,0.0,0.0,0.0,0.0,0.0,0.0,0.0,0.0,0.0,0.0,0.0,0.0,0.0,0.0,0.0,0.0,0.0,0.0,0.0,0.0,0.0,0.0,1.7866,1.807,1.9011,1.9229,1.9091,1.8669,1.7759,1.652,1.4877,1.3761,1.2759,1.1571,1.1424,1.1479,1.1337,1.216,1.2889,0.0,1.4034,1.5225,1.6175,1.7562,1.9102,2.0751,2.216,2.3274,2.3896,2.4406,2.4523,2.4114,2.3183,2.2306,2.1427,2.1159,2.0808,2.0365,1.9729,1.9371,1.9096,1.892,1.8651,1.8381,1.8187,1.79,1.7621,1.7426,1.7326,1.7326,1.7239,1.7239,1.7138,1.6778,1.6649,1.6521,1.5647,1.4976,1.4498,1.3756,1.3097,1.2383,0.0,0.0,0.0,0.0,0.0,0.0,0.0,0.8156,0.851,0.851,0.9032,0.9147,0.8469,0.8335,0.8033,0.7353,0.0,0.0,0.0,0.0,0.0,0.0,0.0,0.0,0.0,0.0,0.0,0.0,0.0,0.0,0.0,0.0,1.1085,1.1085,0.0,0.0,0.0,0.0,0.0,0.0,0.0,0.0,0.0,0.0,0.0,0.0,0.0,0.0,0.0,0.0,0.0,0.0,0.0,0.0,0.0,0.0,1.6291,1.7027,1.8024,1.8205,1.8096,1.8096,1.7265,1.6026,1.454,1.3645,1.27,1.1193,1.122,1.138,1.0889,1.1931,1.2889,1.2889,1.375,1.4733,1.5705,1.7092,1.837,1.9321,2.1549,2.2927,2.2713,2.321,2.3432,2.3153,2.2217,2.1427,2.0628,2.0002,1.9637,1.9637,1.9371,1.9096,1.8827,1.8827,1.855,1.8087,1.8087,1.78,1.7326,1.7326,1.7326,1.7333,1.7066,1.6979,1.6958,1.616,1.5661,1.5443,1.4611,1.3863,1.3126,1.2689,1.2089,1.1352,0.0,0.0,0.0,0.0,0.0,0.0,0.0,0.7794,0.7892,0.7875,0.8046,0.8073,0.781,0.7767,0.7666,0.7452,0.0,0.0,0.0,0.0,0.0,0.0,0.0,0.0,0.0,0.0,0.0,0.0,0.0,0.0,0.0,0.0,0.0,0.0,1.1085,0.0,0.0,0.0,0.0,0.0,0.0,0.0,1.0616,0.0,0.0,0.0,0.0,0.0,0.0,0.0,0.0,0.0,0.0,0.0,0.0,1.4283,1.5266,1.6208,1.6639,1.6931,1.7168,1.7105,1.6287,1.5279,1.4425,1.3501,1.2446,1.1151,1.1292,1.1454,1.0889,1.197,1.2889,1.2889,0.0,0.0,1.5644,1.6798,1.8108,1.9725,2.1463,2.2595,2.2608,2.2159,2.186,2.1598,2.0802,1.9948,1.9163,1.882,1.8872,1.9355,1.9104,1.892,1.8827,1.8827,1.855,1.8079,1.785,1.7462,1.6996,1.6777,1.6584,1.6411,1.623,1.5959,1.5575,1.5026,1.4533,1.4138,1.3326,1.269,1.2132,1.1435,1.0984,1.0577,0.0,0.0,0.0,0.0,0.0,0.0,0.0,0.7679,0.762,0.7603,0.7603,0.7574,0.7543,0.7543,0.7529,0.7499,0.0,0.0,0.0,0.0,0.0,0.0,0.0,0.0,0.0,0.0,0.0,0.0,0.0,0.0,0.0,0.0,0.0,0.0,0.0,0.0,0.0,0.0,0.0,0.0,0.0,0.0,1.0086,0.0,0.0,0.0,0.0,0.0,0.0,0.0,0.0,0.0,0.0,0.0,0.0,0.0,1.3815,1.4892,0.0,1.5625,1.5684,1.5775,1.5154,1.4408,1.383,1.3197,1.237,1.12,1.1364,1.1538,1.0924,1.197,1.2889,1.2889,1.3903,1.493,1.5665,1.6754,1.8197,2.0092,2.1174,2.1852,2.2005,2.1262,2.0636,2.0382,1.9665,1.8904,1.8395,1.8135,1.8249,1.8685,1.852,1.843,1.8348,1.8348,1.8076,1.7614,1.7409,1.7124,1.6667,1.6373,1.6109,1.585,1.5486,1.5033,0.0,1.3925,1.3344,1.2866,1.217,1.1636,1.118,1.0686,1.0381,1.0207,0.0,0.0,0.0,0.0,0.0,0.0,0.0,0.0,0.0,0.762,0.7605,0.7589,0.7602,0.7602,0.7573,0.7513,0.0,0.0,0.0,0.0,0.0,0.0,0.0,0.0,0.0,0.0,0.0,0.0,1.0889,1.1215,1.1215,0.0,0.0,0.0,0.0,0.0,0.0,0.0,0.0,0.0,0.9425,0.9526,0.0,0.0,0.0,0.0,0.0,0.0,0.0,0.0,0.0,0.0,0.0,0.0,0.0,0.0,0.0,0.0,0.0,1.4305,1.3936,1.4329,1.4009,1.3432,1.3011,1.2758,0.0,1.1305,1.1447,1.1538,1.0968,1.1992,1.29,1.2944,1.4176,1.529,1.5763,1.7034,1.8571,2.0443,2.072,2.0883,2.1064,2.0329,1.9678,1.9493,1.8828,1.8313,1.807,1.7881,1.7699,1.7691,1.7691,1.7644,1.7533,1.7445,1.727,1.6831,1.672,1.661,1.633,1.6058,1.5786,1.5513,1.4801,1.4257,1.3789,1.2732,1.2098,1.1634,1.1152,1.0641,1.0294,1.0294,1.012,0.9951,0.0,0.0,0.0,0.0,0.0,0.0,0.0,0.0,0.0,0.0,0.7605,0.7605,0.7589,0.7589,0.7589,0.0,0.0,0.0,0.0,0.0,0.0,0.0,0.0,0.0,0.0,0.0,0.0,0.9622,1.072,1.1285,1.1285,1.1285,0.0,0.0,0.0,0.0,0.0,0.0,0.0,0.0,0.8214,0.8539,0.0,0.0,0.0,0.0,1.0968,1.0993,0.0,0.0,0.0,0.0,0.0,0.0,0.0,0.0,1.161,1.1789,1.2513,0.0,1.4016,1.3971,1.3489,1.3046,0.0,1.2559,1.2041,1.1319,0.0,1.1723,1.1527,1.2261,1.302,1.3456,1.4417,1.535,1.6104,1.8094,1.9651,2.0175,2.0477,2.0488,2.0046,1.919,1.851,1.8198,1.7722,1.7309,1.7068,1.6976,1.6893,1.6719,1.6719,1.6977,1.7525,1.7255,1.7079,1.6831,1.63,1.6009,1.5749,1.507,1.4532,1.4104,1.341,1.2805,1.2186,1.1342,1.0804,1.0455,1.0318,1.0038,0.9777,1.0038,0.9951,0.9689,0.0,0.0,0.0,0.0,0.0,0.0,0.0,0.0,0.0,0.0,0.0,0.0,0.0,0.0,0.0,0.0,0.0,0.0,0.0,0.0,0.0,0.0,0.0,0.0,0.0,0.0,0.0,0.0,0.0,1.1169,0.0,0.0,0.0,0.0,0.0,0.0,0.0,0.0,0.0,0.0,0.8667,0.0,0.0,0.0,0.0,0.0,1.1062,1.0968,0.0,1.1209,1.1244,1.1197,0.0,0.0,0.0,0.0,1.0883,1.1045,1.149,1.2279,1.3042,1.3127,1.2861,1.2577,1.2539,0.0,0.0,0.0,0.0,1.1849,1.1997,1.248,1.3172,1.3892,1.4762,1.5717,1.6779,1.8562,1.9715,1.9725,2.0039,2.001,1.9292,1.8496,1.7853,1.7456,1.7139,1.6812,1.6738,1.673,1.6648,1.6394,1.6319,1.6414,1.6707,1.6528,1.6365,1.6122,1.576,1.5418,1.5163,1.4396,1.3815,1.3222,1.2534,1.1757,1.0982,1.0549,1.0033,0.9694,0.9694,0.9607,0.9519,0.9607,0.9602,0.9519,0.0,0.0,0.0,0.0,0.0,0.0,0.0,0.0,0.0,0.0,0.0,0.0,0.0,0.0,0.0,0.0,0.0,0.0,0.0,0.0,0.0,0.0,0.0,0.0,0.0,0.0,0.0,0.0,0.0,0.0,0.0,0.0,0.0,0.0,0.0,0.0,0.0,0.0,0.0,1.0183,0.9437,0.0,0.0,0.0,0.0,0.0,0.0,0.0,0.0,1.0735,1.0733,1.0753,1.0523,0.0,0.0,0.0,0.0,0.0,1.104,1.1399,1.1737,1.2366,1.2469,1.2394,1.2252,0.0,0.0,0.0,0.0,0.0,0.0,1.2831,1.3401,1.4294,1.5171,1.6219,1.7595,1.866,1.9283,1.9146,1.9507,1.946,1.8745,1.8023,1.7538,1.7139,1.6812,1.673,1.673,1.673,1.6566,1.6402,1.6162,1.5997,1.5658,1.5658,1.5582,1.5431,1.5173,1.4915,1.4566,1.3899,1.3222,1.2534,1.1757,1.0987,1.0207,0.9951,0.9607,0.9262,0.9262,0.9262,0.9257,0.9257,0.9262,0.9262,0.0,0.0,0.0,0.0,0.0,0.0,0.0,0.0,0.0,0.0,0.0,0.0,0.0,0.0,0.0,0.0,0.0,0.0,0.0,0.0,0.0,0.0,0.0,0.0,0.0,0.0,0.0,0.0,0.0,0.0,1.1593,1.1593,1.1292,0.0,0.0,0.0,0.0,0.0,0.0,0.9456,0.8333,0.0,0.0,0.0,0.0,0.0,0.0,0.0,0.0,1.0203,1.0468,1.0777,1.0621,0.0,0.0,0.0,0.0,0.0,1.0882,1.1147,1.1491,1.2695,1.3287,1.343,1.2885,0.0,0.0,0.0,0.0,0.0,0.0,1.3565,1.4129,1.4509,1.5564,1.6728,1.7889,1.8646,1.9064,1.8976,1.9047,1.8993,1.8514,1.787,1.7392,1.7139,1.6812,1.673,1.673,1.673,1.6492,1.617,1.6087,1.5922,1.5423,1.5423,1.5423,1.5431,1.4999,1.4566,1.4139,1.33,1.2534,1.1757,1.0895,1.0381,1.0038,0.9345,0.8999,0.8999,0.8999,0.8999,0.8999,0.9174,0.9174,0.8911,0.0,0.0,0.0,0.0,0.0,0.0,0.0,0.0,0.0,0.0,0.0,0.0,0.0,0.0,0.0,0.0,0.0,0.0,0.0,0.0,0.0,0.0,0.0,0.0,0.0,0.0,0.0,0.0,0.0,1.134,1.1659,1.163,1.1227,1.0585,0.0,0.0,0.0,0.0,0.0,0.9446,0.0,0.0,0.0,0.0,0.0,0.0,0.0,0.0,0.0,0.0,0.9959,1.0345,1.016,0.0,0.0,0.0,0.0,0.0,1.0491,1.1087,1.1739,1.2579,1.3103,1.3411,1.3288,0.0,0.0,0.0,0.0,0.0,0.0,1.3959,1.4473,1.5373,1.6181,1.6882,1.7441,1.8187,1.8554,1.8323,1.8593,1.8603,1.8103,1.7635,1.7229,1.6894,1.6738,1.673,1.673,1.673,1.6492,1.6087,1.6087,1.5839,1.5431,1.5431,1.5431,1.5431,1.4908,1.4398,1.3808,1.296,1.21,1.1241,1.0467,0.9951,0.9607,0.9087,0.8823,0.874,0.874,0.874,0.874,0.8915,0.8828,0.874,0.0,0.0,0.0,0.0,0.0,0.0,0.0,0.0,0.0,0.0,0.0,0.0,0.0,0.0,0.0,0.0,0.0,0.0,0.0,0.0,0.0,0.0,0.0,0.0,0.0,0.0,0.0,1.0802,1.0962,1.1255,1.1725,1.1483,1.1028,0.0,0.0,0.0,0.0,0.0,0.0,0.9333,0.0,0.0,0.0,0.0,0.0,0.0,0.0,0.0,0.0,0.0,0.0,0.0,0.0,0.0,0.0,0.997,0.9828,0.978,1.0189,1.099,1.1823,1.2354,0.0,1.3509,1.3616,0.0,0.0,0.0,0.0,0.0,0.0,1.4388,1.4942,1.628,1.6647,1.6831,1.7082,1.7666,1.7963,1.7667,1.8068,1.8092,1.7519,1.7216,1.6895,1.6492,1.6484,1.6484,1.6484,1.6411,1.6288,1.5965,1.5965,1.5764,1.534,1.534,1.534,1.5347,1.4824,1.423,1.3476,1.2619,1.1671,1.0727,1.0125,0.9607,0.9174,0.8911,0.874,0.8568,0.8568,0.8568,0.8568,0.8568,0.8568,0.8568,0.0,0.0,0.0,0.0,0.0,0.0,0.0,0.0,0.0,0.0,0.0,0.0,0.0,0.0,0.0,0.0,0.0,0.0,0.0,0.0,0.0,0.0,0.0,0.0,0.0,1.0029,1.0698,1.0798,1.1431,1.176,1.179,1.1094,1.0416,0.0,0.0,0.0,0.0,0.0,0.0,0.8525,0.7962,0.0,0.0,0.0,0.0,0.0,0.0,0.0,0.0,0.0,0.0,0.0,0.0,0.0,0.9536,0.9893,0.9854,0.978,1.0189,1.0714,1.1367,1.2259,1.3545,0.0,1.3912,1.4413,0.0,1.4419,0.0,0.0,0.0,1.5225,1.569,1.691,1.6626,1.6504,1.7377,1.7337,1.7261,1.727,1.7103,1.697,1.6674,1.63,1.5992,1.5753,1.5753,1.5753,1.5753,1.5614,1.5537,1.5606,1.5453,1.5272,1.5082,1.509,1.509,1.509,1.4657,1.3802,1.279,1.21,1.116,1.0038,0.9519,0.9174,0.8911,0.874,0.8656,0.8568,0.8568,0.8568,0.8568,0.8568,0.8568,0.8564,0.0,0.0,0.0,0.0,0.0,0.0,0.0,0.0,0.0,0.0,0.0,0.0,0.0,0.0,0.0,0.0,0.0,0.0,0.0,0.0,0.0,0.0,0.0,0.8862,0.9473,0.9976,1.0633,1.1431,1.1728,1.1869,1.1912,1.1132,0.0,0.0,0.0,0.0,0.0,0.0,0.0,0.0,0.7642,0.7684,0.0,0.0,0.0,0.0,0.0,0.0,0.0,0.0,0.8142,0.8558,0.0,0.9087,0.9475,0.9484,0.9629,0.9847,1.0234,1.072,1.1351,1.2387,0.0,0.0,0.0,0.0,1.5589,1.5656,1.5781,0.0,1.578,1.5647,1.5889,1.701,1.6675,1.6393,1.7073,1.7035,1.6855,1.6581,1.6604,1.659,1.6226,1.6073,1.592,1.575,1.5674,1.5682,1.5536,1.5466,1.5296,1.5098,1.4941,1.4684,1.4335,1.4093,1.3763,1.3352,1.3805,1.347,1.2448,1.1671,1.0814,0.9951,0.9345,0.8999,0.8911,0.8652,0.8568,0.8568,0.8568,0.8568,0.8568,0.8568,0.8476,0.8292,0.0,0.0,0.0,0.0,0.0,0.0,0.0,0.0,0.0,0.0,0.0,0.0,0.0,0.0,0.0,0.0,0.0,0.0,0.0,0.0,0.0,0.0,0.0,0.9034,0.9635,0.9648,1.0365,1.1826,1.1701,1.153,1.1354,0.0,0.0,0.0,0.0,0.0,0.0,0.0,0.0,0.0,0.7496,0.7465,0.0,0.0,0.0,0.0,0.0,0.0,0.0,0.0,0.7636,0.7951,0.0,0.0,0.0,0.0,0.9654,0.9874,1.029,1.087,1.1556,0.0,0.0,0.0,0.0,0.0,1.6264,1.6763,1.6763,1.66,1.6286,1.5887,1.5948,1.6917,1.6475,1.6244,1.672,1.6705,1.6454,1.5965,1.6037,1.603,1.5664,1.5581,1.5506,1.5348,1.5348,1.5281,1.507,1.4986,1.4881,1.4528,1.4212,1.3875,1.3502,1.3107,1.2546,1.1822,1.2359,1.2326,1.1736,1.1037,1.0381,0.9602,0.9087,0.8823,0.8828,0.8652,0.8564,0.8472,0.8388,0.8388,0.8388,0.8388,0.8204,0.7933,0.0,0.0,0.0,0.0,0.0,0.0,0.0,0.0,0.0,0.0,0.0,0.0,0.0,0.0,0.0,0.0,0.0,0.0,0.0,0.0,0.0,0.0,0.0,0.8491,0.908,0.9111,1.0023,1.1876,1.1298,1.0647,0.9988,0.0,0.0,0.0,0.0,0.0,0.0,0.0,0.0,0.0,0.0,0.736,0.7298,0.0,0.0,0.0,0.0,0.0,0.0,0.0,0.7251,0.7422,0.0,0.0,0.0,0.986,1.0021,0.9912,1.0302,1.1149,1.2058,0.0,0.0,0.0,1.6021,1.6414,1.6871,1.7739,1.7809,1.7466,1.6711,1.6134,1.591,1.6592,1.6147,1.5907,1.6495,1.6342,1.5921,1.5576,1.5346,1.5133,1.4935,1.4721,1.4569,1.4569,1.4569,1.4569,1.4425,1.4209,1.4071,1.3967,1.3438,1.2956,1.2606,1.2215,1.1576,1.0692,1.0455,1.0336,1.0317,1.0277,0.9767,0.8907,0.8907,0.8819,0.8564,0.8564,0.8472,0.8197,0.794,0.7944,0.7944,0.7856,0.776,0.7401,0.0,0.0,0.0,0.0,0.0,0.0,0.0,0.0,0.0,0.0,0.0,0.0,0.0,0.0,0.0,0.0,0.0,0.0,0.0,0.0,0.0,0.0,0.0,0.0,0.0,0.0,1.0196,1.0694,1.0565,1.0415,0.0,0.0,0.0,0.883,0.0,0.0,0.0,0.0,0.0,0.0,0.0,0.7312,0.7294,0.0,0.0,0.0,0.0,0.0,0.0,0.0,0.0,0.0,0.7611,0.0,0.0,0.8948,0.969,1.0526,1.0927,1.1725,0.0,1.359,0.0,0.0,0.0,1.6767,0.0,0.0,1.7571,1.7281,1.6425,1.6204,1.6186,1.6306,1.6197,1.6178,1.6341,1.607,1.5718,1.5346,1.5141,1.4927,1.4713,1.4641,1.4569,1.4569,1.4497,1.4289,1.4008,1.3637,1.3228,1.2803,1.2208,1.1646,1.1118,1.0582,0.9972,0.9271,0.9266,0.9375,0.9674,0.9322,0.8937,0.8522,0.8346,0.8178,0.7938,0.7889,0.7849,0.7771,0.7895,0.7944,0.7852,0.7672,0.7224,0.6605,0.0,0.0,0.0,0.0,0.0,0.0,0.0,0.0,0.0,0.0,0.0,0.0,0.0,0.0,0.0,0.0,0.0,0.0,0.0,0.0,0.0,0.0,0.0,0.0,0.0,0.9352,0.9575,0.0,0.0,0.0,0.0,0.0,0.0,0.853,0.0,0.0,0.0,0.0,0.0,0.0,0.0,0.7294,0.7262,0.0,0.0,0.0,0.0,0.0,0.0,0.0,0.0,0.0,0.0,0.0,0.0,0.8826,0.974,1.0791,1.1203,1.2113,0.0,1.4005,1.4803,1.5725,1.6982,0.0,0.0,0.0,1.7761,1.753,1.6607,1.6325,1.6287,1.6252,1.6138,1.6102,1.6219,1.5929,1.5576,1.5204,1.4999,1.4792,1.4641,1.4569,1.4569,1.4497,1.4353,1.4065,1.3572,1.32,1.2673,1.1929,1.1335,1.0738,1.0062,0.9539,0.8937,0.8331,0.8371,0.8409,0.8608,0.8611,0.8435,0.8189,0.802,0.7773,0.7537,0.7465,0.7418,0.7429,0.7357,0.7263,0.7145,0.6873,0.6292,0.5628,0.0,0.0,0.8705,0.8705,0.0,0.0,0.0,0.0,0.0,0.0,0.0,0.0,0.0,0.0,0.0,0.8705,0.0,0.0,0.0,0.0,0.0,0.0,0.0,0.0,0.0,0.0,0.0,0.0,0.0,0.0,0.0,0.0,0.815,0.8011,0.0,0.7724,0.0,0.0,0.0,0.0,0.7308,0.7246,0.7187,0.7187,0.0,0.0,0.0,0.0,0.0,0.0,0.0,0.0,0.7743,0.0,0.8716,0.9187,0.9957,1.0803,1.1234,1.2325,0.0,1.4014,1.5219,0.0,1.738,1.8294,1.8777,1.801,1.8025,1.7933,1.6961,1.6446,1.6169,1.6248,1.5986,1.5848,1.6009,1.5718,1.5426,1.5204,1.4999,1.4776,1.4593,1.4553,1.4553,1.4314,1.4114,1.3768,1.3119,1.2673,1.2077,1.1335,1.0663,0.9986,0.9226,0.8851,0.8327,0.7804,0.7804,0.7646,0.7492,0.807,0.8139,0.7881,0.7726,0.7484,0.7323,0.7083,0.7005,0.7008,0.6523,0.6276,0.6049,0.5609,0.5068,0.4446,0.0,0.0,0.8705,0.8705,0.0,0.0,0.0,0.0,0.0,0.8681,0.8681,0.8693,0.8693,0.8705,0.0,0.8705,0.8705,0.0,0.0,0.0,0.0,0.0,0.0,0.0,0.0,0.0,0.0,0.0,0.0,0.0,0.0,0.0,0.0,0.8066,0.0,0.7724,0.0,0.0,0.0,0.0,0.7292,0.723,0.7123,0.7123,0.7123,0.0,0.0,0.0,0.0,0.0,0.0,0.0,0.7256,0.7659,0.8167,0.8578,0.9615,1.0776,1.1543,1.2842,0.0,0.0,1.5624,1.6784,1.7255,1.7923,1.8162,1.7383,1.7099,1.6799,1.6159,1.5984,1.5956,1.582,1.6005,1.6105,1.5929,1.5497,1.5275,1.5204,1.4848,1.453,1.4252,1.4474,1.4316,1.3769,1.3633,1.3266,1.2526,1.1781,1.1111,1.0519,0.9685,0.9079,0.8627,0.8178,0.7876,0.7561,0.7561,0.7561,0.7484,0.7643,0.7602,0.7368,0.7129,0.6973,0.6752,0.6635,0.6522,0.6377,0.6242,0.5969,0.5577,0.4984,0.4238,0.3576,0.0,0.0,0.0,0.0,0.0,0.0,0.0,0.0,0.0,0.8705,0.8705,0.8705,0.8705,0.8705,0.0,0.0,0.8705,0.8705,0.0,0.0,0.0,0.0,0.0,0.0,0.0,0.0,0.0,0.0,0.0,0.0,0.0,0.0,0.0,0.8615,0.0,0.8241,0.0,0.0,0.0,0.7292,0.7262,0.7185,0.7107,0.7107,0.7107,0.7107,0.7107,0.0,0.0,0.0,0.0,0.0,0.0,0.0,0.7928,0.807,0.9097,1.03,1.0943,0.0,0.0,1.5254,0.0,1.688,1.7459,1.7667,1.7562,1.6828,1.6752,1.6624,1.6014,1.5806,1.5624,1.5362,1.5507,1.5512,1.5189,1.4898,1.4616,1.4616,1.434,1.4061,1.3878,1.3968,1.38,1.3203,1.3145,1.2684,1.1676,1.1076,1.0431,0.9656,0.9025,0.8557,0.8107,0.7905,0.7723,0.7484,0.7484,0.7484,0.7334,0.7334,0.7257,0.7022,0.6868,0.6641,0.6416,0.6257,0.6051,0.5744,0.5494,0.507,0.4543,0.3967,0.333,0.2689,0.0,0.0,0.0,0.0,0.0,0.0,0.0,0.0,0.0,0.8705,0.8705,0.8705,0.8705,0.8705,0.8705,0.0,0.0,0.0,0.8705,0.0,0.0,0.0,0.0,0.0,0.0,0.0,0.0,0.0,0.0,0.0,0.0,0.0,0.0,0.0,0.0,0.0,0.0,0.0,0.0,0.7292,0.7233,0.7171,0.7107,0.7107,0.7107,0.7107,0.7107,0.7107,0.7107,0.7107,0.0,0.0,0.0,0.0,0.7729,0.7698,0.8581,0.9696,1.0237,0.0,1.3732,1.5772,1.6379,0.0,1.739,1.7291,1.6914,1.6254,1.6407,1.6514,1.597,1.5597,1.5285,1.4959,1.4902,1.478,1.4469,1.4197,1.3991,1.3924,1.3717,1.3561,1.3505,1.3443,1.3192,1.2721,1.26,1.2033,1.0893,1.0467,0.9845,0.8941,0.8471,0.8052,0.7755,0.7731,0.7596,0.7439,0.7472,0.7334,0.718,0.7103,0.7026,0.6865,0.6637,0.6486,0.618,0.5941,0.5553,0.5165,0.4698,0.4045,0.339,0.2908,0.2454,0.1912,0.0,0.0,0.0,0.0,0.0,0.0,0.0,0.0,0.0,0.0,0.8705,0.8705,0.8705,0.8705,0.8705,0.8705,0.8705,0.8705,0.0,0.0,0.0,0.0,0.0,0.0,0.0,0.0,0.0,0.0,0.0,0.0,0.0,0.0,0.0,0.0,0.0,0.0,0.0,0.0,0.0,0.7306,0.7292,0.7214,0.7107,0.7107,0.7107,0.7107,0.7107,0.7107,0.7107,0.7107,0.7107,0.0,0.0,0.0,0.7186,0.7506,0.8273,0.9279,0.0,0.0,1.4362,0.0,1.5506,1.5886,1.6096,1.6222,1.6081,1.5456,1.5407,1.5405,1.5235,1.4979,1.4772,1.485,1.4772,1.4649,1.4404,1.4131,1.3924,1.3924,1.3717,1.3473,1.3187,1.3309,1.3025,1.2189,1.1931,1.1401,1.0402,0.9729,0.9103,0.8523,0.7909,0.7561,0.7338,0.7314,0.7261,0.7261,0.7263,0.7099,0.6942,0.6791,0.6641,0.6641,0.6641,0.6328,0.5941,0.5553,0.5165,0.4698,0.3917,0.3299,0.2838,0.2285,0.1896,0.1586,0.0,0.0,0.0,0.0,0.0,0.0,0.0,0.0,0.0,0.0,0.0,0.8745,0.8705,0.8705,0.8705,0.8705,0.8705,0.0,0.0,0.0,0.0,0.0,0.0,0.0,0.0,0.0,0.0,0.0,0.0,0.0,0.0,1.0093,1.027,0.0,0.0,0.0,0.0,0.0,0.0,0.7333,0.7631,0.7687,0.0,0.0,0.7906,0.7608,0.7608,0.7391,0.7107,0.7107,0.7107,0.7107,0.7107,0.0,0.0,0.0,0.7513,0.8285,1.0131,1.1766,1.3247,0.0,1.4957,1.5196,1.569,1.5667,1.533,1.4686,1.434,1.4212,1.4514,1.4258,1.4004,1.3999,1.3836,1.371,1.3529,1.3394,1.3275,1.3203,1.3076,1.2957,1.268,1.2544,1.2247,1.1525,1.1352,1.0775,0.9626,0.9349,0.8816,0.7947,0.7509,0.7216,0.7081,0.7052,0.7001,0.6933,0.6805,0.6651,0.6579,0.6287,0.6328,0.6563,0.6328,0.5941,0.5553,0.5007,0.4384,0.3759,0.3134,0.2511,0.1963,0.1649,0.1335,0.0943,0.0,0.0,0.0,0.0,0.0,0.0,0.0,0.0,0.0,0.0,0.0,0.8781,0.8717,0.0,0.0,0.0,0.8705,0.0,0.0,0.0,0.0,0.0,0.0,0.0,0.0,0.0,0.0,0.0,0.0,0.0,1.0795,1.0543,1.0788,0.0,1.0991,0.0,0.0,0.0,0.0,0.7568,0.7971,0.8164,0.8298,0.8867,0.8813,0.8428,0.0,0.7955,0.7304,0.732,0.7229,0.7091,0.7104,0.7006,0.0,0.0,0.0,0.0,0.0,0.0,1.217,1.3622,1.4161,1.4441,1.4898,1.4839,1.4499,1.3879,1.3411,1.3286,1.366,1.3492,1.3288,1.3224,1.305,1.2928,1.2805,1.2744,1.2683,1.2621,1.256,1.2436,1.2243,1.1926,1.149,1.0996,1.0755,1.0127,0.8958,0.8871,0.8353,0.74,0.7145,0.695,0.6751,0.6794,0.6766,0.6531,0.6357,0.6208,0.6172,0.5835,0.5829,0.6093,0.5783,0.5395,0.4929,0.4304,0.36,0.282,0.2353,0.1805,0.1178,0.11,0.0786,0.0393,0.0,0.0,0.0,0.0,0.0,0.0,0.0,0.0,0.0,0.0,0.0,0.8809,0.8798,0.8745,0.8705,0.8705,0.8705,0.0,0.0,0.0,0.0,0.0,0.0,0.0,0.0,0.0,0.0,0.0,0.0,0.0,1.0795,1.0591,1.1091,1.2112,1.1187,1.0622,1.0255,0.0,0.0,0.0,0.819,0.846,0.8914,0.9443,0.9635,0.9609,0.9609,0.8846,0.7874,0.7928,0.7567,0.7091,0.7099,0.7003,0.6858,0.0,0.0,0.0,0.0,1.035,0.0,1.1841,1.2713,1.345,1.3111,1.3329,1.3484,1.3063,1.2958,1.2802,1.2552,1.2635,1.2814,1.2992,1.2928,1.2805,1.2805,1.2683,1.2629,1.2621,1.2436,1.2243,1.212,1.1615,1.1115,1.0548,0.9919,0.9274,0.8554,0.8057,0.7545,0.6946,0.6819,0.6626,0.6432,0.6403,0.6297,0.6097,0.6104,0.5964,0.5722,0.5358,0.5047,0.4844,0.5002,0.4691,0.4146,0.3444,0.282,0.2195,0.157,0.1178,0.0864,0.0471,0.0236,-0.0079,0.0,0.0,0.0,0.0,0.0,0.0,0.0,0.0,0.0,0.0,0.0,0.0,0.0,0.8745,0.8705,0.8705,0.0,0.0,0.0,0.0,0.0,0.0,0.0,0.0,0.0,0.0,0.0,0.0,0.0,0.9192,1.0107,1.0366,1.0885,1.1547,1.1474,1.1041,1.0347,0.9782,0.0,0.0,0.9158,0.9595,0.0,1.0635,1.0863,1.0838,1.0815,1.003,0.8997,0.9018,0.8585,0.7989,0.7595,0.7387,0.716,0.6469,0.6738,0.0,0.0,0.0,0.0,1.1289,1.18,1.2086,1.2325,1.2477,1.2397,1.196,1.187,1.1861,1.178,1.2206,1.2538,1.256,1.2591,1.2683,1.2683,1.2498,1.2375,1.2313,1.2003,1.1685,1.131,1.0787,1.0218,0.9588,0.9134,0.8554,0.7907,0.7657,0.733,0.6811,0.6741,0.6544,0.628,0.6007,0.5801,0.5658,0.5547,0.5265,0.4885,0.4533,0.4033,0.3591,0.3288,0.3163,0.3051,0.2507,0.196,0.1335,0.1021,0.0628,0.0314,0.0,-0.0393,-0.0942,0.0,0.0,0.0,0.9043,0.0,0.912,0.9109,0.905,0.0,0.0,0.0,0.0,0.0,0.0,0.0,0.0,0.0,0.0,0.0,0.0,0.0,0.0,0.0,0.0,0.0,0.0,0.0,0.0,0.0,0.0,0.0,0.0,1.0412,1.0872,1.1071,1.0988,0.0,0.0,0.0,0.946,0.0,1.0498,1.1048,1.175,1.2151,1.2255,1.1996,1.1255,1.0373,1.0127,0.9491,0.8744,0.8252,0.7728,0.7134,0.6317,0.6337,0.0,0.7462,0.0,0.0,0.0,1.0897,1.1141,1.1501,1.1582,1.1537,1.1217,1.1111,1.1057,1.1168,1.1674,1.2061,1.2002,1.2169,1.2202,1.2202,1.2116,1.2004,1.1829,1.1556,1.1115,1.0604,1.0028,0.939,0.8753,0.8366,0.7912,0.733,0.7265,0.6999,0.6544,0.6478,0.628,0.6013,0.5683,0.5425,0.5163,0.4981,0.4637,0.4194,0.3703,0.313,0.2534,0.194,0.1826,0.2037,0.1647,0.1099,0.055,0.0393,0.0079,-0.0314,-0.0706,-0.1256,-0.1883,0.9109,0.9113,0.9099,0.9099,0.9161,0.9168,0.9109,0.905,0.0,0.0,0.0,0.0,0.0,0.0,0.0,0.0,0.0,0.0,0.0,0.0,0.0,0.0,0.0,0.0,0.0,0.0,0.0,0.0,0.0,0.0,0.0,0.0,0.9749,0.0,0.9972,1.0446,1.1312,0.0,1.0172,1.0054,0.0,1.1123,1.1643,0.0,1.347,1.3835,1.32,1.2563,1.1936,1.1199,1.0238,0.9309,0.9007,0.7983,0.6813,0.6211,0.6271,0.6639,0.0,0.0,0.0,0.9169,1.0025,1.0695,1.0524,1.066,1.0849,1.0827,1.0654,1.0539,1.0645,1.095,1.1245,1.1408,1.1471,1.1487,1.1487,1.1492,1.1405,1.1294,1.0965,1.0514,0.9996,0.9308,0.8737,0.8215,0.7697,0.7316,0.6872,0.6741,0.6544,0.621,0.602,0.5818,0.5617,0.5425,0.5163,0.4764,0.4422,0.4011,0.363,0.2793,0.2198,0.1744,0.1018,0.0899,0.1176,0.0784,0.0314,-0.0079,-0.0236,-0.055,-0.1021,-0.1647,-0.2349,-0.2974,0.9181,0.9164,0.9174,0.9177,0.9187,0.9194,0.9181,0.9106,0.0,0.0,0.0,0.0,0.0,0.0,0.0,0.0,0.0,0.0,0.0,0.0,0.0,0.0,0.0,0.0,0.0,0.0,0.0,0.0,0.0,0.0,0.0,0.0,0.0,0.0,0.9706,0.9906,1.0037,1.0123,0.0,1.0096,1.1009,1.1696,1.226,1.3347,1.4026,1.4393,1.4462,1.4001,1.3292,1.2626,1.18,1.0816,0.9485,0.8213,0.7213,0.7002,0.7014,0.7157,0.7604,0.0,0.0,0.0,0.0,0.0,0.9591,0.982,0.9931,0.9663,1.0001,1.0319,1.0303,1.0519,1.0697,1.0635,1.106,1.1382,1.1382,1.1005,1.0603,1.0363,0.9787,0.9184,0.865,0.805,0.7446,0.7073,0.6705,0.6395,0.6157,0.6151,0.6086,0.5954,0.5818,0.562,0.5425,0.5027,0.4561,0.4092,0.3422,0.2898,0.2379,0.1767,0.1173,0.0708,0.0354,0.0144,0.0,0.0,-0.0309,-0.0629,-0.0707,-0.1178,-0.1883,-0.235,-0.3052,-0.3832,0.9204,0.9204,0.9196,0.9206,0.9189,0.9196,0.9191,0.9143,0.0,0.0,0.0,0.0,0.0,0.0,0.0,0.0,0.0,0.0,0.0,0.0,0.0,0.0,0.8705,0.0,0.0,0.0,0.0,0.0,0.0,0.0,0.0,0.0,0.0,0.0,0.8794,0.8787,0.8656,0.9108,0.9585,0.0,1.1162,1.1885,1.247,1.3801,1.4493,1.4809,1.4904,1.4725,1.4319,1.358,1.2663,1.1478,0.9597,0.8514,0.7893,0.7655,0.7565,0.0,0.0,0.0,0.0,0.9088,0.0,0.0,0.8973,0.9028,0.9074,0.885,0.9266,0.9616,0.9616,0.9835,1.0024,1.0073,1.0217,1.0409,1.0546,1.0183,0.9819,0.9529,0.8887,0.8375,0.7908,0.726,0.6787,0.6547,0.6181,0.5864,0.5728,0.5702,0.5658,0.5589,0.5387,0.5156,0.4957,0.4422,0.3889,0.3355,0.2686,0.2084,0.1547,0.1008,0.0543,0.0138,-0.0275,-0.0559,-0.079,-0.0875,-0.0974,-0.1084,-0.1408,-0.1961,-0.2665,-0.3209,-0.3988,-0.4768,0.0,0.9189,0.9189,0.9189,0.9189,0.9196,0.9199,0.9213,0.9206,0.0,0.0,0.0,0.0,0.0,0.0,0.0,0.0,0.0,0.0,0.0,0.0,0.8705,0.8705,0.8705,0.0,0.0,0.0,0.0,0.0,0.0,0.0,0.0,0.0,0.0,0.768,0.7514,0.7434,0.791,0.8797,0.9991,1.1148,1.1885,1.2459,1.413,1.4922,1.512,1.4883,1.4976,1.5073,1.4123,1.2922,1.1541,0.9735,0.9029,0.8778,0.8359,0.8174,0.0,0.9058,0.9294,0.0,0.9211,0.9307,0.0,0.8565,0.8408,0.8387,0.8319,0.8504,0.8733,0.8829,0.9144,0.9455,0.9578,0.9298,0.9176,0.9511,0.9267,0.8945,0.8675,0.8218,0.7832,0.7474,0.6889,0.6479,0.6309,0.5899,0.5551,0.5374,0.5344,0.5248,0.5068,0.4872,0.4613,0.4287,0.3687,0.3153,0.2619,0.2017,0.148,0.0941,0.0471,0.0135,-0.0135,-0.0807,-0.1159,-0.1256,-0.1679,-0.166,-0.1436,-0.2238,-0.28,-0.3339,-0.4192,-0.4963,-0.5733,0.9208,0.9189,0.9189,0.9189,0.9189,0.9196,0.9201,0.9697,0.0,0.0,0.0,0.0,0.0,0.0,0.0,0.0,0.0,0.0,0.0,0.0,0.8705,0.8705,0.8705,0.8705,0.8705,0.0,0.0,0.0,0.0,0.0,0.0,0.0,0.0,0.0,0.7665,0.7514,0.7406,0.7465,0.814,0.9336,1.0946,1.2071,1.2943,1.4637,1.5312,1.5442,1.5557,1.5441,1.5124,1.4048,1.2759,1.1483,1.0992,1.0375,0.9796,0.9708,0.9675,0.9677,0.9734,0.9756,0.9756,0.9691,0.9569,0.0,0.8701,0.855,0.8372,0.773,0.819,0.8651,0.851,0.8985,0.9329,0.9088,0.8812,0.8769,0.9231,0.8612,0.8063,0.7805,0.7302,0.6839,0.6512,0.6184,0.5905,0.5789,0.5412,0.514,0.5031,0.5001,0.4954,0.4944,0.4717,0.4457,0.4092,0.3424,0.2755,0.2017,0.1344,0.074,0.0202,-0.0067,-0.0471,-0.0875,-0.1144,-0.1417,-0.1766,-0.2359,-0.2496,-0.2349,-0.2656,-0.3248,-0.4127,-0.4716,-0.5377,-0.6037,0.9226,0.9189,0.9189,0.9189,0.9189,0.9329,0.9732,1.0118,0.0,0.0,0.0,0.0,0.0,0.0,0.0,0.0,0.0,0.0,0.0,0.0,0.8705,0.8705,0.8705,0.8705,0.8705,0.8705,0.0,0.0,0.0,0.0,0.0,0.0,0.0,0.0,0.0,0.7482,0.7355,0.7593,0.8168,0.9029,1.0508,1.1642,1.2708,1.4547,1.5106,1.4959,1.548,1.5322,1.4721,1.3793,1.3022,1.2302,1.174,1.1111,1.0651,1.0651,1.0478,1.0358,1.0712,1.0633,1.0474,1.0368,1.006,0.0,0.0,0.8507,0.8087,0.7527,0.7652,0.7817,0.7632,0.8151,0.8547,0.848,0.8319,0.8257,0.8432,0.7961,0.7524,0.7343,0.6869,0.644,0.6232,0.59,0.5567,0.5289,0.5091,0.4914,0.4692,0.4783,0.472,0.4549,0.4303,0.3924,0.3345,0.2611,0.1975,0.1319,0.0735,0.0202,-0.0135,-0.0539,-0.0942,-0.1345,-0.1679,-0.2083,-0.2557,-0.2999,-0.3245,-0.3432,-0.3526,-0.3996,-0.479,-0.5369,-0.6018,-0.6662,0.9216,0.9189,0.9199,0.9216,0.9226,0.949,1.0302,1.056,0.0,0.0,0.0,0.0,0.0,0.0,0.0,0.0,0.0,0.0,0.0,0.9246,0.8854,0.8705,0.8705,0.8693,0.8681,0.8669,0.0,0.0,0.0,0.0,0.0,0.0,0.0,0.0,0.0,0.0,0.0,0.0,0.8522,0.906,1.0203,1.1282,1.2411,1.4279,1.4732,1.4444,1.5084,1.488,1.4226,1.3619,1.3337,1.3125,1.233,1.1781,1.1488,1.1488,1.1212,1.1036,1.1648,1.1567,1.1245,1.1036,1.0613,1.0013,0.0,0.0,0.0,0.7549,0.7332,0.7153,0.6953,0.7375,0.7796,0.7822,0.7734,0.7607,0.7472,0.7247,0.7028,0.6965,0.6579,0.6226,0.6112,0.5734,0.5333,0.4861,0.4834,0.4747,0.4477,0.4565,0.4487,0.4167,0.3789,0.3299,0.2646,0.1903,0.1225,0.0711,0.0266,-0.0135,-0.0472,-0.0942,-0.1412,-0.1816,-0.235,-0.2887,-0.336,-0.3623,-0.402,-0.4439,-0.4429,-0.472,-0.5287,-0.5927,-0.6628,-0.7329,0.9208,0.9189,0.9226,0.9273,0.9282,0.9565,1.0362,1.1081,0.0,0.0,0.0,0.0,0.0,0.0,0.0,0.0,0.0,1.1197,0.9885,0.9719,0.0,0.8738,0.8705,0.8681,0.8616,0.8542,0.8479,0.0,0.0,0.0,0.0,0.0,0.765,0.7528,0.7997,0.0,0.0,0.0,0.9081,0.9599,1.0548,1.1574,1.2718,1.4125,1.4647,1.4638,1.4541,1.4337,1.401,1.3805,1.3464,1.3097,1.2992,1.2732,1.2446,1.2446,1.2403,1.234,1.231,1.2215,1.1954,1.147,1.1176,1.0726,0.9682,0.0,0.8739,0.7921,0.0,0.7813,0.7336,0.0,0.0,0.7196,0.6959,0.6782,0.6647,0.6401,0.6286,0.639,0.6121,0.5896,0.567,0.5375,0.494,0.448,0.4555,0.4534,0.427,0.4249,0.416,0.4045,0.3595,0.3056,0.2528,0.1841,0.116,0.0517,0.02,-0.0337,-0.1008,-0.1412,-0.1949,-0.2619,-0.3153,-0.3556,-0.3961,-0.4292,-0.4688,-0.5024,-0.4782,-0.5065,-0.5666,-0.6465,-0.7188,-0.7715,0.9274,0.9247,0.9274,0.9284,0.9311,0.9728,1.1008,1.2616,0.0,0.0,0.0,0.0,0.0,1.554,1.5221,0.0,1.4098,1.3302,1.181,1.1265,0.0,0.9399,0.9294,0.9058,0.8558,0.8521,0.8431,0.0,0.8152,0.0,0.0,0.0,0.756,0.7466,0.8002,0.0,0.8707,0.9549,1.0126,1.0547,1.1436,1.2114,1.2665,1.3897,1.4476,1.4609,1.4261,1.4057,1.3868,1.3621,1.3439,1.3274,1.3181,1.2884,1.259,1.259,1.2395,1.2241,1.2464,1.205,1.1528,1.1524,1.1,1.03,0.9666,0.913,0.8661,0.8143,0.0,0.0,0.0,0.0,0.0,0.0,0.6964,0.679,0.6546,0.6301,0.6225,0.632,0.6076,0.5735,0.5417,0.5178,0.4843,0.4416,0.4463,0.4344,0.398,0.3948,0.3766,0.3365,0.3028,0.2475,0.1812,0.1266,0.0735,0.0184,-0.0257,-0.0788,-0.1378,-0.2,-0.2619,-0.3355,-0.3754,-0.4289,-0.4827,-0.5027,-0.5355,-0.5749,-0.5939,-0.6137,-0.6465,-0.712,-0.7777,-0.8436,0.9349,0.0,0.0,0.933,0.933,0.9872,1.1463,1.363,1.5094,1.5191,1.59,1.6393,1.6408,1.6948,1.7013,1.6238,1.6005,1.5255,1.3778,1.2751,1.1646,1.0413,1.0092,0.9579,0.8802,0.8746,0.853,0.814,0.0,0.0,0.0,0.0,0.0,0.7404,0.8135,0.8737,0.9329,1.0379,1.1018,1.1374,1.2046,1.2465,1.282,1.3759,1.4307,1.4488,1.4114,1.3868,1.3716,1.3467,1.3324,1.3228,1.3132,1.2827,1.2553,1.2609,1.2371,1.2193,1.252,1.2078,1.1465,1.1412,1.0766,1.0012,0.9502,0.9028,0.8596,0.8343,0.7975,0.0,0.0,0.0,0.7352,0.7142,0.0,0.6798,0.6392,0.6166,0.6063,0.6173,0.5841,0.5459,0.5012,0.4926,0.467,0.4234,0.4217,0.4072,0.3657,0.3599,0.3294,0.274,0.2406,0.1905,0.1178,0.0753,0.0354,-0.0118,-0.0753,-0.129,-0.187,-0.2716,-0.342,-0.409,-0.4486,-0.502,-0.5561,-0.5624,-0.5951,-0.6474,-0.6924,-0.7316,-0.7577,-0.7967,-0.8554,-0.921,0.9501,0.9394,0.0,0.0,0.9392,0.9925,1.1458,1.3574,1.5222,1.5888,1.7061,1.8042,1.8629,1.9244,1.9266,1.8485,1.7806,1.6795,1.5237,1.3771,1.2599,1.1776,1.0994,1.022,0.9484,0.9353,0.8861,0.8011,0.787,0.0,0.0,0.0,0.0,0.0,0.854,0.9364,0.9944,1.0945,1.1558,1.1886,1.2058,1.2543,1.3234,1.3779,1.4161,1.4373,1.4114,1.3821,1.3573,1.3467,1.3132,1.2813,1.2803,1.2657,1.251,1.2657,1.2696,1.2686,1.2706,1.2589,1.2224,1.1185,1.0705,1.0215,0.9228,0.8935,0.8814,0.8545,0.8488,0.8335,0.7873,0.7771,0.0,0.0,0.6749,0.0,0.0,0.5691,0.5558,0.5609,0.54,0.4995,0.4472,0.4487,0.4295,0.3769,0.3805,0.3624,0.3224,0.3016,0.2738,0.2238,0.1846,0.1399,0.0898,0.0464,0.0,-0.0472,-0.1253,-0.1931,-0.2576,-0.3504,-0.4281,-0.4815,-0.5348,-0.5686,-0.5888,-0.6083,-0.6474,-0.6924,-0.7447,-0.8296,-0.921,-0.9268,-0.9518,-1.0021,0.0,0.0,0.0,0.0,0.0,1.0863,1.2856,1.4621,1.6098,1.7188,1.8041,1.8778,1.9328,1.9957,2.0069,1.9287,1.9462,1.8757,1.6785,1.6147,1.5032,1.3197,1.2867,1.21,1.0796,1.066,0.9963,0.8591,0.8466,0.0,0.0,0.0,0.0,0.0,0.0,0.9548,1.0515,1.1936,1.2904,1.3476,1.3524,1.3556,1.3618,1.3784,1.3969,1.4104,1.402,1.3763,1.342,1.3094,1.2803,1.2569,1.2274,1.2126,1.1977,1.2026,1.2026,1.2026,1.2026,1.1737,1.1259,1.0486,0.9985,0.9459,0.8766,0.8578,0.8568,0.8632,0.8637,0.8625,0.8596,0.825,0.0,0.0,0.0,0.0,0.0,0.5264,0.4828,0.4644,0.4792,0.4729,0.423,0.4105,0.3829,0.3285,0.3236,0.3034,0.2511,0.237,0.2071,0.1513,0.1233,0.0897,0.0336,0.0057,-0.0399,-0.1028,-0.1667,-0.2451,-0.3437,-0.4115,-0.4733,-0.5348,-0.5815,-0.6148,-0.6478,-0.6741,-0.7195,-0.7842,-0.849,-0.9198,-0.9767,-0.9767,-1.0091,-1.0604,1.0358,0.0,0.0,0.0,1.099,1.2317,1.3694,1.5591,1.7097,1.7829,1.8903,1.9714,2.0023,2.0666,2.0886,2.0423,2.0572,2.0081,1.8604,1.7732,1.6547,1.4953,1.4313,1.3394,1.2085,1.1683,1.0868,0.9546,0.8916,0.8358,0.0,0.0,0.0,0.0,0.0,0.9758,1.11,1.2465,1.3533,1.4306,1.4311,1.4058,1.3696,1.386,1.3984,1.3973,1.3973,1.3631,1.319,1.2861,1.252,1.2175,1.1877,1.1628,1.1427,1.1469,1.1477,1.1477,1.1427,1.1146,1.0677,1.0007,0.9463,0.8941,0.8423,0.8303,0.8323,0.8406,0.8513,0.8573,0.8571,0.8246,0.7817,0.0,0.0,0.0,0.0,0.4852,0.4344,0.4058,0.4312,0.4345,0.3937,0.3699,0.3381,0.2876,0.2729,0.2414,0.1822,0.1748,0.1431,0.0881,0.0669,0.0336,-0.0112,-0.0449,-0.0897,-0.157,-0.2257,-0.3102,-0.4058,-0.4684,-0.5274,-0.5815,-0.621,-0.6544,-0.6937,-0.7335,-0.7917,-0.8689,-0.9326,-0.9901,-1.0408,-1.0408,-1.073,-1.1178,1.1898,1.1952,1.1797,1.1059,1.2687,1.4094,1.4071,1.641,1.8134,1.7929,1.9647,2.0844,2.0766,2.1367,2.1797,2.1797,2.118,2.0681,2.0521,1.8532,1.7221,1.6901,1.5445,1.4202,1.3358,1.2484,1.161,1.0746,0.926,0.0,0.0,0.0,0.0,0.0,0.8748,0.0,1.1668,1.2522,1.3459,1.4322,1.4358,1.4004,1.3583,1.4014,1.4093,1.3962,1.3821,1.344,1.2958,1.2725,1.2224,1.1678,1.1528,1.1167,1.0922,1.1023,1.1074,1.1023,1.0871,1.0769,1.0477,0.9631,0.9167,0.8712,0.8193,0.8076,0.8032,0.7942,0.8151,0.8231,0.7878,0.7846,0.768,0.0,0.0,0.0,0.5029,0.4468,0.4113,0.3891,0.3937,0.381,0.3491,0.3276,0.2965,0.2491,0.2134,0.1776,0.1327,0.1125,0.0852,0.0426,0.011,-0.0168,-0.0449,-0.101,-0.1569,-0.2071,-0.3056,-0.3865,-0.4537,-0.53,-0.5841,-0.6199,-0.6605,-0.6937,-0.7265,-0.7857,-0.8565,-0.9396,-0.9894,-1.0534,-1.1185,-1.1122,-1.1435,-1.1864,1.1898,1.2817,1.3719,1.4131,1.4141,1.4633,1.6202,1.7435,1.8508,1.9324,2.0303,2.1072,2.1479,2.1681,2.1797,2.1797,2.1615,2.1226,2.0524,1.9927,1.9204,1.8318,1.7798,1.6834,1.54,1.4541,1.322,1.1366,0.9947,0.0,0.8307,0.0,0.0,0.0,0.0,0.9931,1.1668,1.2565,1.3649,1.467,1.4824,1.4552,1.4014,1.4133,1.4035,1.3821,1.3716,1.3382,1.291,1.2421,1.1927,1.1477,1.1023,1.0769,1.0624,1.0624,1.0667,1.0565,1.0308,1.0138,0.9849,0.8976,0.8587,0.8345,0.7963,0.7796,0.7802,0.8131,0.8085,0.7914,0.7837,0.7596,0.7269,0.6719,0.5952,0.5136,0.4356,0.3993,0.3733,0.3471,0.3382,0.3239,0.3007,0.2768,0.239,0.188,0.1675,0.1394,0.1002,0.0808,0.0639,0.0426,-0.0055,-0.0449,-0.0785,-0.1456,-0.2183,-0.2852,-0.3551,-0.4257,-0.5045,-0.5502,-0.5922,-0.6353,-0.688,-0.7396,-0.7977,-0.8689,-0.946,-1.0231,-1.073,-1.1365,-1.1934,-1.1677,-1.1809,-1.212,1.4011,1.4923,1.6091,1.7211,1.6953,1.687,1.7659,1.8562,1.9482,2.0374,2.1009,2.149,2.1777,2.1797,2.1797,2.1797,2.1768,2.1497,2.0907,2.0448,1.9899,1.9137,1.8563,1.77,1.6394,1.5544,1.4231,1.2381,1.0705,0.949,0.8705,0.0,0.0,0.0,0.0,1.0035,1.2033,1.3266,1.415,1.4716,1.4934,1.4686,0.0,1.414,1.3952,1.3773,1.3515,1.3238,1.2871,1.2224,1.1728,1.1326,1.0871,1.0624,1.0522,1.0522,1.047,1.0316,0.994,0.9621,0.9266,0.8635,0.8184,0.7898,0.7653,0.7517,0.7505,0.7665,0.7584,0.7435,0.7206,0.6993,0.6602,0.5987,0.5325,0.4708,0.4136,0.3862,0.362,0.3412,0.3197,0.298,0.2743,0.2447,0.2091,0.1665,0.1419,0.1142,0.0872,0.0578,0.0358,0.0208,-0.0383,-0.0841,-0.1176,-0.2069,-0.2794,-0.3408,-0.4073,-0.471,-0.5277,-0.568,-0.61,-0.6539,-0.7182,-0.7852,-0.8624,-0.9326,-1.0098,-1.0926,-1.149,-1.2058,-1.249,-1.2482,-1.2544,-1.2728,1.7113,1.7632,1.8466,1.9916,2.0048,1.9712,1.8974,1.9807,2.0676,2.1051,2.1614,2.194,2.1811,2.1797,2.1797,2.1797,2.1738,2.1617,2.1386,2.0587,1.9972,1.9638,1.8648,1.7768,1.6967,1.6008,1.4863,1.3484,1.1428,1.0013,0.0,0.0,0.0,0.0,0.0,0.0,1.2454,1.4116,1.4691,1.4526,1.4811,1.464,1.4222,1.4057,1.3926,1.3716,1.3324,1.3045,1.2774,1.2126,1.1628,1.1226,1.082,1.0565,1.0522,1.047,1.0368,1.0154,0.9673,0.9263,0.885,0.8421,0.7866,0.7434,0.7286,0.7241,0.7184,0.6927,0.6939,0.6844,0.6399,0.6126,0.5737,0.5054,0.4776,0.4458,0.3992,0.3698,0.3509,0.3401,0.3102,0.0,0.2612,0.2273,0.1969,0.1685,0.1334,0.102,0.0831,0.0409,0.0097,-0.005,-0.0811,-0.1345,-0.1734,-0.2683,-0.3463,-0.3907,-0.4625,-0.5146,-0.5481,-0.5969,-0.6389,-0.6813,-0.749,-0.8306,-0.9204,-0.9831,-1.0661,-1.1553,-1.2236,-1.2674,-1.3042,-1.339,-1.3563,-1.3683,1.9343,1.9633,1.9973,2.0847,2.0865,2.0898,2.1241,2.1257,2.1208,2.1119,2.1575,2.1899,2.1811,2.1797,2.1797,2.1797,2.1738,2.1587,2.134,2.0959,2.0589,2.0273,1.976,1.9105,1.8291,1.6937,1.5504,1.4054,1.1597,1.0028,0.0,0.0,0.0,0.0,0.0,0.0,1.2193,1.4008,1.4536,1.4169,1.4673,1.4686,1.4326,1.4104,1.3868,1.3573,1.319,1.2968,1.2783,1.1977,1.1528,1.1217,1.0718,1.0522,1.047,1.0368,1.0213,0.9947,0.942,0.8995,0.8521,0.799,0.7475,0.718,0.7127,0.6967,0.6806,0.6865,0.6632,0.6255,0.5887,0.5278,0.4646,0.4111,0.3922,0.3611,0.3095,0.2885,0.2775,0.2698,0.2466,0.2355,0.2429,0.2192,0.189,0.1565,0.1263,0.1039,0.0871,0.0358,-0.0048,-0.0252,-0.1188,-0.1903,-0.2352,-0.3241,-0.3962,-0.4522,-0.5022,-0.5423,-0.5746,-0.6262,-0.668,-0.7104,-0.8112,-0.8994,-0.9894,-1.0534,-1.1483,-1.2613,-1.3086,-1.3563,-1.4034,-1.4442,-1.4864,-1.5177,2.1182,2.1377,2.157,2.2275,2.2287,2.2276,2.2487,2.2219,2.1907,2.1718,2.1826,2.1869,2.1827,2.1797,2.1797,2.1738,2.1617,2.1433,2.1103,2.0811,2.0512,2.022,1.9818,1.9269,1.856,1.7397,1.6157,1.4761,1.2539,1.1058,0.0,0.8973,0.8757,0.9549,0.0,1.1413,1.282,1.4026,1.4434,1.4322,1.4709,1.4662,1.4384,1.401,1.3716,1.342,1.3007,1.2725,1.248,1.1828,1.1427,1.1124,1.0675,1.047,1.0368,1.0213,0.9947,0.9577,0.9047,0.8567,0.809,0.7509,0.7192,0.6928,0.6761,0.6652,0.6544,0.644,0.6168,0.5675,0.4947,0.4407,0.3931,0.343,0.3176,0.2953,0.2573,0.2391,0.2266,0.214,0.2013,0.1963,0.2039,0.1811,0.1652,0.1603,0.1223,0.0948,0.079,0.0211,-0.0325,-0.0704,-0.1645,-0.2364,-0.2965,-0.3855,-0.4519,-0.5014,-0.5458,-0.5894,-0.6337,-0.6876,-0.7435,-0.7989,-0.8903,-0.9767,-1.0598,-1.1483,-1.2359,-1.3216,-1.358,-1.4172,-1.4746,-1.5108,-1.5584,-1.5941,2.2638,2.2761,2.297,2.3624,2.3632,2.3565,2.3576,2.3248,2.2818,2.2344,2.2032,2.1869,2.1827,2.1797,2.1768,2.1724,2.1495,2.123,2.0893,2.0545,2.0204,1.997,1.9596,1.9177,1.8711,1.7855,1.6793,1.5502,1.3677,1.2355,1.1479,1.0264,0.9933,1.0363,1.1799,1.2742,1.3377,1.4118,1.4482,1.4588,1.4744,1.4627,1.4326,1.3905,1.3563,1.3218,1.2764,1.2382,1.2076,1.1528,1.1267,1.1023,1.0565,1.0368,1.0213,0.9947,0.9577,0.9152,0.8626,0.815,0.7717,0.7246,0.6982,0.6766,0.649,0.6381,0.6218,0.6005,0.5622,0.507,0.4058,0.3679,0.3362,0.2802,0.2549,0.2328,0.2096,0.1856,0.1669,0.1564,0.145,0.141,0.1488,0.1331,0.1263,0.1505,0.1139,0.0811,0.0653,0.0,-0.0622,-0.1191,-0.2078,-0.2909,-0.3539,-0.4391,-0.5066,-0.55,-0.5941,-0.6493,-0.6986,-0.7618,-0.8214,-0.8892,-0.9718,-1.0534,-1.1421,-1.2367,-1.3094,-1.3683,-1.4121,-1.4706,-1.541,-1.5768,-1.6114,-1.6524,2.3469,2.3592,2.3799,2.4468,2.4491,2.4554,2.5032,2.4758,2.3977,2.2479,2.202,2.1827,2.1797,2.1797,2.1768,2.1724,2.1464,2.1183,2.0827,2.0376,2.0045,1.9848,1.9472,1.931,1.9339,1.8542,1.7461,1.6126,1.479,1.3435,1.2113,1.1357,1.1145,1.1427,1.2758,1.3289,1.3206,1.4441,1.4754,1.4549,1.4711,1.4581,1.4176,1.3752,1.3314,1.2774,1.2314,1.1927,1.1519,1.1124,1.1023,1.1023,1.047,1.0162,0.9947,0.9569,0.9152,0.8778,0.8374,0.7895,0.7461,0.7192,0.6923,0.6652,0.6436,0.6218,0.6005,0.585,0.5183,0.4361,0.3582,0.3229,0.2871,0.2265,0.1955,0.1683,0.1428,0.1041,0.084,0.0809,0.0581,0.0549,0.086,0.0647,0.0616,0.0862,0.0893,0.0746,0.0435,-0.0279,-0.0961,-0.1618,-0.2611,-0.3453,-0.4095,-0.4873,-0.5555,-0.61,-0.6598,-0.7099,-0.7655,-0.8381,-0.895,-0.9456,-1.0477,-1.149,-1.2498,-1.3033,-1.3563,-1.4213,-1.4815,-1.5468,-1.6056,-1.6524,-1.6931,-1.7211,2.4324,2.4464,2.4671,2.5356,2.5341,2.5234,2.5295,2.4965,2.4424,2.3654,2.2926,2.2278,2.1847,2.1797,2.1768,2.1634,2.1388,2.1055,2.0662,2.0254,1.994,1.9762,1.945,1.9339,1.9413,1.8629,1.794,1.7403,1.6079,1.4934,1.3941,1.3216,1.2872,1.2905,1.3578,1.4013,1.4338,1.4725,1.4881,1.4832,1.4732,1.4384,1.3905,1.3409,1.288,1.2304,1.1868,1.1519,1.1217,1.0871,1.082,1.0769,1.0265,0.9947,0.9673,0.9197,0.8732,0.8315,0.7895,0.7521,0.7192,0.6918,0.6707,0.649,0.6332,0.6064,0.5791,0.5563,0.4677,0.3779,0.308,0.2686,0.2277,0.1834,0.1459,0.1124,0.0912,0.0524,0.0279,0.0218,0.0,-0.0039,0.0113,-0.0035,-0.0033,0.0186,0.0338,0.0292,0.0,-0.0738,-0.1487,-0.2274,-0.315,-0.4042,-0.486,-0.5569,-0.6317,-0.7009,-0.7343,-0.7935,-0.8794,-0.9317,-1.0039,-1.0939,-1.1626,-1.2243,-1.2744,-1.3459,-1.4103,-1.4678,-1.5342,-1.5999,-1.6581,-1.6797,-1.7134,-1.7423,2.5213,2.5321,2.5546,2.6186,2.615,2.5994,2.5882,2.5549,2.5145,2.4706,2.3997,2.3172,2.2228,2.2112,2.1969,2.1636,2.1325,2.0958,2.0527,2.0166,1.9884,1.9726,1.9435,1.9339,1.9413,1.8804,1.839,1.8201,1.7258,1.6409,1.5598,1.4893,1.4455,1.4241,1.4448,1.4691,1.5001,1.5029,1.4996,1.4937,1.4616,1.4093,1.3515,1.2977,1.2393,1.1877,1.1477,1.1175,1.0871,1.0616,1.0462,1.03,0.9991,0.9621,0.9249,0.8784,0.8315,0.7895,0.7521,0.7198,0.6982,0.6707,0.649,0.6332,0.6173,0.5955,0.5567,0.5007,0.4067,0.3239,0.2633,0.2242,0.1835,0.1466,0.1082,0.0738,0.0441,0.0097,-0.0189,-0.0303,-0.0577,-0.0712,-0.0725,-0.0789,-0.0795,-0.0635,-0.0498,-0.0478,-0.058,-0.1236,-0.2069,-0.3028,-0.3739,-0.4638,-0.5638,-0.6318,-0.702,-0.7765,-0.809,-0.8719,-0.9653,-1.017,-1.1078,-1.2174,-1.2613,-1.2981,-1.3277,-1.3992,-1.4638,-1.5323,-1.5931,-1.6513,-1.7032,-1.719,-1.7357,-1.7634,2.6116,2.6092,2.6297,2.6887,2.689,2.6863,2.7137,2.6954,2.6387,2.533,2.5129,2.453,2.304,2.2891,2.2531,2.1685,2.1214,2.0845,2.0512,2.008,1.9762,1.969,1.9435,1.9339,1.9413,1.9213,1.8796,1.8201,1.8187,1.7733,1.6864,1.6181,1.5647,1.5286,1.5402,1.524,1.4844,1.5289,1.5153,1.4581,1.4326,1.3742,1.2967,1.2393,1.1909,1.1469,1.1074,1.0718,1.047,1.0102,0.9836,0.9614,0.9614,0.9249,0.8725,0.8321,0.7895,0.7461,0.7192,0.6982,0.682,0.649,0.6381,0.6327,0.6055,0.5782,0.5289,0.4073,0.335,0.2738,0.2294,0.1962,0.1629,0.1178,0.0897,0.0547,0.0051,-0.0302,-0.0587,-0.0858,-0.125,-0.1551,-0.1677,-0.1691,-0.1642,-0.1602,-0.1641,-0.1568,-0.131,-0.179,-0.2651,-0.3861,-0.4412,-0.5231,-0.6355,-0.7008,-0.7664,-0.8368,-0.8798,-0.9326,-0.9914,-1.1002,-1.2022,-1.2989,-1.3208,-1.3623,-1.4213,-1.4678,-1.5391,-1.6114,-1.6581,-1.7088,-1.7534,-1.7645,-1.7755,-1.7897,2.6886,2.6995,2.7175,2.778,2.7762,2.76,2.7241,2.6989,2.6607,2.6031,2.5909,2.5491,2.4514,2.3951,2.3489,2.308,2.2667,2.2274,2.1967,2.11,2.0563,2.0378,1.9812,1.9465,1.9413,1.9302,1.9089,1.8811,1.8766,1.8198,1.7143,1.651,1.6023,1.5654,1.5894,1.5714,1.5277,1.532,1.5028,1.443,1.4093,1.3467,1.2647,1.2166,1.1669,1.1175,1.0769,1.0352,0.9984,0.9673,0.9309,0.8883,0.856,0.8461,0.8415,0.7777,0.7408,0.7192,0.6923,0.6707,0.6495,0.6337,0.6168,0.6059,0.5782,0.5069,0.4298,0.3463,0.2852,0.2296,0.1964,0.1684,0.1347,0.101,0.0617,0.0221,-0.0105,-0.0512,-0.0882,-0.1131,-0.1552,-0.1908,-0.2087,-0.2356,-0.2472,-0.2434,-0.2697,-0.261,-0.2092,-0.2755,-0.3581,-0.4477,-0.5367,-0.6329,-0.7267,-0.7896,-0.8567,-0.9354,-0.9577,-1.0121,-1.0949,-1.1873,-1.2664,-1.3319,-1.3996,-1.4519,-1.4932,-1.5613,-1.6151,-1.6637,-1.7078,-1.7423,-1.7645,-1.7656,-1.792,-1.817,2.7737,2.7845,2.794,2.821,2.8119,2.7818,2.7213,2.6923,2.6624,2.6312,2.6239,2.6038,2.5574,2.5059,2.4479,2.3751,2.3329,2.2957,2.2623,2.1826,2.1296,2.1081,2.0578,2.0264,2.0165,1.9824,1.954,1.9411,1.8965,1.8293,1.7479,1.693,1.646,1.6061,1.617,1.5969,1.5558,1.53,1.4891,1.428,1.38,1.3142,1.2421,1.1868,1.1427,1.0972,1.0462,1.0043,0.9658,0.9302,0.8778,0.8249,0.7818,0.7777,0.7729,0.73,0.7079,0.6918,0.6652,0.644,0.6277,0.6173,0.6005,0.5727,0.5289,0.4463,0.3635,0.3077,0.2517,0.2017,0.1796,0.1459,0.1122,0.0785,0.0336,-0.0111,-0.0535,-0.0991,-0.1408,-0.1839,-0.229,-0.2674,-0.3031,-0.3237,-0.3388,-0.3509,-0.3681,-0.3743,-0.3592,-0.3894,-0.4575,-0.55,-0.6357,-0.7218,-0.8197,-0.8691,-0.9302,-0.9976,-1.03,-1.0949,-1.1797,-1.2624,-1.3322,-1.3939,-1.482,-1.541,-1.5758,-1.6379,-1.6842,-1.7145,-1.7523,-1.7755,-1.7986,-1.803,-1.8236,-1.856,2.8587,2.8587,2.851,2.8255,2.8045,2.7695,2.7085,2.6825,2.6572,2.6239,2.622,2.622,2.622,2.6079,2.5431,2.3964,2.349,2.3099,2.2764,2.2317,2.1991,2.1769,2.159,2.1495,2.1403,2.0651,2.0142,1.9846,1.881,1.8121,1.776,1.7365,1.6947,1.6479,1.6275,1.6025,1.5671,1.5244,1.4731,1.4129,1.3457,1.2842,1.2175,1.1578,1.1124,1.082,1.0205,0.9836,0.951,0.8956,0.8381,0.78,0.7441,0.7133,0.6921,0.689,0.6766,0.6647,0.6436,0.6277,0.6173,0.6005,0.5732,0.5289,0.457,0.3855,0.319,0.2747,0.2296,0.1905,0.1628,0.1291,0.0954,0.0449,0.0056,-0.0499,-0.1235,-0.1704,-0.2202,-0.2885,-0.3315,-0.3761,-0.426,-0.4218,-0.4367,-0.4751,-0.466,-0.4911,-0.5555,-0.5234,-0.5591,-0.6804,-0.7291,-0.8037,-0.9054,-0.9465,-0.988,-1.03,-1.1015,-1.1703,-1.2461,-1.3218,-1.401,-1.4792,-1.5786,-1.6343,-1.6684,-1.7078,-1.7412,-1.7711,-1.7854,-1.8139,-1.8422,-1.856,-1.8827,-1.9093,2.8587,2.8587,2.8536,2.8327,2.8073,2.7725,2.7149,2.6858,2.6572,2.6239,2.622,2.622,2.622,2.6079,2.5806,2.5265,2.4863,2.4444,2.4098,2.3243,2.2672,2.2484,2.1964,2.1575,2.1388,2.1105,2.0445,1.9457,1.8531,1.7882,1.7474,1.7128,1.6778,1.6479,1.6275,1.6025,1.5671,1.5142,1.4547,1.3858,1.3266,1.2638,1.1977,1.1569,1.1226,1.082,1.0368,0.9844,0.9239,0.8875,0.8238,0.7611,0.7386,0.7163,0.6987,0.6648,0.6495,0.6436,0.6164,0.6059,0.595,0.5572,0.4908,0.4242,0.3744,0.319,0.2631,0.224,0.1905,0.157,0.129,0.1066,0.0785,0.0168,-0.028,-0.0894,-0.1717,-0.2268,-0.2801,-0.3352,-0.3824,-0.426,-0.4569,-0.4861,-0.5104,-0.5305,-0.5545,-0.6007,-0.6633,-0.7028,-0.7344,-0.7577,-0.8352,-0.9068,-0.9762,-1.0087,-1.0608,-1.1217,-1.1578,-1.2013,-1.2572,-1.3779,-1.4606,-1.5163,-1.638,-1.7078,-1.7301,-1.7634,-1.7799,-1.7854,-1.803,-1.8247,-1.856,-1.8827,-1.9186,-1.9643,2.8587,2.8587,2.8536,2.8327,2.8073,2.7725,2.7213,2.6891,2.6607,2.6293,2.6239,2.6168,2.6115,2.6007,2.5807,2.553,2.5208,2.4855,2.4539,2.3814,2.3311,2.3101,2.2757,2.2494,2.2258,2.1894,2.0995,1.9684,1.8874,1.8372,1.8083,1.7733,1.734,1.6911,1.6658,1.639,1.6061,1.5394,1.4906,1.4489,1.3781,1.3122,1.2522,1.2158,1.1728,1.1366,1.0832,1.023,0.9542,0.9034,0.8344,0.7628,0.7398,0.7141,0.6923,0.6635,0.6563,0.6426,0.6225,0.5974,0.5669,0.4986,0.4298,0.3685,0.3297,0.2685,0.2184,0.1962,0.1682,0.1347,0.1066,0.0842,0.0449,-0.0224,-0.0784,-0.1455,-0.2348,-0.2914,-0.3528,-0.4227,-0.4583,-0.49,-0.5323,-0.5573,-0.5873,-0.6191,-0.6493,-0.6956,-0.7616,-0.8229,-0.853,-0.8537,-0.9313,-0.9925,-1.0344,-1.0659,-1.1175,-1.1778,-1.2076,-1.2501,-1.3113,-1.4501,-1.5289,-1.5642,-1.6928,-1.7579,-1.7689,-1.7909,-1.7963,-1.8018,-1.8247,-1.8506,-1.8827,-1.9239,-1.9695,-2.0207,2.8612,2.8612,2.8536,2.8353,2.8101,2.7771,2.7289,2.6923,2.6624,2.6365,2.6258,2.6168,2.6026,2.586,2.5654,2.5333,2.5013,2.4735,2.4441,2.4051,2.3739,2.3595,2.3595,2.348,2.326,2.244,2.1413,2.0136,1.9431,1.897,1.8819,1.8508,1.8092,1.7501,1.7214,1.6983,1.6645,1.5861,1.546,1.5289,1.445,1.3765,1.3241,1.2784,1.2334,1.1888,1.1269,1.0644,0.9904,0.9252,0.8498,0.7735,0.7466,0.7179,0.6885,0.6885,0.6759,0.6583,0.6361,0.5868,0.5232,0.4307,0.3755,0.335,0.285,0.235,0.1905,0.174,0.1459,0.1178,0.0898,0.0561,0.0056,-0.0673,-0.1287,-0.2068,-0.3074,-0.363,-0.4239,-0.5069,-0.5352,-0.5681,-0.6228,-0.6327,-0.6588,-0.7139,-0.7348,-0.7777,-0.8474,-0.9086,-0.9444,-0.9666,-1.0226,-1.0643,-1.0871,-1.1226,-1.1669,-1.2175,-1.251,-1.3035,-1.3736,-1.5167,-1.5906,-1.6114,-1.7359,-1.7897,-1.7963,-1.8084,-1.8139,-1.8193,-1.8506,-1.8827,-1.9198,-1.9695,-2.0258,-2.0709,2.8669,2.8637,2.8562,2.8406,2.8219,2.7893,2.7365,2.7004,2.6691,2.6417,2.6274,2.6168,2.6168,2.584,2.5524,2.524,2.4806,2.4441,2.4162,2.3909,2.3739,2.3595,2.3595,2.3465,2.3127,2.1926,2.09,2.0174,1.9331,1.8773,1.8474,1.8286,1.8154,1.8078,1.7782,1.7484,1.7074,1.6375,1.5676,1.4997,1.4344,1.3711,1.3068,1.2729,1.2214,1.1656,1.1197,1.0465,0.9648,0.9348,0.8632,0.7819,0.7884,0.7688,0.7366,0.7177,0.6983,0.6775,0.6233,0.5428,0.4503,0.3785,0.3197,0.2689,0.2132,0.1796,0.1572,0.129,0.1066,0.0842,0.0561,0.0168,-0.0336,-0.1063,-0.1734,-0.2462,-0.3519,-0.4187,-0.4798,-0.5458,-0.5845,-0.6228,-0.6598,-0.6815,-0.7085,-0.7408,-0.7943,-0.8474,-0.9054,-0.9806,-1.0431,-1.0812,-1.0964,-1.1167,-1.1528,-1.1728,-1.2067,-1.251,-1.2939,-1.3457,-1.4161,-1.5565,-1.6261,-1.6407,-1.7585,-1.8084,-1.8084,-1.8247,-1.841,-1.856,-1.8827,-1.9251,-1.9747,-2.0258,-2.0759,-2.118,2.8761,2.8737,2.8662,2.8484,2.83,2.7979,2.7491,2.7149,2.6842,2.6504,2.6293,2.6168,2.6096,2.56,2.5201,2.4989,2.4549,2.4177,2.3952,2.3782,2.3653,2.3595,2.3566,2.3304,2.2723,2.1843,2.1158,2.0633,2.0031,1.961,1.9366,1.9231,1.8981,1.8595,1.829,1.792,1.752,1.6683,1.6116,1.5776,1.4946,1.4213,1.3651,1.3171,1.2589,1.1941,1.1458,1.0685,0.9923,0.9544,0.8771,0.8032,0.8016,0.7787,0.7461,0.7138,0.6742,0.6237,0.5693,0.4854,0.3954,0.3358,0.2789,0.2291,0.186,0.1572,0.129,0.1066,0.0785,0.0505,0.0168,-0.028,-0.0841,-0.1679,-0.2293,-0.3074,-0.4132,-0.4739,-0.5234,-0.5845,-0.6223,-0.6598,-0.6869,-0.7241,-0.7616,-0.8049,-0.8626,-0.9204,-0.9829,-1.0438,-1.1006,-1.1418,-1.1427,-1.1628,-1.2026,-1.2175,-1.251,-1.3035,-1.3505,-1.4025,-1.4616,-1.5663,-1.6348,-1.6758,-1.756,-1.8154,-1.8476,-1.8583,-1.8732,-1.8975,-1.9291,-1.9695,-2.0207,-2.0723,-2.1166,-2.1568,2.881,2.881,2.8737,2.8562,2.8362,2.8119,2.763,2.731,2.6973,2.6624,2.6347,2.6132,2.5987,2.5432,2.4989,2.4815,2.441,2.4036,2.3839,2.3696,2.3595,2.3595,2.3407,2.3008,2.237,2.1793,2.1326,2.0885,2.0649,2.0398,2.0131,2.0042,1.9712,1.9108,1.8731,1.8322,1.7897,1.6924,1.6501,1.64,1.5371,1.4675,1.407,1.3459,1.2728,1.205,1.149,1.08,1.004,0.9524,0.8818,0.8107,0.7982,0.7722,0.733,0.6942,0.6189,0.5442,0.5054,0.4319,0.3579,0.2994,0.2423,0.1983,0.1696,0.1347,0.101,0.0842,0.0505,0.0112,-0.0336,-0.084,-0.1456,-0.2352,-0.2963,-0.3685,-0.4684,-0.5175,-0.5668,-0.6282,-0.6603,-0.6918,-0.7246,-0.7622,-0.8096,-0.8679,-0.9249,-0.9829,-1.0454,-1.1015,-1.1477,-1.1927,-1.1877,-1.2076,-1.2421,-1.2618,-1.2997,-1.36,-1.4071,-1.4536,-1.5028,-1.5718,-1.6419,-1.7044,-1.7623,-1.8246,-1.8851,-1.8958,-1.9146,-1.9436,-1.9837,-2.0258,-2.0673,-2.1166,-2.1568,-2.1841,2.8905,2.8834,2.8761,2.8612,2.8528,2.8327,2.784,2.7444,2.7053,2.6725,2.6382,2.6132,2.5934,2.5584,2.5169,2.4759,2.4451,2.4177,2.3982,2.3739,2.3595,2.3595,2.3054,2.2572,2.2231,2.1568,2.1019,2.061,2.0549,2.036,1.999,1.999,1.9862,1.9554,1.9137,1.865,1.8035,1.728,1.6641,1.6056,1.5323,1.4616,1.395,1.3164,1.2297,1.1483,1.08,1.0161,0.946,0.9022,0.8506,0.7987,0.7792,0.7466,0.7138,0.6613,0.5477,0.4406,0.4339,0.3931,0.3251,0.2539,0.2104,0.1808,0.1243,0.101,0.0842,0.0505,0.0112,-0.0336,-0.0951,-0.1511,-0.2238,-0.3135,-0.3741,-0.4398,-0.5167,-0.5668,-0.6164,-0.6771,-0.6982,-0.7246,-0.7794,-0.8062,-0.8427,-0.9106,-0.9666,-1.0226,-1.082,-1.1477,-1.2076,-1.2627,-1.2529,-1.252,-1.2754,-1.3132,-1.361,-1.4129,-1.4479,-1.4858,-1.5278,-1.5916,-1.6478,-1.7044,-1.7686,-1.8362,-1.8987,-1.9408,-1.9708,-1.9991,-2.0497,-2.0921,-2.118,-2.1602,-2.1841,-2.1996,2.8975,2.8929,2.8881,2.8737,2.8619,2.844,2.7982,2.7487,2.7085,2.6758,2.6607,2.6382,2.6007,2.5589,2.5153,2.4695,2.4369,2.4036,2.3782,2.3653,2.3508,2.3304,2.2934,2.2434,2.1841,2.1423,2.1033,2.0636,2.0649,2.0448,2.0131,2.0042,1.9836,1.946,1.8987,1.8441,1.7941,1.7123,1.6446,1.5874,1.4893,1.4121,1.345,1.2544,1.1615,1.08,1.0238,0.9664,0.9017,0.8705,0.8252,0.7792,0.7657,0.7335,0.6811,0.5745,0.4619,0.3687,0.3218,0.293,0.2692,0.2299,0.186,0.1444,0.1224,0.0968,0.0673,0.0224,-0.028,-0.0841,-0.1511,-0.2237,-0.2961,-0.3738,-0.4405,-0.5011,-0.5668,-0.6218,-0.6657,-0.6982,-0.7359,-0.7735,-0.8062,-0.8533,-0.9047,-0.9666,-1.0336,-1.0956,-1.1619,-1.2255,-1.2735,-1.3142,-1.3238,-1.3286,-1.3286,-1.3705,-1.4118,-1.4628,-1.4994,-1.5334,-1.5549,-1.5894,-1.6536,-1.7412,-1.7824,-1.8609,-1.9617,-1.9965,-2.0321,-2.0673,-2.1019,-2.1361,-2.1616,-2.1841,-2.1996,-2.2137,2.9062,2.904,2.8994,2.8858,2.8767,2.8576,2.8138,2.7582,2.7135,2.6875,2.6758,2.6538,2.6115,2.5701,2.523,2.4751,2.4426,2.4078,2.3739,2.361,2.3436,2.3127,2.2754,2.2296,2.1602,2.1277,2.0997,2.0699,2.0699,2.0549,2.0182,2.0042,1.9733,1.9263,1.8709,1.817,1.7623,1.6797,1.6171,1.5642,1.4597,1.3761,1.3017,1.2042,1.1115,1.0364,0.9856,0.9285,0.877,0.8382,0.7927,0.7531,0.733,0.6802,0.6013,0.4885,0.3885,0.3019,0.2484,0.2216,0.2002,0.1882,0.1589,0.1242,0.1084,0.0758,0.0342,-0.0114,-0.079,-0.1456,-0.2183,-0.2961,-0.3683,-0.4453,-0.5011,-0.5618,-0.6223,-0.6657,-0.7036,-0.7306,-0.7735,-0.8115,-0.848,-0.9054,-0.9673,-1.0285,-1.0956,-1.1669,-1.2461,-1.2929,-1.3362,-1.3705,-1.3952,-1.4046,-1.4082,-1.4305,-1.4628,-1.5085,-1.5424,-1.5659,-1.5792,-1.5957,-1.6663,-1.7821,-1.8072,-1.8989,-2.0283,-2.0523,-2.0871,-2.1229,-2.1471,-2.1712,-2.1888,-2.1996,-2.2137,-2.2184,2.913,2.9089,2.9044,2.8929,2.8952,2.881,2.8282,2.7677,2.725,2.7105,2.6875,2.6556,2.6241,2.5885,2.5513,2.5045,2.4701,2.4374,2.4024,2.3683,2.3363,2.3127,2.2632,2.2137,2.1616,2.1229,2.0898,2.0699,2.0699,2.0549,2.0182,2.0042,1.9617,1.8987,1.8375,1.7776,1.7134,1.64,1.5816,1.5294,1.4359,1.3511,1.2704,1.167,1.087,1.0238,0.953,0.9087,0.8705,0.7927,0.7466,0.7134,0.6806,0.5811,0.4683,0.4159,0.3222,0.2351,0.222,0.1749,0.1269,0.1298,0.1288,0.1215,0.0808,0.0362,-0.0118,-0.0589,-0.1376,-0.2238,-0.2963,-0.3738,-0.4453,-0.5167,-0.5723,-0.6218,-0.6825,-0.7036,-0.73,-0.7848,-0.8062,-0.848,-0.9159,-0.9562,-1.0182,-1.1015,-1.1628,-1.2353,-1.3372,-1.3515,-1.3847,-1.4384,-1.4523,-1.4754,-1.5108,-1.496,-1.5096,-1.5513,-1.5614,-1.5792,-1.6001,-1.6144,-1.6958,-1.8201,-1.8495,-1.9422,-2.0858,-2.1068,-2.1375,-2.1616,-2.1902,-2.1996,-2.2044,-2.2137,-2.2184,-2.2184,2.9178,2.9134,2.9108,2.9044,2.8887,2.8676,2.8317,2.7748,2.731,2.7198,2.699,2.6691,2.6295,2.601,2.5567,2.491,2.4645,2.4317,2.3882,2.3538,2.3216,2.2844,2.254,2.2091,2.1471,2.118,2.0898,2.0699,2.0699,2.0549,2.0182,1.9978,1.9512,1.8851,1.8344,1.7733,1.7011,1.6457,1.5884,1.5177,1.4112,1.307,1.2143,1.1101,1.0288,0.9652,0.9268,0.8759,0.8301,0.7722,0.7265,0.6675,0.5675,0.4752,0.3956,0.3288,0.2688,0.2151,0.1681,0.1345,0.1208,0.1264,0.1113,0.0902,0.0639,0.0062,-0.0608,-0.1337,-0.2133,-0.2952,-0.3754,-0.4416,-0.5011,-0.5555,-0.61,-0.6598,-0.6977,-0.7413,-0.7788,-0.8062,-0.8586,-0.9099,-0.9562,-1.0285,-1.0964,-1.1619,-1.255,-1.3372,-1.3941,-1.4233,-1.4547,-1.4994,-1.5142,-1.5379,-1.5724,-1.5457,-1.5424,-1.5614,-1.5824,-1.6032,-1.6238,-1.6522,-1.7478,-1.8852,-1.9106,-2.0034,-2.1361,-2.1554,-2.1698,-2.1902,-2.2091,-2.2137,-2.2137,-2.2184,-2.2184,-2.2184,2.9267,2.92,2.9175,2.9108,2.8887,2.8626,2.837,2.7847,2.7434,2.7293,2.7087,2.6775,2.633,2.601,2.5567,2.495,2.4564,2.425,2.3882,2.3538,2.3127,2.2694,2.2597,2.2152,2.1326,2.1095,2.0861,2.0699,2.0699,2.0549,2.0182,1.9914,1.9396,1.8679,1.8182,1.7567,1.6909,1.6296,1.5652,1.4883,1.3743,1.2765,1.1779,1.0793,1.0104,0.9652,0.9145,0.8624,0.8102,0.7451,0.6666,0.5679,0.4616,0.3887,0.3288,0.2753,0.2218,0.1749,0.1344,0.1076,0.0942,0.0942,0.0732,0.0526,0.0262,-0.0385,-0.1191,-0.1943,-0.281,-0.3687,-0.4287,-0.4951,-0.5485,-0.5896,-0.6485,-0.6977,-0.7295,-0.7836,-0.8268,-0.8586,-0.9152,-0.9718,-1.0285,-1.0956,-1.1719,-1.2501,-1.342,-1.4082,-1.4455,-1.4834,-1.5153,-1.5501,-1.5635,-1.5824,-1.6088,-1.5913,-1.5869,-1.5893,-1.6088,-1.6337,-1.6552,-1.7166,-1.8166,-1.9467,-1.9859,-2.0694,-2.1841,-2.1841,-2.1949,-2.2091,-2.2184,-2.2184,-2.2184,-2.2184,-2.2184,-2.2184,2.9353,2.9289,2.9262,2.9112,2.8887,2.8651,2.8422,2.7933,2.7557,2.7434,2.7169,2.6842,2.6365,2.5957,2.5546,2.514,2.4637,2.4349,2.4207,2.3717,2.3303,2.2867,2.279,2.2305,2.1354,2.1133,2.0957,2.0777,2.0777,2.0601,2.0182,1.9914,1.9344,1.856,1.7952,1.7346,1.6761,1.6019,1.5313,1.4588,1.3433,1.2528,1.1677,1.0681,1.0174,0.9919,0.921,0.8624,0.8037,0.7055,0.5745,0.4425,0.362,0.3086,0.2619,0.235,0.1813,0.1277,0.1143,0.0875,0.0674,0.0337,0.0202,0.0067,-0.0269,-0.0988,-0.181,-0.2582,-0.3525,-0.4397,-0.4752,-0.542,-0.598,-0.622,-0.6781,-0.7322,-0.7729,-0.8309,-0.8837,-0.9204,-0.9769,-1.0379,-1.1116,-1.1719,-1.251,-1.361,-1.414,-1.4593,-1.4949,-1.5322,-1.5647,-1.5836,-1.5957,-1.6088,-1.6231,-1.6362,-1.6362,-1.6244,-1.6436,-1.6718,-1.705,-1.7985,-1.896,-2.0064,-2.0598,-2.1361,-2.2231,-2.2091,-2.2091,-2.2184,-2.2184,-2.2184,-2.2184,-2.2184,-2.2184,-2.2184,2.9414,2.9332,2.927,2.92,2.8952,2.8694,2.844,2.8045,2.7689,2.7496,2.7169,2.6775,2.6435,2.5994,2.574,2.5781,2.5886,2.5845,2.5591,2.5058,2.4542,2.4061,2.3543,2.3008,2.2431,2.2287,2.1957,2.1328,2.1328,2.0926,2.0182,1.9811,1.9291,1.856,1.7975,1.7368,1.6751,1.6114,1.541,1.4588,1.3312,1.2343,1.1483,1.0428,0.9989,0.9798,0.9215,0.8624,0.7907,0.6071,0.4818,0.3823,0.2952,0.2485,0.222,0.168,0.1344,0.1076,0.0943,0.0539,0.0135,-0.0135,-0.0538,-0.0942,-0.0941,-0.1738,-0.2661,-0.3517,-0.4344,-0.507,-0.5662,-0.6159,-0.6533,-0.6781,-0.7415,-0.7952,-0.824,-0.8837,-0.9354,-0.9762,-1.0438,-1.1116,-1.1669,-1.2647,-1.3515,-1.4186,-1.4593,-1.4994,-1.5412,-1.5647,-1.5925,-1.6275,-1.6306,-1.6405,-1.659,-1.6705,-1.6663,-1.6436,-1.6752,-1.7323,-1.8067,-1.8655,-1.9695,-2.103,-2.1243,-2.1727,-2.237,-2.2231,-2.2184,-2.2184,-2.2184,-2.2184,-2.2184,-2.2184,-2.2184,-2.2231,2.9531,2.9412,2.933,2.9262,2.9044,2.8791,2.8525,2.8138,2.78,2.7587,2.7526,2.7352,2.6954,2.6801,2.6582,2.6282,2.6311,2.6214,2.594,2.5411,2.4869,2.4326,2.3996,2.3688,2.3339,2.3387,2.2944,2.1943,2.1823,2.1495,2.0934,2.0453,1.9909,1.92,1.8566,1.7933,1.729,1.6507,1.5651,1.4781,1.3529,1.258,1.1747,1.0771,1.0233,0.9925,0.9331,0.826,0.6854,0.5143,0.4087,0.3291,0.2418,0.2017,0.1817,0.1412,0.1144,0.0876,0.0607,0.0202,-0.0269,-0.0672,-0.1277,-0.1748,-0.1746,-0.2484,-0.342,-0.4215,-0.5022,-0.5728,-0.616,-0.6626,-0.7099,-0.7465,-0.8017,-0.8564,-0.8971,-0.9513,-1.0035,-1.049,-1.1158,-1.1868,-1.2647,-1.3467,-1.4186,-1.4593,-1.5006,-1.5367,-1.5691,-1.5957,-1.6175,-1.6392,-1.6491,-1.662,-1.6803,-1.7303,-1.7561,-1.7492,-1.7663,-1.8118,-1.8779,-1.9709,-2.0639,-2.1464,-2.1775,-2.2087,-2.237,-2.2324,-2.2324,-2.2324,-2.237,-2.237,-2.2324,-2.237,-2.2402,-2.2495,2.9645,2.9492,2.9392,2.9304,2.9134,2.8934,2.8651,2.838,2.8127,2.787,2.8157,2.822,2.776,2.781,2.7528,2.6785,2.6641,2.6505,2.6148,2.556,2.5005,2.4487,2.4484,2.4327,2.4052,2.4226,2.3734,2.2544,2.2312,2.2027,2.1579,2.1131,2.0517,1.9842,1.9097,1.8484,1.7822,1.6825,1.5918,1.4997,1.376,1.2841,1.2112,1.1224,1.0672,1.0135,0.9462,0.7764,0.5684,0.4408,0.3535,0.2863,0.2115,0.1768,0.1558,0.1287,0.1014,0.0674,0.027,-0.0135,-0.0605,-0.1277,-0.1883,-0.2421,-0.2684,-0.3353,-0.409,-0.4752,-0.5547,-0.6233,-0.6544,-0.7143,-0.7747,-0.8235,-0.8774,-0.9359,-0.993,-1.044,-1.0916,-1.1319,-1.1954,-1.2706,-1.3668,-1.4186,-1.464,-1.4994,-1.5412,-1.5724,-1.5881,-1.6219,-1.6405,-1.6448,-1.6633,-1.6803,-1.696,-1.7889,-1.8468,-1.8723,-1.8969,-1.9207,-1.9531,-2.0793,-2.1506,-2.1768,-2.2204,-2.2417,-2.2417,-2.2417,-2.2463,-2.2463,-2.2555,-2.2555,-2.2463,-2.2555,-2.2678,-2.2799,2.9644,2.9532,2.9451,2.9304,2.9175,2.8998,2.8718,2.8945,2.9029,2.8767,2.8935,2.8915,2.8498,2.8282,2.7965,2.7562,2.7797,2.7765,2.7355,2.6667,2.6107,2.5694,2.5273,2.4939,2.4657,2.4567,2.4059,2.3106,2.2837,2.2185,2.1244,2.0665,2.01,1.9606,1.8808,1.8262,1.7822,1.6825,1.5918,1.4997,1.376,1.2841,1.2112,1.1224,1.0723,1.041,0.9505,0.7719,0.558,0.4375,0.3524,0.2812,0.1948,0.1705,0.1603,0.1114,0.0755,0.0404,-0.0067,-0.0605,-0.1143,-0.1884,-0.2555,-0.3293,-0.4092,-0.4425,-0.4625,-0.5226,-0.5888,-0.6539,-0.7228,-0.7931,-0.8551,-0.9114,-0.9947,-1.0667,-1.1084,-1.1781,-1.2286,-1.2471,-1.3017,-1.361,-1.4233,-1.464,-1.4994,-1.5457,-1.5691,-1.5913,-1.6306,-1.6349,-1.6491,-1.6633,-1.6803,-1.7015,-1.7321,-1.8145,-1.8779,-1.9225,-2.0368,-2.096,-2.1018,-2.1364,-2.1837,-2.2303,-2.2388,-2.2417,-2.2417,-2.2509,-2.2601,-2.2663,-2.2663,-2.2632,-2.2555,-2.2615,-2.2783,-2.3083,2.9753,2.9626,2.966,3.0023,2.9968,2.9941,3.0174,3.0232,3.0109,2.9743,2.9932,2.9862,2.9269,2.9046,2.877,2.8373,2.8259,2.7989,2.7539,2.6788,2.619,2.5784,2.5397,2.5118,2.4892,2.4607,2.4116,2.3393,2.3114,2.2518,2.1666,2.1127,2.0653,2.0121,1.9484,1.8924,1.8335,1.7356,1.634,1.524,1.4156,1.3256,1.2487,1.1631,1.1035,1.032,0.8392,0.6643,0.5072,0.3991,0.3272,0.2622,0.1896,0.1664,0.1572,0.1056,0.0625,0.0275,-0.0405,-0.1076,-0.1748,-0.2555,-0.3291,-0.4023,-0.4827,-0.5359,-0.5686,-0.6086,-0.6609,-0.7195,-0.7907,-0.8619,-0.9348,-1.0181,-1.0877,-1.1552,-1.2044,-1.2526,-1.3086,-1.3815,-1.4223,-1.4633,-1.5074,-1.5177,-1.5367,-1.5647,-1.5824,-1.6001,-1.6275,-1.6362,-1.6534,-1.6791,-1.696,-1.7253,-1.757,-1.8521,-1.9128,-1.9362,-2.0458,-2.1153,-2.1597,-2.1998,-2.2298,-2.2509,-2.2417,-2.2417,-2.2417,-2.2586,-2.2709,-2.2844,-2.2904,-2.2933,-2.2888,-2.2873,-2.3083,-2.3436]},{"header":{"parameterUnit":"m.s-1","parameterCategory":1,"la1":30.6,"la2":28.766,"lo1":-90.7593,"lo2":-88.6598,"dy":0.0162,"dx":0.0183,"nx":116,"ny":114,"refTime":"2024-06-30T00:00:00:Z","depth":0,"parameterNumber":3,"parameterNumberName":"V-component_of_WINDS"},"data":[0.0,0.0,0.0,0.0,0.0,0.0,0.0,0.0,0.0,0.0,0.0,0.0,0.0,0.0,0.0,0.0,0.0,0.0,0.0,0.0,0.0,0.0,0.0,0.0,0.0,0.0,0.0,0.0,0.0,0.0,0.0,0.0,0.0,0.0,0.0,0.0,0.0,0.0,0.0,0.0,0.0,0.0,0.0,0.0,0.0,0.0,0.0,0.0,0.0,0.0,0.0,0.0,0.0,0.0,0.0,0.0,0.0,0.0,0.0,0.0,0.0,0.0,0.0,0.0,0.0,0.0,0.0,0.0,0.0,0.0,0.0,0.0,0.0,0.0,0.0,0.0,0.0,0.0,0.0,0.0,0.0,0.0,0.0,0.0,0.0,0.0,0.0,0.0,0.0,0.0,0.0,0.0,0.0,0.0,0.0,0.0,0.0,0.0,0.0,0.0,0.0,0.0,0.0,0.0,0.0,0.0,0.0,0.0,0.0,0.0,0.0,0.0,0.0,0.0,0.0,0.0,0.0,0.0,0.0,0.0,0.0,0.0,0.0,0.0,0.0,0.0,0.0,0.0,0.0,0.0,0.0,0.0,0.0,0.0,0.0,0.0,0.0,0.0,0.0,0.0,0.0,0.0,0.0,0.0,0.0,0.0,0.0,0.0,0.0,0.0,0.0,0.0,0.0,0.0,0.0,0.0,0.0,0.0,0.0,0.0,0.0,0.0,0.0,0.0,0.0,0.0,0.0,0.0,0.0,0.0,0.0,0.0,0.0,0.0,0.0,0.0,0.0,0.0,0.0,0.0,0.0,0.0,0.0,0.0,0.0,0.0,0.0,0.0,0.0,0.0,0.0,0.0,0.0,0.0,0.0,0.0,0.0,0.0,0.0,0.0,0.0,0.0,0.0,0.0,0.0,0.0,0.0,0.0,0.0,0.0,0.0,0.0,0.0,0.0,0.0,0.0,0.0,0.0,0.0,0.0,0.0,0.0,0.0,0.0,0.0,0.0,0.0,0.0,0.0,0.0,0.0,0.0,0.0,0.0,0.0,0.0,0.0,0.0,0.0,0.0,0.0,0.0,0.0,0.0,0.0,0.0,0.0,0.0,0.0,0.0,0.0,0.0,0.0,0.0,0.0,0.0,0.0,0.0,0.0,0.0,0.0,0.0,0.0,0.0,0.0,0.0,0.0,0.0,0.0,0.0,0.0,0.0,0.0,0.0,0.0,0.0,0.0,0.0,0.0,0.0,0.0,0.0,0.0,0.0,0.0,0.0,0.0,0.0,0.0,0.0,0.0,0.0,0.0,0.0,0.0,0.0,0.0,0.0,0.0,0.0,0.0,0.0,0.0,0.0,0.0,0.0,0.0,0.0,0.0,0.0,0.0,0.0,0.0,0.0,0.0,0.0,0.0,0.0,0.0,0.0,0.0,0.0,0.0,0.0,0.0,0.0,0.0,0.0,0.0,0.0,0.0,0.0,0.0,0.0,0.0,0.0,0.0,0.0,0.0,0.0,0.0,0.0,0.0,0.0,0.0,0.0,0.0,0.0,0.0,0.0,0.0,0.0,0.0,0.0,0.0,0.0,0.0,0.0,0.0,0.0,0.0,0.0,0.0,0.0,0.0,0.0,0.0,0.0,0.0,0.0,0.0,0.0,0.0,0.0,0.0,0.0,0.0,0.0,0.0,0.0,0.0,0.0,0.0,0.0,0.0,0.0,0.0,0.0,0.0,0.0,0.0,0.0,0.0,0.0,0.0,0.0,0.0,0.0,0.0,0.0,0.0,0.0,0.0,0.0,0.0,0.0,0.0,0.0,0.0,0.0,0.0,0.0,0.0,0.0,0.0,0.0,0.0,0.0,0.0,0.0,0.0,0.0,0.0,0.0,0.0,0.0,0.0,0.0,0.0,0.0,0.0,0.0,0.0,0.0,0.0,0.0,0.0,0.0,0.0,0.0,0.0,0.0,0.0,0.0,0.0,0.0,0.0,0.0,0.0,0.0,0.0,0.0,0.0,0.0,0.0,0.0,0.0,0.0,0.0,0.0,0.0,0.0,0.0,0.0,0.0,0.0,0.0,0.0,0.0,0.0,0.0,0.0,0.0,0.0,0.0,0.0,0.0,0.0,0.0,0.0,0.0,0.0,0.0,0.0,0.0,0.0,0.0,0.0,0.0,0.0,0.0,0.0,0.0,0.0,0.0,0.0,0.0,0.0,0.0,0.0,0.0,0.0,0.0,0.0,0.0,0.0,0.0,0.0,0.0,0.0,0.0,0.0,0.0,0.0,0.0,0.0,0.0,0.0,0.0,0.0,0.0,0.0,0.0,0.0,0.0,0.0,0.0,0.0,0.0,0.0,0.0,0.0,0.0,0.0,0.0,0.0,0.0,0.0,0.0,0.0,0.0,0.0,0.0,0.0,0.0,0.0,0.0,0.0,0.0,0.0,0.0,0.0,0.0,0.0,0.0,0.0,0.0,0.0,0.0,0.0,0.0,0.0,0.0,0.0,0.0,0.0,0.0,0.0,0.0,0.0,0.0,0.0,0.0,0.0,0.0,0.0,0.0,0.0,0.0,0.0,0.0,0.0,0.0,0.0,0.0,0.0,0.0,0.0,0.0,0.0,0.0,0.0,0.0,0.0,0.0,0.0,0.0,0.0,0.0,0.0,0.0,0.0,0.0,0.0,0.0,0.0,0.0,0.0,0.0,0.0,0.0,0.0,0.0,0.0,0.0,0.0,0.0,0.0,0.0,0.0,0.0,0.0,0.0,0.0,0.0,0.0,0.0,0.0,0.0,0.0,0.0,0.0,0.0,0.0,0.0,0.0,0.0,0.0,0.0,0.0,0.0,0.0,0.0,0.0,0.0,0.0,0.0,0.0,0.0,0.0,0.0,0.0,0.0,0.0,0.0,0.0,0.0,0.0,0.0,0.0,0.0,0.0,0.0,0.0,0.0,0.0,0.0,0.0,0.0,0.0,0.0,0.0,0.0,0.0,0.0,0.0,0.0,0.0,0.0,0.0,0.0,0.0,0.0,0.0,0.0,0.0,0.0,0.0,0.0,0.0,0.0,0.0,0.0,0.0,0.0,0.0,0.0,0.0,0.0,0.0,0.0,0.0,0.0,0.0,0.0,0.0,0.0,0.0,0.0,0.0,0.0,0.0,0.0,0.0,0.0,0.0,0.0,0.0,0.0,0.0,0.0,0.0,0.0,0.0,0.0,0.0,0.0,0.0,0.0,0.0,0.0,0.0,0.0,0.0,0.0,0.0,0.0,0.0,0.0,0.0,0.0,0.0,0.0,0.0,0.0,0.0,0.0,0.0,0.0,0.0,0.0,0.0,0.0,0.0,0.0,0.0,0.0,0.0,0.0,0.0,0.0,0.0,0.0,0.0,0.0,0.0,0.0,0.0,0.0,0.0,0.0,0.0,0.0,0.0,0.0,0.0,0.0,0.0,0.0,0.0,0.0,0.0,0.0,0.0,0.0,0.0,0.0,0.0,0.0,0.0,0.0,0.0,0.0,0.0,0.0,0.0,0.0,0.0,0.0,0.0,0.0,0.0,0.0,0.0,0.0,0.0,0.0,0.0,0.0,0.0,0.0,0.0,0.0,0.0,0.0,0.0,0.0,0.0,0.0,0.0,0.0,0.0,0.0,0.0,0.0,0.0,0.0,0.0,0.0,0.0,0.0,0.0,0.0,0.0,0.0,0.0,0.0,0.0,0.0,0.0,0.0,0.0,0.0,0.0,0.0,0.0,0.0,0.0,0.0,0.0,0.0,0.0,0.0,0.0,0.0,0.0,0.0,0.0,0.0,0.0,0.0,0.0,0.0,0.0,0.0,0.0,0.0,0.0,0.0,0.0,0.0,0.0,0.0,0.0,0.0,0.0,0.0,0.0,0.0,0.0,0.0,0.0,0.0,0.0,0.0,0.0,0.0,0.0,0.0,0.0,0.0,0.0,0.0,0.0,0.0,0.0,0.0,0.0,0.0,0.0,0.0,0.0,0.0,0.0,0.0,0.0,0.0,0.0,0.0,0.0,0.0,0.0,0.0,0.0,0.0,0.0,0.0,0.0,0.0,0.0,0.0,0.0,0.0,0.0,0.0,0.0,0.0,0.0,0.0,0.0,0.0,0.0,0.0,0.0,0.0,0.0,0.0,0.0,0.0,0.0,0.0,0.0,0.0,0.0,0.0,0.0,0.0,0.0,0.0,0.0,0.0,0.0,0.0,0.0,0.0,0.0,0.0,0.0,0.0,0.0,0.0,0.0,0.0,0.0,0.0,0.0,0.0,0.0,0.0,0.0,0.0,0.0,0.0,0.0,0.0,0.0,0.0,0.0,0.0,0.0,0.0,0.0,0.0,0.0,0.0,0.0,0.0,0.0,0.0,0.0,0.0,0.0,0.0,0.0,0.0,0.0,0.0,0.0,0.0,0.0,0.0,0.0,0.0,0.0,0.0,0.0,0.0,0.0,0.0,0.0,0.0,0.0,0.0,0.0,0.0,0.0,0.0,0.0,0.0,0.0,0.0,0.0,0.0,0.0,0.0,0.0,0.0,0.0,0.0,0.0,0.0,0.0,0.0,0.0,0.0,0.0,0.0,0.0,0.0,0.0,0.0,0.0,0.0,0.0,0.0,0.0,0.0,0.0,0.0,0.0,0.0,0.0,0.0,0.0,0.0,0.0,0.0,0.0,0.0,0.0,0.0,0.0,0.0,0.0,0.0,0.0,0.0,0.0,0.0,0.0,0.0,0.0,0.0,0.0,0.0,0.0,0.0,0.0,0.0,0.0,0.0,0.0,0.0,0.0,0.0,0.0,0.0,0.0,0.0,0.0,0.0,0.0,0.0,0.0,0.0,0.0,0.0,0.0,0.0,0.0,0.0,0.0,0.0,0.0,0.0,0.0,0.0,0.0,0.0,0.0,0.0,0.0,0.0,0.0,0.0,0.0,0.0,0.0,0.0,0.0,0.0,0.0,0.0,0.0,0.0,0.0,0.0,0.0,0.0,0.0,0.0,0.0,0.0,0.0,0.0,0.0,0.0,0.0,0.0,0.0,0.0,0.0,0.0,0.0,0.0,0.0,0.0,0.0,0.0,0.0,0.0,0.0,0.0,0.0,0.0,0.0,0.0,0.0,0.0,0.0,0.0,0.0,0.0,0.0,0.0,0.0,0.0,0.0,0.0,0.0,0.0,0.0,0.0,0.0,0.0,0.0,0.0,0.0,0.0,0.0,0.0,0.0,0.0,0.0,0.0,0.0,0.0,0.0,0.0,0.0,0.0,0.0,0.0,0.0,0.0,0.0,0.0,0.0,0.0,0.0,0.0,0.0,0.0,0.0,0.0,0.0,0.0,0.0,0.0,0.0,0.0,0.0,0.0,0.0,0.0,0.0,0.0,0.0,0.0,0.0,0.0,0.0,0.0,0.0,0.0,0.0,0.0,0.0,0.0,0.0,0.0,0.0,0.0,0.0,0.0,0.0,0.0,0.0,0.0,0.0,0.0,0.0,0.0,0.0,0.0,0.0,0.0,0.0,0.0,0.0,0.0,0.0,0.0,0.0,0.0,0.0,0.0,0.0,0.0,0.0,0.0,0.0,0.0,0.0,0.0,0.0,0.0,0.0,0.0,0.0,0.0,0.0,0.0,0.0,0.0,0.0,0.0,0.0,0.0,0.0,0.0,0.0,0.0,0.0,0.0,0.0,0.0,0.0,0.0,0.0,0.0,0.0,0.0,0.0,0.0,0.0,0.0,0.0,0.0,0.0,0.0,0.0,0.0,0.0,0.0,0.0,0.0,0.0,0.0,0.0,0.0,0.0,0.0,0.0,0.0,0.0,0.0,0.0,0.0,0.0,0.0,0.0,0.0,0.0,0.0,0.0,0.0,0.0,0.0,0.0,0.0,0.0,0.0,0.0,0.0,0.0,0.0,0.0,0.0,0.0,0.0,0.0,0.0,0.0,0.0,0.0,0.0,0.0,0.0,0.0,0.0,0.0,0.0,0.0,0.0,0.0,0.0,0.0,0.0,0.0,0.0,0.0,0.0,0.0,0.0,0.0,0.0,0.0,0.0,0.0,0.0,0.0,0.0,0.0,0.0,0.0,0.0,0.0,0.0,0.0,1.452,1.379,0.0,0.0,0.0,0.0,0.0,0.0,0.0,0.0,0.0,0.0,0.0,0.0,0.0,0.0,0.0,0.0,0.0,0.0,0.0,0.0,0.0,0.0,0.0,0.8303,0.818,0.8025,0.7912,0.7812,0.7753,0.0,0.0,0.0,0.0,0.0,0.7605,0.7605,0.7764,0.8085,0.8435,0.8915,0.9507,0.9492,0.897,0.8071,0.0,0.0,0.0,0.0,0.0,0.0,0.0,0.0,0.0,0.0,0.0,0.0,0.0,0.0,0.0,0.0,0.0,0.0,0.0,0.0,0.0,0.0,0.0,0.0,0.0,0.0,0.0,0.0,0.0,0.0,0.0,0.0,0.0,0.0,0.0,0.0,0.0,0.0,0.0,0.0,0.0,0.0,0.0,0.0,0.0,0.0,0.0,0.0,0.0,0.0,0.0,0.0,0.0,0.0,0.0,0.0,0.0,0.0,0.0,0.0,0.0,0.0,0.0,0.0,0.0,0.0,0.0,0.0,0.0,0.0,1.6855,1.589,0.0,0.0,0.0,0.0,0.0,0.0,0.0,0.0,0.0,0.0,0.0,0.0,0.0,0.0,0.0,0.0,0.0,0.0,0.0,0.0,0.0,0.8351,0.8287,0.8318,0.8267,0.8092,0.8109,0.8063,0.7885,0.0,0.0,0.0,0.0,0.7605,0.7605,0.7721,0.8114,0.8769,0.922,1.0015,1.1169,1.1844,0.0,0.0,1.0122,0.0,0.0,0.0,0.0,0.0,0.0,0.0,0.0,0.0,0.0,0.0,0.0,0.0,0.0,0.0,0.0,0.0,0.0,0.0,0.0,0.0,0.0,0.0,0.0,0.0,0.0,0.0,0.0,0.0,0.0,0.0,0.0,0.0,0.0,0.0,0.0,0.0,0.0,0.0,0.0,0.0,0.0,0.0,0.0,0.0,0.0,0.0,0.0,0.0,0.0,0.0,0.0,0.0,0.0,0.0,0.0,0.0,0.0,0.0,0.0,0.0,0.0,0.0,1.9692,2.0167,2.0408,2.0658,2.0947,2.1186,1.9452,1.8452,1.7968,1.7562,0.0,0.0,0.0,0.0,0.0,0.0,0.0,0.0,0.0,0.0,0.0,0.0,0.0,0.0,0.0,0.0,0.0,0.0,0.0,0.8287,0.8234,0.862,0.8849,0.8785,0.9178,0.9198,0.8607,0.0,0.0,0.0,0.7605,0.7605,0.7605,0.8172,0.8799,0.9467,1.1678,1.3132,1.3818,0.0,0.0,0.0,1.2245,1.0936,0.0,0.0,0.0,0.0,0.0,0.0,0.0,0.0,0.0,0.0,0.0,0.0,0.0,0.0,0.0,0.0,0.0,0.0,0.0,0.0,0.0,0.0,0.0,0.0,0.0,0.0,0.0,0.0,0.0,0.0,0.0,0.0,0.0,0.0,0.0,0.0,0.0,0.0,0.0,0.0,0.0,0.0,1.1234,1.1936,0.0,0.0,0.0,0.0,0.0,0.0,0.0,0.0,0.0,0.0,0.0,0.0,0.0,1.9148,1.9945,2.0557,2.1247,2.2036,2.2661,2.3128,2.3508,2.3707,2.3989,2.4304,2.4393,0.0,2.0448,2.0496,0.0,0.0,0.0,0.0,0.0,0.0,0.0,0.0,0.0,0.0,0.0,0.0,0.0,0.0,0.0,0.0,0.0,0.0,0.0,0.0,0.0,0.8834,0.9071,0.9381,0.9576,0.9567,0.0,0.0,0.0,0.8172,0.7808,0.7779,0.8157,0.8828,1.0006,1.1736,1.3583,1.4776,0.0,0.0,0.0,0.0,0.0,0.0,0.0,0.0,0.0,0.0,0.0,0.0,0.0,0.0,0.0,0.0,0.0,0.0,0.0,0.0,0.0,0.0,0.0,0.0,0.0,0.0,0.0,0.0,0.0,0.0,0.0,0.0,0.0,0.0,0.0,0.0,0.0,0.0,0.0,0.0,0.0,0.0,0.0,0.0,0.0,0.0,0.0,1.0842,1.2366,1.3342,1.3818,1.405,0.0,0.0,0.0,0.0,0.0,0.0,0.0,0.0,0.0,1.9522,2.0524,2.1576,2.2723,2.3176,2.3698,2.4387,2.4879,2.5236,2.5527,2.5784,2.6078,2.6422,2.6623,2.6047,2.4806,2.3255,2.2036,2.0991,0.0,0.0,0.0,0.0,1.8145,1.8799,0.0,0.0,0.0,0.0,0.0,0.0,0.0,0.0,0.0,0.0,0.0,0.0,0.8957,0.9391,0.983,1.0252,0.0,0.0,0.0,0.0,0.0,0.8871,0.8375,0.8418,0.9075,1.0224,1.1823,0.0,0.0,0.0,0.0,0.0,0.0,0.0,0.0,0.0,0.0,0.0,0.0,0.0,0.0,0.0,0.0,0.0,0.0,0.0,0.0,0.0,0.0,0.0,0.0,0.0,0.0,0.0,0.0,0.0,0.0,0.0,0.0,0.0,0.0,0.0,0.0,0.0,0.0,0.0,0.0,0.0,0.0,0.0,0.0,0.0,0.0,0.0,0.0,0.0,0.0,1.2328,1.3602,1.4906,1.5487,1.5864,0.0,0.0,0.0,0.0,0.0,0.0,1.8158,1.9895,2.1228,2.2024,2.2844,2.3985,2.5484,2.5728,2.6291,2.7162,2.7458,2.7748,2.7899,2.8227,2.841,2.8488,2.8614,2.8584,2.8197,2.5691,2.4345,2.377,2.2485,2.2052,2.2032,2.1486,2.1764,2.2391,0.0,0.0,0.0,0.0,0.0,0.0,0.0,0.0,0.0,0.0,0.0,0.9034,0.0,0.0,0.0,0.0,0.0,0.0,0.0,0.0,0.0,0.9598,0.9511,0.9783,1.0386,1.2791,0.0,0.0,0.0,0.0,0.0,0.0,0.0,0.0,0.0,0.0,0.0,0.0,0.0,0.0,0.0,0.0,0.0,0.0,0.0,0.0,0.0,0.0,0.0,0.0,0.0,0.0,0.0,0.0,0.0,0.0,0.0,0.0,0.0,0.0,0.0,0.0,0.0,0.0,0.0,0.0,0.0,0.0,0.0,0.0,0.0,0.0,0.0,0.0,0.0,0.0,0.0,0.0,0.0,1.6909,1.7084,0.0,0.0,0.0,0.0,1.8869,1.9566,2.0204,2.077,2.2177,2.3378,2.4313,2.5183,2.6473,2.8198,2.8324,2.9247,3.0838,3.0939,3.1118,3.1374,3.1643,3.1456,3.0941,3.121,3.0523,2.9099,2.7492,2.6874,2.6817,2.6096,2.5851,2.5938,2.5889,2.6336,2.6985,0.0,0.0,0.0,0.8396,0.8411,0.8369,0.8301,0.8287,0.8276,0.8209,0.8725,0.0,0.0,0.0,0.0,0.0,0.0,0.0,0.0,0.0,1.13,1.0835,1.0407,1.106,1.2893,1.4268,0.0,0.0,0.0,0.0,0.0,0.0,0.0,0.0,0.0,0.0,0.0,0.0,0.0,0.0,0.0,0.0,0.0,0.0,0.0,0.0,0.0,0.0,0.0,0.0,0.0,0.0,0.0,0.0,0.0,0.0,0.0,0.0,0.0,0.0,0.0,0.0,0.0,0.0,0.0,0.0,0.0,0.0,0.0,0.0,0.0,0.0,0.0,0.0,0.0,0.0,0.0,0.0,0.0,1.8317,1.9145,0.0,1.9986,2.0393,2.0727,2.0944,2.2032,2.2776,2.298,2.3965,2.5124,2.6434,2.7076,2.8161,2.9813,3.0223,3.0767,3.1405,3.1598,3.1789,3.1994,3.2166,3.2158,3.2032,3.2077,3.1885,3.1461,3.0974,2.9705,2.798,2.7732,2.7707,2.7818,2.7818,2.8002,2.8202,0.839,0.839,0.0,0.8367,0.8367,0.834,0.8274,0.8261,0.8328,0.8477,0.905,0.9937,0.0,0.0,0.0,0.0,0.0,0.0,0.0,0.0,1.2434,1.2214,1.2167,1.3045,1.4965,0.0,0.0,0.0,0.0,0.0,0.0,0.0,0.0,0.0,0.0,0.0,0.0,0.0,0.0,0.0,0.0,0.0,1.2085,0.0,0.0,0.0,0.0,0.0,0.0,0.0,0.0,0.0,0.0,0.0,0.0,0.0,0.0,0.0,0.0,0.0,0.0,0.0,0.0,0.0,0.0,0.0,0.0,0.0,0.0,0.0,0.0,0.0,0.0,0.0,0.0,0.0,0.0,1.703,1.892,1.9943,2.0814,2.1496,2.1931,2.2381,2.273,2.2933,2.3885,2.4637,2.5125,2.5808,2.6886,2.8495,2.8978,2.9915,3.1357,3.1771,3.2192,3.2611,3.2819,3.2961,3.3072,3.3182,3.3126,3.2954,3.2954,3.2867,3.2724,3.2813,3.1766,3.0112,3.0112,3.0151,3.023,3.0269,3.0292,3.0386,0.8382,0.8338,0.8293,0.8293,0.8293,0.8282,0.8205,0.8191,0.8412,0.9019,0.9678,0.0,0.0,0.0,0.0,0.0,0.0,0.0,0.0,1.4604,1.4337,1.3705,1.4802,1.5754,1.6442,0.0,0.0,0.0,0.0,0.0,0.0,0.0,0.0,0.0,0.0,0.0,0.0,0.0,0.0,0.0,0.0,0.0,1.3481,0.0,0.0,0.0,0.0,0.0,0.0,0.0,0.0,0.0,0.0,0.0,0.0,0.0,0.0,0.0,0.0,0.0,0.0,0.0,0.0,0.0,0.0,0.0,0.0,0.0,0.0,0.0,0.0,0.0,0.0,0.0,0.0,0.0,1.8143,1.8811,1.9928,2.1801,2.2062,2.257,2.3804,2.3963,2.4225,2.48,2.5097,2.585,2.7174,2.7735,2.8743,3.0366,3.0857,3.1654,3.2918,3.3048,3.36,3.4497,3.4643,3.4691,3.4691,3.4851,3.4502,3.3822,3.3822,3.3425,3.2807,3.294,3.3115,3.3287,3.3296,3.3339,3.3322,3.3414,3.3498,3.3663,0.8325,0.8309,0.8293,0.8293,0.8311,0.8272,0.8205,0.8191,0.8412,0.9019,0.0,0.0,0.0,0.0,0.0,0.0,0.0,0.0,1.4718,0.0,1.489,1.5188,1.5832,0.0,0.0,0.0,0.0,0.0,0.0,0.0,0.0,0.0,0.0,0.0,0.0,0.0,0.0,0.0,0.0,0.0,0.0,0.0,1.5535,0.0,0.0,0.0,0.0,0.0,0.0,0.0,0.0,0.0,0.0,0.0,0.0,0.0,0.0,0.0,0.0,0.0,0.0,0.0,0.0,0.0,0.0,0.0,0.0,0.0,0.0,0.0,0.0,0.0,0.0,0.0,1.7519,1.8637,1.884,2.0611,2.2033,2.2569,2.3453,2.421,2.4573,2.5444,2.6054,2.6242,2.7363,2.8305,2.8913,2.9349,3.0161,3.1472,3.1883,3.257,3.3609,3.3859,3.4219,3.4643,3.4691,3.4739,3.4851,3.4899,3.4783,3.4601,3.4601,3.4468,3.4333,3.4593,3.4818,3.4851,3.3947,3.3704,3.3882,3.4064,3.4164,3.4279,0.8298,0.8311,0.8311,0.8311,0.8301,0.8274,0.8222,0.8207,0.8506,0.9404,0.0,0.0,0.0,0.0,0.0,0.0,0.0,0.0,1.5257,1.5609,1.6091,0.0,0.0,0.0,0.0,0.0,0.0,0.0,0.0,0.0,0.0,0.0,0.0,0.0,0.0,0.0,0.0,0.0,0.0,0.0,0.0,0.0,1.721,1.6743,1.5771,1.4483,1.3452,1.3397,1.3573,1.225,0.0,0.0,0.0,0.0,0.0,0.0,0.0,0.0,0.0,0.0,0.0,0.0,0.0,0.0,0.0,0.0,0.0,0.0,0.0,0.0,0.0,0.0,0.0,0.0,1.987,2.0901,2.1452,2.257,2.3543,2.4065,2.4776,2.5458,2.6025,2.675,2.7287,2.7563,2.8521,2.9381,3.0048,3.0517,3.1353,3.2593,3.2969,3.3514,3.425,3.4399,3.4546,3.4787,3.4787,3.4835,3.4899,3.4899,3.4899,3.4899,3.4899,3.4947,3.4994,3.535,3.5605,3.5742,0.0,0.0,0.0,0.0,3.5656,3.5733,0.8274,0.8287,0.8287,0.829,0.8274,0.8263,0.8197,0.8195,0.8661,0.9927,0.0,0.0,0.0,0.0,0.0,0.0,0.0,0.0,0.0,0.0,0.0,0.0,0.0,0.0,0.0,0.0,0.0,0.0,0.0,0.0,0.0,0.0,0.0,0.0,0.0,0.0,0.0,0.0,0.0,0.0,0.0,0.0,1.8579,1.8308,1.7243,1.5919,1.5826,1.5765,1.5618,1.4834,0.0,0.0,0.0,0.0,0.0,0.0,0.0,0.0,0.0,0.0,0.0,0.0,0.0,0.0,0.0,0.0,0.0,0.0,0.0,0.0,0.0,0.0,0.0,0.0,2.2309,2.3586,2.4869,2.4592,2.4665,2.5662,2.5923,2.646,2.7567,2.7813,2.8173,2.8795,2.9178,2.9848,3.0945,3.149,0.0,0.0,0.0,3.4463,3.4938,3.4955,3.4954,3.5015,3.5015,3.4982,3.4899,3.4899,3.4899,3.4899,3.4899,3.4994,3.5182,3.5532,3.5898,3.6266,3.6527,3.6632,3.6776,3.7203,3.741,3.7503,0.8207,0.822,0.822,0.8224,0.8166,0.8123,0.8039,0.8125,0.8648,0.9939,1.0141,0.0,0.0,0.0,0.0,0.0,0.0,0.0,0.0,0.0,0.0,0.0,0.0,0.0,0.0,0.0,0.0,0.0,0.0,0.0,0.0,0.0,0.0,0.0,0.0,0.0,0.0,0.0,0.0,0.0,0.0,0.0,1.9381,1.9394,1.9084,1.8661,1.8787,1.8647,1.8346,1.8172,1.6619,1.4485,1.2958,0.0,0.0,0.0,0.0,0.0,0.0,0.0,0.0,0.0,0.0,0.0,0.0,0.0,0.0,0.0,0.0,0.0,0.0,0.0,0.0,2.2193,2.3737,2.4941,2.5666,2.6119,2.6229,2.5872,2.6721,2.7447,2.7654,2.8652,2.9362,2.9623,3.0437,3.1237,3.2032,3.2524,3.3425,3.4839,3.5078,3.5558,3.647,3.647,3.6224,3.5794,3.5794,0.0,3.4899,3.4899,3.4899,3.4899,3.4994,3.5182,3.5379,3.581,3.6474,3.7129,3.7185,3.7392,3.7667,3.7757,3.7793,3.7828,0.8041,0.8125,0.8195,0.8152,0.8096,0.8039,0.7998,0.8069,0.8466,0.9463,0.9908,0.0,0.0,0.0,0.0,0.0,0.0,0.0,0.0,0.0,0.0,0.0,0.0,0.0,0.0,0.0,0.0,0.0,0.0,0.0,0.0,0.0,0.0,0.0,0.0,0.0,0.0,0.0,0.0,0.0,0.0,0.0,1.9983,1.9788,1.9654,1.9545,1.9654,1.9435,1.9101,1.9101,1.8056,1.6474,1.4848,1.3443,1.2096,0.0,0.0,0.0,0.0,0.0,0.0,0.0,0.0,0.0,0.0,0.0,0.0,0.0,0.0,1.8361,1.8985,0.0,2.2454,2.3781,2.4897,2.5795,2.6491,2.7099,2.7272,2.6884,2.737,2.7969,2.8566,2.9319,2.9929,3.0426,3.1084,3.1781,3.2437,3.3255,3.4155,3.5272,3.5785,3.6366,3.7001,3.7001,3.6869,3.6555,3.6555,3.6357,3.6009,3.6009,3.6041,3.6122,3.6315,3.6333,3.6265,3.653,3.7034,3.7667,3.7685,3.7792,3.7899,3.7951,3.7951,3.7951,0.787,0.8028,0.8126,0.8068,0.7997,0.7955,0.7957,0.797,0.8241,0.8957,0.9553,1.0117,1.0731,1.1763,1.2508,0.0,0.0,0.0,0.0,0.0,0.0,0.0,0.0,0.0,0.0,0.0,0.0,0.0,0.0,0.0,0.0,0.0,0.0,0.0,0.0,0.0,0.0,0.0,0.0,0.0,0.0,0.0,2.0312,1.9834,1.9654,1.969,1.969,1.9435,1.9064,1.9101,1.8782,1.8064,1.6401,1.5399,1.4602,1.333,1.2417,0.0,0.0,0.0,0.0,0.0,0.0,0.0,0.0,0.0,1.7113,1.765,1.9696,2.1409,2.154,2.308,2.4567,2.5355,2.605,2.6798,2.7565,2.7992,2.8253,2.8385,2.825,2.8562,2.958,2.9973,3.044,3.1116,3.1552,3.2165,3.2897,3.388,3.4862,3.585,3.6593,3.7127,3.7533,3.7533,3.7466,3.7317,3.7317,3.7251,3.7102,3.7102,3.7236,3.7418,3.7773,3.7809,3.7611,3.7739,3.7916,3.815,3.8236,3.8146,3.7969,3.8002,3.8036,3.8036,0.7783,0.7885,0.7928,0.7928,0.7855,0.7812,0.7827,0.787,0.8154,0.8833,0.9094,0.943,0.9962,1.0158,1.0956,1.2735,0.0,0.0,0.0,0.0,0.0,0.0,0.0,0.0,0.0,0.0,0.0,0.0,0.0,0.0,0.0,0.0,0.0,0.0,0.0,0.0,0.0,0.0,0.0,0.0,0.0,0.0,2.0143,1.9626,1.9545,1.969,1.969,1.931,1.886,1.9026,1.8997,1.8801,1.8093,1.7383,1.6535,1.5267,0.0,1.3855,1.3783,1.4689,1.597,1.7361,1.7724,1.7773,0.0,0.0,1.9682,1.9769,2.1351,2.2844,2.347,2.4771,2.6029,2.6813,2.7735,2.8577,2.9265,2.9376,2.956,2.9959,2.9822,2.9709,2.9856,3.0659,3.1261,3.161,3.2064,3.281,3.4038,3.4649,3.5716,3.7494,3.7715,3.8236,3.9023,3.9023,3.8725,3.8096,3.8096,3.7748,3.7102,3.7236,3.7418,3.7694,3.857,3.9098,3.9358,3.9777,3.9607,3.9066,3.9208,3.8808,3.8192,3.8174,3.8174,3.8174,0.762,0.7739,0.7827,0.7739,0.7739,0.7724,0.7694,0.7739,0.7901,0.8214,0.8681,0.9076,0.9297,0.9968,1.0947,1.2207,1.382,0.0,0.0,0.0,0.0,0.0,0.0,0.0,0.0,0.0,0.0,0.0,0.0,0.0,0.0,0.0,0.0,0.0,0.0,0.0,0.0,0.0,0.0,0.0,0.0,0.0,2.0655,1.9721,1.9339,1.9362,1.9472,1.8731,0.0,0.0,1.8705,1.8446,1.8599,1.8158,1.7454,1.6963,1.6387,0.0,1.6445,1.7382,1.8446,0.0,1.987,2.0303,2.0918,2.1435,2.1917,2.2656,2.3789,2.4675,2.5048,2.6,2.7026,2.7957,2.8471,2.9011,2.9728,2.9657,2.9585,2.9799,3.0171,3.0488,3.0832,3.136,3.1853,3.2216,3.2974,3.3717,3.4574,3.568,3.6799,3.7756,3.8327,3.8797,3.9272,3.9272,3.9123,3.8825,3.8825,3.8728,3.8482,3.8671,3.9024,3.965,3.9905,4.0235,4.0499,4.0434,4.0185,3.995,4.0004,3.984,3.9423,3.8518,3.8192,3.8192,0.7498,0.762,0.7694,0.7589,0.7605,0.762,0.7575,0.7635,0.7709,0.7783,0.8259,0.8604,0.8619,0.977,1.0817,1.1538,1.3336,1.4956,0.0,0.0,0.0,0.0,0.0,0.0,0.0,0.0,0.0,0.0,0.0,0.0,0.0,0.0,0.0,0.0,0.0,0.0,0.0,0.0,0.0,0.0,0.0,0.0,2.0866,1.9765,1.9228,1.9101,1.9265,1.836,0.0,0.0,1.7791,1.7856,1.8518,1.8329,1.7963,1.8194,1.8122,1.8114,1.8752,1.9671,2.0548,2.1164,2.1806,2.2492,2.3495,2.3653,2.3868,2.4927,2.5523,2.5952,2.6243,2.6857,2.769,2.8927,2.9234,2.9605,3.0548,3.0494,3.0332,3.0238,3.0849,3.1445,3.1905,3.212,3.2398,3.2765,3.3747,3.4562,3.5091,3.6627,3.7606,3.8051,3.8722,3.9148,3.9272,3.9272,3.9272,3.9272,3.9325,3.9432,3.959,3.9918,4.0514,4.1276,4.1195,4.1337,4.1597,4.123,4.098,4.0854,4.0854,4.0709,4.0365,3.9242,3.8699,3.8482,0.7483,0.7499,0.7499,0.7499,0.7453,0.7422,0.7484,0.756,0.765,0.7783,0.7827,0.7871,0.7929,0.9065,1.0092,1.0768,1.2603,1.4287,1.555,1.6679,0.0,0.0,0.0,0.0,0.0,0.0,0.0,0.0,0.0,0.0,0.0,0.0,0.0,0.0,0.0,0.0,0.0,0.0,0.0,0.0,0.0,0.0,2.0342,1.9664,1.9265,1.9101,1.9101,0.0,0.0,0.0,1.6131,1.7139,1.7841,1.7978,0.0,1.8777,1.9522,0.0,0.0,2.1471,2.2644,2.3498,2.4059,2.4565,2.5203,2.5272,2.5383,2.5833,2.5979,2.6199,2.6857,2.7321,2.8096,2.9705,3.0299,3.0933,3.2151,3.2431,3.2431,3.213,3.2501,3.2788,3.3043,3.2888,3.2926,3.324,3.4208,3.5107,3.5911,3.7118,3.8084,3.8756,3.9094,3.9272,3.9272,3.9272,3.9272,3.9272,3.9432,3.9537,3.9729,4.0563,4.1293,4.1881,4.2216,4.2476,4.2747,4.2808,4.2375,4.1669,4.1669,4.1198,4.051,4.0456,3.9985,3.9242,0.7345,0.7437,0.7482,0.7438,0.7407,0.7406,0.7373,0.7421,0.7499,0.7589,0.7679,0.0,0.0,0.0,0.0,0.0,1.1829,1.3462,1.4785,1.5563,0.0,0.0,0.0,0.0,0.0,0.0,0.0,0.0,0.0,0.0,0.0,0.0,0.0,0.0,0.0,0.0,0.0,0.0,0.0,0.0,0.0,0.0,1.9834,1.959,1.9413,1.9222,0.0,0.0,0.0,0.0,0.0,0.0,1.7669,0.0,0.0,1.9358,0.0,2.0757,2.1729,2.2776,2.3773,2.4425,2.4957,2.5543,2.6156,2.5771,2.5412,2.6125,2.582,2.5585,2.6001,2.6647,2.7463,2.874,2.9812,3.0788,3.172,3.1935,3.1935,3.1951,3.2254,3.2566,3.2803,3.3113,3.3382,3.371,3.4888,3.5766,3.6201,3.7552,3.8466,3.8788,3.8985,3.9148,3.9272,3.9272,3.9325,3.9448,3.9901,4.0237,4.0483,4.1248,4.1753,4.2044,4.2472,4.2706,4.2783,4.2862,4.2737,4.2502,4.2502,4.2321,4.2031,4.1506,4.1162,4.0745,0.7235,0.7328,0.7389,0.7359,0.7343,0.0,0.0,0.0,0.0,0.0,0.0,0.0,0.0,0.0,0.0,0.0,0.0,1.2873,1.3718,0.0,0.0,0.0,0.0,0.0,0.0,0.0,0.0,0.0,0.0,0.0,0.0,0.0,0.0,0.0,0.0,0.0,0.0,0.0,0.0,0.0,0.0,0.0,1.9099,1.9049,1.896,0.0,0.0,0.0,0.0,0.0,0.0,0.0,0.0,0.0,0.0,0.0,2.0976,2.2054,2.2938,2.4137,2.5299,2.5741,2.6244,2.673,2.6942,2.6449,2.5941,2.6165,2.5577,2.5112,2.5523,2.592,2.6638,2.8181,2.9453,3.0608,3.1591,3.2076,3.2285,3.2353,3.2649,3.2955,3.3123,3.3489,3.3797,3.3949,3.5324,3.6147,3.6303,3.7741,3.8672,3.8805,3.8914,3.9094,3.9272,3.9325,3.9484,3.9798,4.0286,4.0737,4.1111,4.1709,4.2127,4.2369,4.2667,4.2822,4.2842,4.29,4.2882,4.2882,4.2882,4.2882,4.2828,4.2321,4.1959,4.1488,0.7155,0.7187,0.7217,0.0,0.0,0.0,0.0,0.0,0.0,0.0,0.0,0.0,0.0,0.0,0.0,0.0,0.0,0.0,1.2497,0.0,0.0,0.0,0.0,0.0,1.677,1.6841,0.0,0.0,0.0,0.0,0.0,0.0,0.0,0.0,0.0,0.0,0.0,0.0,0.0,0.0,0.0,0.0,1.8159,1.8233,0.0,0.0,0.0,0.0,0.0,0.0,0.0,0.0,0.0,0.0,0.0,0.0,2.2188,2.397,2.4085,2.5559,2.7115,2.738,2.781,2.8005,2.7441,2.7179,2.6841,2.6001,2.5093,2.4672,2.5285,2.5168,2.5696,2.7873,2.9247,3.0427,3.1762,3.2871,3.3466,3.3409,3.3706,3.3963,3.4011,3.4163,3.4214,3.4214,3.5509,3.6319,3.6351,3.7757,3.8672,3.8805,3.8914,3.9094,3.9325,3.9432,3.9798,4.0337,4.0693,4.1174,4.1709,4.2002,4.2369,4.2783,4.2783,4.2842,4.2882,4.2882,4.2882,4.2882,4.2882,4.2882,4.2882,4.2882,4.2411,4.156,0.0,0.0,0.0,0.0,0.0,0.0,0.0,0.0,0.0,0.0,0.0,0.0,0.0,0.0,0.0,0.0,0.0,0.0,0.0,0.0,0.0,0.0,0.0,0.0,0.0,0.0,0.0,0.0,0.0,0.0,0.0,0.0,0.0,0.0,0.0,0.0,0.0,0.0,0.0,0.0,0.0,0.0,1.7815,0.0,0.0,0.0,0.0,0.0,0.0,0.0,0.0,0.0,0.0,2.0176,2.1723,0.0,0.0,2.4559,2.5636,2.6789,2.7703,2.7764,2.7797,2.7798,2.7765,2.6329,2.4986,2.4872,2.3738,2.2813,2.3086,2.3804,2.479,2.605,2.8171,3.0074,3.1118,3.2554,3.3746,3.4324,3.4703,3.5069,3.5635,3.5752,3.5752,3.5752,3.6092,3.6529,3.7031,3.8017,3.8672,3.8805,3.9094,3.9272,3.9448,3.9901,4.0271,4.0676,4.1163,4.1613,4.2002,4.231,4.2609,4.2783,4.2842,4.29,4.2882,4.2882,4.2882,4.2882,4.2882,4.2882,4.2882,4.2882,4.2811,4.2613,0.0,0.0,0.0,0.0,0.0,0.0,0.0,0.0,0.0,0.0,0.0,0.0,0.0,0.0,0.0,0.0,0.0,0.0,0.0,0.0,0.0,0.0,0.0,0.0,0.0,0.0,0.0,0.0,0.0,0.0,0.0,0.0,0.0,0.0,0.0,0.0,0.0,0.0,0.0,0.0,0.0,0.0,0.0,0.0,0.0,0.0,0.0,0.0,0.0,0.0,0.0,1.9942,2.0798,2.1931,2.3153,2.433,0.0,2.6479,2.7346,2.82,2.8856,2.8887,2.8385,2.7771,2.732,2.5874,2.4505,2.3936,2.2747,2.1894,2.224,2.2878,2.384,2.5341,2.7453,2.9469,3.1051,3.2663,3.3966,3.4792,3.5372,3.5849,3.627,3.6303,3.6432,3.6724,3.6756,3.6918,3.7307,3.8114,3.8672,3.886,3.9164,3.9484,3.9849,4.037,4.0741,4.1053,4.1569,4.1977,4.2228,4.257,4.2727,4.2842,4.29,4.2882,4.2882,4.2882,4.2882,4.2882,4.2882,4.2882,4.2882,4.2882,4.2994,4.3032,0.0,0.0,0.0,0.0,0.0,0.0,0.0,0.0,0.0,0.7502,0.7448,0.7887,0.9157,0.9289,0.0,0.0,0.0,0.0,0.0,0.0,0.0,0.0,0.0,0.0,0.0,0.0,0.0,0.0,0.0,0.0,0.0,0.0,0.0,0.0,0.0,0.0,0.0,0.0,0.0,0.0,0.0,0.0,0.0,0.0,0.0,0.0,0.0,0.0,0.0,0.0,1.9098,2.0531,2.2352,2.3575,2.4484,2.5315,2.6977,2.8575,2.8889,2.9469,2.9974,3.0196,2.918,2.7806,2.6598,2.5465,2.4322,2.2948,2.1804,2.1233,2.1821,2.2022,2.2824,2.5102,2.6887,2.877,3.1102,3.2753,3.4092,3.4993,3.5845,3.6384,3.6562,3.6594,3.6821,3.742,3.7469,3.7452,3.7452,3.8219,3.8766,3.9131,3.9362,3.9781,4.0436,4.0853,4.1209,4.148,4.1934,4.2228,4.2432,4.2706,4.2842,4.2882,4.2882,4.2882,4.2882,4.2882,4.2882,4.2882,4.2882,4.2882,4.2882,4.2938,4.3031,4.3051,0.0,0.0,0.0,0.0,0.0,0.0,0.0,0.7262,0.7504,0.8072,0.7713,0.7887,0.9157,0.9298,0.0,0.0,0.0,0.0,0.0,0.0,0.0,0.0,0.0,0.0,0.0,0.0,0.0,0.0,0.0,0.0,0.0,0.0,0.0,0.0,0.0,0.0,0.0,0.0,0.0,0.0,0.0,0.0,0.0,0.0,0.0,0.0,0.0,0.0,0.0,0.0,2.0031,2.1575,2.2147,2.357,2.5216,2.6184,2.7232,2.8309,2.9596,2.9768,2.9747,3.0289,2.9083,2.7483,2.6647,2.4468,0.0,0.0,2.0162,1.9374,2.0034,2.053,2.1592,2.3901,2.5986,2.8084,3.0368,3.2015,3.3705,3.5589,3.6082,3.6756,3.7922,3.8035,3.8084,3.8197,3.8213,3.827,3.8381,3.8645,3.9131,3.9867,4.0087,4.0466,4.1024,4.1363,4.1587,4.1831,4.2103,4.2369,4.257,4.2745,4.2842,4.2882,4.2882,4.2882,4.2882,4.2882,4.2882,4.2882,4.2882,4.2882,4.292,4.2994,4.3142,4.3211,0.0,0.0,0.0,0.0,0.0,0.0,0.0,0.7475,0.7838,0.8198,0.8293,0.8711,0.9658,0.9495,0.9664,0.0,0.0,0.0,0.0,0.0,0.0,0.0,0.0,0.0,0.0,0.0,0.0,0.0,0.0,0.0,0.0,0.0,0.0,0.0,0.0,0.0,0.0,0.0,0.0,0.0,0.0,0.0,0.0,0.0,0.0,0.0,0.0,0.0,0.0,0.0,1.914,2.0986,2.272,2.3917,2.5087,2.6725,2.7809,2.8669,2.9896,3.0101,2.997,2.9968,2.8501,2.6663,2.525,0.0,0.0,0.0,1.9363,1.8892,1.9181,2.0051,2.1219,2.277,2.4834,2.7022,2.9267,3.1209,3.3177,3.5308,3.6298,3.7242,3.8294,3.8391,3.8391,3.8391,3.8448,3.8504,3.8576,3.9023,3.9556,4.0188,4.058,4.0943,4.13,4.1657,4.1892,4.2019,4.231,4.249,4.2609,4.2765,4.2862,4.2882,4.2882,4.2882,4.2882,4.2882,4.2882,4.2882,4.2882,4.2938,4.2994,4.3067,4.3214,4.3316,0.0,0.0,0.0,0.0,0.0,0.0,0.0,0.7652,0.8155,0.8333,0.8941,0.9556,1.0094,0.9644,0.9495,0.0,0.0,0.0,0.0,0.0,0.0,0.0,0.0,0.0,0.0,0.0,0.0,0.0,0.0,0.0,0.0,0.0,0.0,0.0,0.0,0.0,0.0,0.0,0.0,0.0,0.0,0.0,0.0,0.0,0.0,0.0,0.0,0.0,0.0,0.0,1.7839,1.9566,2.2382,2.3733,2.4625,2.6492,2.784,2.8857,2.9706,3.0054,3.0036,2.9571,2.7961,2.5986,2.3913,2.2248,0.0,1.9196,1.8664,1.8515,1.8617,1.9653,2.0799,0.0,2.3606,2.576,2.8029,3.0198,3.2352,3.4489,3.6141,3.7388,3.81,3.8311,3.8391,3.8448,3.8672,3.8766,3.8766,3.9451,4.0037,4.0436,4.0977,4.1391,4.1569,4.1917,4.2163,4.2205,4.249,4.2609,4.2649,4.2824,4.2882,4.2882,4.2882,4.2882,4.2882,4.2882,4.2882,4.2882,4.2938,4.3031,4.3141,4.3196,4.3248,4.3229,0.0,0.0,0.0,0.0,0.0,0.0,0.0,0.7583,0.823,0.8851,0.946,0.9878,1.0021,0.9583,0.9326,0.0,0.0,0.0,0.0,0.0,0.0,0.0,0.0,0.0,0.0,0.0,0.0,0.0,1.1015,0.0,0.0,0.0,0.0,0.0,0.0,1.1085,0.0,0.0,0.0,0.0,0.0,0.0,0.0,0.0,0.0,0.0,0.0,0.0,0.0,0.0,0.0,1.7371,1.9597,2.2117,2.4337,2.4823,0.0,0.0,2.8996,2.9309,2.9384,2.9321,2.7902,2.5931,2.379,0.0,1.9981,1.8508,1.7636,1.7358,1.7969,1.8683,1.9631,2.1054,0.0,2.4277,2.6571,2.8725,3.0907,3.3016,3.5121,3.6675,3.7355,3.8019,3.8448,3.856,3.9023,3.9329,3.9329,3.9918,4.0485,4.0931,4.1363,4.1719,4.2019,4.2205,4.2346,4.2463,4.2548,4.2649,4.2783,4.2862,4.2882,4.2882,4.2882,4.2882,4.2882,4.2882,4.2882,4.292,4.3049,4.3123,4.3214,4.3461,4.3185,4.2619,0.0,0.0,0.0,0.0,0.0,0.0,0.0,0.753,0.8053,0.8352,0.8968,0.924,0.8891,0.872,0.8655,0.0,0.0,0.0,0.0,0.0,0.0,0.0,0.0,0.0,0.0,0.0,0.0,0.0,1.1015,0.0,0.0,0.0,0.0,0.0,0.0,1.0849,1.0849,0.0,0.0,0.0,0.0,0.0,0.0,0.0,0.0,0.0,0.0,0.0,0.0,0.0,0.0,0.0,1.7782,1.9508,0.0,0.0,2.5248,2.6325,2.7561,2.7949,2.7898,2.7497,2.6254,2.4527,2.2501,2.0763,1.9163,1.7779,1.7252,1.7154,1.7413,1.8372,1.9325,0.0,2.1536,2.3363,2.513,2.7203,2.9534,3.2125,3.3939,3.5428,3.6594,3.7339,3.8089,3.8882,3.947,3.9902,4.022,4.0483,4.0772,4.1255,4.1569,4.1892,4.2103,4.2228,4.2346,4.2503,4.2588,4.2649,4.2783,4.2862,4.2882,4.2882,4.2882,4.2882,4.29,4.2994,4.3012,4.2995,4.2632,4.2591,4.2674,4.241,4.2193,4.2031,0.0,0.0,0.0,0.0,0.0,0.6891,0.6934,0.7477,0.7891,0.7936,0.8536,0.871,0.8145,0.8118,0.8089,0.7993,0.0,0.0,0.0,0.0,0.0,0.0,0.0,0.0,0.0,0.0,0.0,0.0,0.0,0.0,0.0,0.0,1.0705,1.0705,0.0,0.0,0.0,0.0,0.0,0.0,0.0,0.0,0.0,0.0,0.0,0.0,0.0,0.0,0.0,0.0,0.0,0.0,0.0,0.0,0.0,0.0,2.3709,2.4532,2.6046,2.6467,2.6398,2.5932,2.4782,2.3267,2.1247,1.9929,1.8651,1.7074,1.6937,1.7018,1.6807,1.8113,1.92,0.0,2.0807,2.2572,2.3981,2.6037,2.832,3.0765,3.2854,3.4505,3.5594,3.6873,3.8126,3.9351,3.9952,4.0449,4.0943,4.1082,4.1283,4.1525,4.1831,4.2019,4.2145,4.2246,4.2387,4.2526,4.2588,4.2688,4.2804,4.2862,4.2882,4.2882,4.2938,4.2938,4.2957,4.2869,4.2814,4.2759,4.213,4.2,4.2105,4.1716,4.1539,4.1472,0.0,0.0,0.0,0.0,0.0,0.0,0.0,0.7376,0.7798,0.7798,0.8385,0.8605,0.8072,0.8014,0.7792,0.7258,0.0,0.0,0.0,0.0,0.0,0.0,0.0,0.0,0.0,0.0,0.0,0.0,0.0,0.0,0.0,0.0,1.0705,1.0705,0.0,0.0,0.0,0.0,0.0,0.0,0.0,0.0,0.0,0.0,0.0,0.0,0.0,0.0,0.0,0.0,0.0,0.0,0.0,0.0,0.0,0.0,2.1521,2.3117,2.4469,2.4942,2.5021,2.5021,2.3983,2.2468,2.0385,1.9487,1.8478,1.6362,1.6556,1.6872,1.6144,1.7773,1.92,1.92,2.0386,2.1843,2.3284,2.5341,2.7235,2.8644,3.1947,3.4151,3.4316,3.6786,3.8806,3.9902,4.0497,4.0943,4.1373,4.1701,4.1874,4.1874,4.2019,4.2145,4.2287,4.2287,4.2409,4.2609,4.2609,4.2709,4.2882,4.2882,4.2882,4.29,4.3049,4.3104,4.305,4.2375,4.2166,4.2142,4.1549,4.1433,4.1632,4.1829,4.1477,4.0935,0.0,0.0,0.0,0.0,0.0,0.0,0.0,0.7018,0.7201,0.7248,0.7438,0.7495,0.7347,0.7307,0.7243,0.7072,0.0,0.0,0.0,0.0,0.0,0.0,0.0,0.0,0.0,0.0,0.0,0.0,0.0,0.0,0.0,0.0,0.0,0.0,1.0705,0.0,0.0,0.0,0.0,0.0,0.0,0.0,1.057,0.0,0.0,0.0,0.0,0.0,0.0,0.0,0.0,0.0,0.0,0.0,0.0,1.7638,1.9451,2.1315,2.2384,2.3091,2.3522,2.3544,2.2521,2.1225,2.0131,1.9015,1.7775,1.6225,1.6507,1.6822,1.6144,1.7747,1.92,1.92,0.0,0.0,2.3302,2.4903,2.6847,2.9243,3.2427,3.4628,3.5317,3.6517,3.7672,3.8764,3.933,3.9792,4.0176,4.0359,4.0937,4.1984,4.2163,4.2246,4.2287,4.2287,4.2409,4.2591,4.2052,4.1897,4.2067,4.1524,4.1307,4.1397,4.1468,4.1573,4.1656,4.1566,4.1617,4.165,4.1014,4.0868,4.0956,4.0547,4.0287,4.0174,0.0,0.0,0.0,0.0,0.0,0.0,0.0,0.6824,0.6891,0.6967,0.6967,0.697,0.7003,0.7003,0.699,0.6993,0.0,0.0,0.0,0.0,0.0,0.0,0.0,0.0,0.0,0.0,0.0,0.0,0.0,0.0,0.0,0.0,0.0,0.0,0.0,0.0,0.0,0.0,0.0,0.0,0.0,0.0,0.9911,0.0,0.0,0.0,0.0,0.0,0.0,0.0,0.0,0.0,0.0,0.0,0.0,0.0,1.7136,1.8975,0.0,2.102,2.1292,2.1613,2.0857,1.983,1.9211,1.8416,1.7422,1.6144,1.6458,1.6788,1.612,1.7747,1.92,1.92,2.0613,2.2135,2.3335,2.4956,2.7234,3.05,3.2919,3.4802,3.6085,3.6641,3.7421,3.8535,3.9015,3.9412,3.9673,3.9793,4.0277,4.1238,4.1355,4.1395,4.1453,4.1453,4.1572,4.1749,4.1263,4.1086,4.1252,4.0781,4.0634,4.0757,4.0876,4.1024,0.0,4.1021,4.107,4.112,4.0435,4.0246,4.0314,3.9882,3.9781,3.9826,0.0,0.0,0.0,0.0,0.0,0.0,0.0,0.0,0.0,0.6891,0.6908,0.6924,0.6997,0.6997,0.7,0.7006,0.0,0.0,0.0,0.0,0.0,0.0,0.0,0.0,0.0,0.0,0.0,0.0,1.0288,1.0597,1.0597,0.0,0.0,0.0,0.0,0.0,0.0,0.0,0.0,0.0,0.9022,0.9199,0.0,0.0,0.0,0.0,0.0,0.0,0.0,0.0,0.0,0.0,0.0,0.0,0.0,0.0,0.0,0.0,0.0,1.8812,1.8747,1.9453,1.9106,1.8487,1.7827,1.7721,0.0,1.607,1.6424,1.6788,1.6184,1.7779,1.9216,1.9281,2.1017,2.2669,2.3481,2.5615,2.8461,3.2088,3.3483,3.4755,3.6485,3.7055,3.7802,3.8884,3.9253,3.9496,3.9651,3.9694,3.9753,3.9736,3.9736,3.9863,4.0083,4.0121,4.0197,4.0383,4.0366,4.0348,4.0419,4.0507,4.0593,4.0677,4.0942,4.1114,4.1211,4.0691,4.0517,4.0572,3.9876,3.9712,3.9804,3.9804,3.9848,3.9911,0.0,0.0,0.0,0.0,0.0,0.0,0.0,0.0,0.0,0.0,0.6908,0.6908,0.6924,0.6924,0.6924,0.0,0.0,0.0,0.0,0.0,0.0,0.0,0.0,0.0,0.0,0.0,0.0,0.9012,1.004,1.0523,1.0523,1.0523,0.0,0.0,0.0,0.0,0.0,0.0,0.0,0.0,0.7829,0.8139,0.0,0.0,0.0,0.0,1.0825,1.0993,0.0,0.0,0.0,0.0,0.0,0.0,0.0,0.0,1.4147,1.4755,1.5802,0.0,1.8516,1.8794,1.8397,1.7874,0.0,1.7286,1.6649,1.5869,0.0,1.6898,1.6772,1.8092,1.9394,1.9949,2.1374,2.2864,2.4216,2.7863,3.0995,3.2602,3.4248,3.5487,3.6163,3.6669,3.7126,3.7519,3.7789,3.798,3.811,3.813,3.8167,3.8222,3.8222,3.8813,4.0065,4.0161,4.0236,4.0383,3.9842,3.9623,3.9726,3.9258,3.9127,3.9283,3.9505,3.9705,3.9858,3.9883,3.9972,4.0065,3.9898,3.9889,3.9954,3.9889,3.9911,3.9975,0.0,0.0,0.0,0.0,0.0,0.0,0.0,0.0,0.0,0.0,0.0,0.0,0.0,0.0,0.0,0.0,0.0,0.0,0.0,0.0,0.0,0.0,0.0,0.0,0.0,0.0,0.0,0.0,0.0,1.0101,0.0,0.0,0.0,0.0,0.0,0.0,0.0,0.0,0.0,0.0,0.8118,0.0,0.0,0.0,0.0,0.0,1.0729,1.0825,0.0,1.1357,1.1542,1.1696,0.0,0.0,0.0,0.0,1.3202,1.37,1.4445,1.5787,1.7073,1.7499,1.738,1.7153,1.718,0.0,0.0,0.0,0.0,1.7001,1.7374,1.8416,1.9528,2.0596,2.1989,2.3746,2.6085,2.9419,3.2014,3.299,3.4709,3.5915,3.6284,3.6696,3.7013,3.7223,3.7392,3.754,3.7594,3.7577,3.7613,3.7703,3.7757,3.8205,3.9121,3.9175,3.9265,3.9408,3.9007,3.8891,3.8991,3.8761,3.8743,3.895,3.9156,3.9376,3.9599,3.9717,3.987,3.9994,3.9994,4.0015,4.0036,4.0015,3.9996,4.0036,0.0,0.0,0.0,0.0,0.0,0.0,0.0,0.0,0.0,0.0,0.0,0.0,0.0,0.0,0.0,0.0,0.0,0.0,0.0,0.0,0.0,0.0,0.0,0.0,0.0,0.0,0.0,0.0,0.0,0.0,0.0,0.0,0.0,0.0,0.0,0.0,0.0,0.0,0.0,0.9413,0.8724,0.0,0.0,0.0,0.0,0.0,0.0,0.0,0.0,1.0782,1.0922,1.1038,1.1285,0.0,0.0,0.0,0.0,0.0,1.3879,1.459,1.5366,1.6336,1.6698,1.6826,1.6786,0.0,0.0,0.0,0.0,0.0,0.0,1.8933,1.9962,2.1291,2.303,2.5215,2.8158,3.0599,3.2412,3.333,3.5011,3.6216,3.6591,3.6952,3.7185,3.7392,3.754,3.7577,3.7577,3.7577,3.7649,3.7721,3.7846,3.7916,3.8036,3.8036,3.8088,3.8192,3.8274,3.8354,3.8446,3.8713,3.895,3.9156,3.9376,3.9618,3.9826,3.9911,4.0015,4.0117,4.0117,4.0117,4.0098,4.0098,4.0117,4.0117,0.0,0.0,0.0,0.0,0.0,0.0,0.0,0.0,0.0,0.0,0.0,0.0,0.0,0.0,0.0,0.0,0.0,0.0,0.0,0.0,0.0,0.0,0.0,0.0,0.0,0.0,0.0,0.0,0.0,0.0,1.0122,1.0122,0.9903,0.0,0.0,0.0,0.0,0.0,0.0,0.8818,0.7703,0.0,0.0,0.0,0.0,0.0,0.0,0.0,0.0,1.007,1.0468,1.1015,1.1192,0.0,0.0,0.0,0.0,0.0,1.3804,1.4267,1.4841,1.6846,1.7793,1.815,1.7653,0.0,0.0,0.0,0.0,0.0,0.0,2.0111,2.1448,2.2343,2.5028,2.7568,2.9193,3.1655,3.3354,3.3539,3.5263,3.6485,3.6731,3.7048,3.7297,3.7392,3.754,3.7577,3.7577,3.7577,3.7703,3.7864,3.7899,3.7969,3.8174,3.8174,3.8174,3.8192,3.8322,3.8446,3.8585,3.8902,3.9156,3.9376,3.9623,3.9781,3.9889,4.0077,4.0176,4.0176,4.0176,4.0176,4.0176,4.0137,4.0137,4.0196,0.0,0.0,0.0,0.0,0.0,0.0,0.0,0.0,0.0,0.0,0.0,0.0,0.0,0.0,0.0,0.0,0.0,0.0,0.0,0.0,0.0,0.0,0.0,0.0,0.0,0.0,0.0,0.0,0.0,0.9728,1.0046,1.011,0.9889,0.9406,0.0,0.0,0.0,0.0,0.0,0.8656,0.0,0.0,0.0,0.0,0.0,0.0,0.0,0.0,0.0,0.0,0.9873,1.0481,1.066,0.0,0.0,0.0,0.0,0.0,1.3367,1.419,1.5093,1.6542,1.7468,1.8042,1.8205,0.0,0.0,0.0,0.0,0.0,0.0,2.0598,2.218,2.4248,2.6666,2.8659,2.9758,3.2145,3.3819,3.3922,3.5526,3.6708,3.6913,3.7182,3.7372,3.7503,3.7594,3.7577,3.7577,3.7577,3.7703,3.7899,3.7899,3.8003,3.8192,3.8192,3.8192,3.8192,3.8336,3.851,3.8725,3.9017,3.9272,3.9526,3.9758,3.9911,4.0015,4.0157,4.0215,4.0253,4.0253,4.0253,4.0253,4.0215,4.0234,4.0253,0.0,0.0,0.0,0.0,0.0,0.0,0.0,0.0,0.0,0.0,0.0,0.0,0.0,0.0,0.0,0.0,0.0,0.0,0.0,0.0,0.0,0.0,0.0,0.0,0.0,0.0,0.0,0.9185,0.9239,0.9528,0.997,0.9982,0.9671,0.0,0.0,0.0,0.0,0.0,0.0,0.8403,0.0,0.0,0.0,0.0,0.0,0.0,0.0,0.0,0.0,0.0,0.0,0.0,0.0,0.0,0.0,1.1673,1.1869,1.2186,1.2983,1.4067,1.5201,1.6173,0.0,1.8091,1.857,0.0,0.0,0.0,0.0,0.0,0.0,2.1534,2.3342,2.6308,2.7981,2.9299,3.0347,3.2368,3.3783,3.3938,3.527,3.6287,3.6524,3.671,3.6859,3.7041,3.7023,3.7023,3.7023,3.7077,3.7238,3.7611,3.7611,3.7823,3.8207,3.8207,3.8207,3.8225,3.8368,3.8572,3.8862,3.9129,3.9401,3.9689,3.9867,4.0015,4.0137,4.0196,4.0253,4.031,4.031,4.031,4.031,4.031,4.031,4.031,0.0,0.0,0.0,0.0,0.0,0.0,0.0,0.0,0.0,0.0,0.0,0.0,0.0,0.0,0.0,0.0,0.0,0.0,0.0,0.0,0.0,0.0,0.0,0.0,0.0,0.8527,0.9097,0.91,0.9592,0.9868,0.9893,0.9475,0.8975,0.0,0.0,0.0,0.0,0.0,0.0,0.7811,0.7327,0.0,0.0,0.0,0.0,0.0,0.0,0.0,0.0,0.0,0.0,0.0,0.0,0.0,1.0731,1.1482,1.1848,1.2186,1.2983,1.3713,1.4615,1.6049,1.7893,0.0,1.8716,1.9657,0.0,1.9846,0.0,0.0,0.0,2.3671,2.573,2.8142,2.8943,2.9775,3.1189,3.2435,3.3159,3.3176,3.4117,3.4793,3.4957,3.5155,3.5296,3.5382,3.5382,3.5382,3.5382,3.5486,3.5946,3.6766,3.6852,3.7329,3.8289,3.8307,3.8307,3.8307,3.8433,3.8707,3.9073,3.9272,3.957,3.9889,4.0036,4.0137,4.0196,4.0253,4.0291,4.031,4.031,4.031,4.031,4.031,4.031,4.0291,0.0,0.0,0.0,0.0,0.0,0.0,0.0,0.0,0.0,0.0,0.0,0.0,0.0,0.0,0.0,0.0,0.0,0.0,0.0,0.0,0.0,0.0,0.0,0.7273,0.7914,0.8408,0.8962,0.9592,0.9754,0.9828,0.9776,0.934,0.0,0.0,0.0,0.0,0.0,0.0,0.0,0.0,0.7126,0.7196,0.0,0.0,0.0,0.0,0.0,0.0,0.0,0.0,0.7932,0.8595,0.0,0.9659,1.0523,1.0958,1.1476,1.2106,1.2923,1.3659,1.4529,1.5926,0.0,0.0,0.0,0.0,2.1555,2.1748,2.233,0.0,2.3728,2.456,2.5929,2.831,2.9028,2.9881,3.1445,3.255,3.3258,3.3439,3.4233,3.4781,3.4996,3.5066,3.5136,3.5169,3.5204,3.5221,3.5307,3.5359,3.5603,3.6005,3.6071,3.6345,3.6862,3.6955,3.7058,3.7187,3.8187,3.8844,3.9183,3.9401,3.9665,3.9911,4.0077,4.0176,4.0196,4.0272,4.031,4.031,4.031,4.031,4.031,4.031,4.031,4.0308,0.0,0.0,0.0,0.0,0.0,0.0,0.0,0.0,0.0,0.0,0.0,0.0,0.0,0.0,0.0,0.0,0.0,0.0,0.0,0.0,0.0,0.0,0.0,0.7186,0.7872,0.7918,0.8582,0.988,0.9603,0.9379,0.9194,0.0,0.0,0.0,0.0,0.0,0.0,0.0,0.0,0.0,0.7082,0.7115,0.0,0.0,0.0,0.0,0.0,0.0,0.0,0.0,0.7472,0.7986,0.0,0.0,0.0,0.0,1.1404,1.2085,1.2878,1.3789,1.4791,0.0,0.0,0.0,0.0,0.0,2.2489,2.3501,2.4051,2.4495,2.5078,2.5425,2.6282,2.8434,2.9119,2.9917,3.1612,3.2435,3.3001,3.3283,3.3811,3.4182,3.4372,3.4389,3.4422,3.4472,3.4472,3.4523,3.4658,3.4673,3.4846,3.5291,3.5398,3.5678,3.6113,3.6258,3.6436,3.6656,3.7755,3.8505,3.8995,3.9462,3.9781,3.9996,4.0157,4.0215,4.0234,4.0272,4.0291,4.0291,4.0328,4.0328,4.0328,4.0328,4.0326,4.0341,0.0,0.0,0.0,0.0,0.0,0.0,0.0,0.0,0.0,0.0,0.0,0.0,0.0,0.0,0.0,0.0,0.0,0.0,0.0,0.0,0.0,0.0,0.0,0.6516,0.719,0.7214,0.8044,0.979,0.9108,0.8545,0.8088,0.0,0.0,0.0,0.0,0.0,0.0,0.0,0.0,0.0,0.0,0.7139,0.7203,0.0,0.0,0.0,0.0,0.0,0.0,0.0,0.7251,0.752,0.0,0.0,0.0,1.1096,1.1681,1.2078,1.2894,1.4142,1.5365,0.0,0.0,0.0,2.126,2.2283,2.3328,2.4869,2.6034,2.664,2.6105,2.6329,2.7146,2.8738,2.928,3.0076,3.1686,3.2073,3.2284,3.2473,3.2539,3.2639,3.2773,3.287,3.2916,3.2916,3.2916,3.2916,3.2979,3.3073,3.3556,3.457,3.4779,3.5357,3.6353,3.6507,3.6714,3.6981,3.7069,3.7589,3.8505,3.9384,3.9916,4.0177,4.0177,4.0196,4.0291,4.0291,4.0291,4.0288,4.0379,4.0398,4.0398,4.0415,4.0394,4.0422,0.0,0.0,0.0,0.0,0.0,0.0,0.0,0.0,0.0,0.0,0.0,0.0,0.0,0.0,0.0,0.0,0.0,0.0,0.0,0.0,0.0,0.0,0.0,0.0,0.0,0.0,0.7824,0.8392,0.8144,0.7955,0.0,0.0,0.0,0.7344,0.0,0.0,0.0,0.0,0.0,0.0,0.0,0.7217,0.7262,0.0,0.0,0.0,0.0,0.0,0.0,0.0,0.0,0.0,0.7745,0.0,0.0,1.0025,1.1296,1.2712,1.3494,1.4806,0.0,1.7316,0.0,0.0,0.0,2.2556,0.0,0.0,2.6172,2.6738,2.6286,2.6835,2.7754,2.8968,2.9832,3.075,3.1898,3.2232,3.2405,3.2539,3.2657,3.2755,3.2852,3.2884,3.2916,3.2916,3.2948,3.306,3.3201,3.3334,3.3582,3.4018,3.4236,3.4555,3.4995,3.5161,3.5359,3.5529,3.6156,3.6914,3.7745,3.8095,3.8327,3.8442,3.844,3.8476,3.8586,3.9214,3.9461,3.9517,4.0149,4.0398,4.0396,4.0411,4.0454,4.0559,0.0,0.0,0.0,0.0,0.0,0.0,0.0,0.0,0.0,0.0,0.0,0.0,0.0,0.0,0.0,0.0,0.0,0.0,0.0,0.0,0.0,0.0,0.0,0.0,0.0,0.6733,0.6925,0.0,0.0,0.0,0.0,0.0,0.0,0.6939,0.0,0.0,0.0,0.0,0.0,0.0,0.0,0.7262,0.7294,0.0,0.0,0.0,0.0,0.0,0.0,0.0,0.0,0.0,0.0,0.0,0.0,0.9846,1.1304,1.2974,1.3773,1.5296,0.0,1.8007,1.9291,2.0774,2.2639,0.0,0.0,0.0,2.6961,2.7783,2.7367,2.7853,2.8642,2.9624,3.0351,3.1098,3.2004,3.2301,3.2473,3.2606,3.2722,3.2838,3.2884,3.2916,3.2916,3.2948,3.3011,3.3135,3.3382,3.3509,3.3671,3.3921,3.4124,3.4316,3.452,3.4689,3.4869,3.5039,3.5551,3.6064,3.6559,3.73,3.7661,3.7715,3.7731,3.7783,3.789,3.8402,3.861,3.8668,3.9218,3.9673,4.0011,4.0,4.0293,4.0687,0.0,0.0,0.5492,0.5492,0.0,0.0,0.0,0.0,0.0,0.0,0.0,0.0,0.0,0.0,0.0,0.5492,0.0,0.0,0.0,0.0,0.0,0.0,0.0,0.0,0.0,0.0,0.0,0.0,0.0,0.0,0.0,0.0,0.6254,0.6401,0.0,0.6774,0.0,0.0,0.0,0.0,0.7276,0.731,0.7314,0.7314,0.0,0.0,0.0,0.0,0.0,0.0,0.0,0.0,0.8053,0.0,0.9471,1.0204,1.1556,1.2989,1.3873,1.5776,0.0,1.8346,2.0104,0.0,2.3488,2.5648,2.7194,2.6701,2.8024,2.9121,2.8794,2.9068,2.9625,3.0558,3.0872,3.1272,3.2109,3.2405,3.2523,3.2606,3.2722,3.2802,3.2777,3.288,3.288,3.2921,3.305,3.3238,3.352,3.3671,3.3868,3.4124,3.434,3.4542,3.4733,3.4851,3.502,3.52,3.52,3.5215,3.5248,3.6781,3.7486,3.7481,3.7553,3.7622,3.7674,3.7759,3.7794,3.7813,3.7959,3.8535,3.9303,3.9289,3.9835,4.0597,0.0,0.0,0.5492,0.5492,0.0,0.0,0.0,0.0,0.0,0.553,0.553,0.5511,0.5511,0.5492,0.0,0.5492,0.5492,0.0,0.0,0.0,0.0,0.0,0.0,0.0,0.0,0.0,0.0,0.0,0.0,0.0,0.0,0.0,0.0,0.6331,0.0,0.6774,0.0,0.0,0.0,0.0,0.7292,0.7326,0.7376,0.7376,0.7376,0.0,0.0,0.0,0.0,0.0,0.0,0.0,0.7546,0.8106,0.8835,0.9569,1.1258,1.3189,1.4577,1.6512,0.0,0.0,2.0923,2.2786,2.3749,2.536,2.655,2.6016,2.697,2.7958,2.813,2.8835,2.9696,3.0716,3.1411,3.1952,3.2301,3.2489,3.2573,3.2606,3.277,3.2634,3.201,3.2509,3.2729,3.2242,3.2913,3.3462,3.3726,3.3972,3.4197,3.4404,3.4628,3.4792,3.4927,3.5075,3.5164,3.5193,3.5193,3.5193,3.5209,3.5575,3.5763,3.5812,3.5841,3.5871,3.5993,3.669,3.6988,3.7112,3.7808,3.8228,3.8465,3.8507,3.8694,3.8918,0.0,0.0,0.0,0.0,0.0,0.0,0.0,0.0,0.0,0.5492,0.5492,0.5492,0.5492,0.5492,0.0,0.0,0.5492,0.5492,0.0,0.0,0.0,0.0,0.0,0.0,0.0,0.0,0.0,0.0,0.0,0.0,0.0,0.0,0.0,0.6611,0.0,0.7132,0.0,0.0,0.0,0.7292,0.7294,0.7343,0.7392,0.7392,0.7392,0.7392,0.7392,0.0,0.0,0.0,0.0,0.0,0.0,0.0,0.8577,0.9002,1.0698,1.272,1.3881,0.0,0.0,2.0614,0.0,2.3128,2.4252,2.5349,2.6037,2.5914,2.7072,2.8222,2.8595,2.9111,2.9695,3.0314,3.0766,3.1113,3.1315,3.1411,3.1523,3.1523,3.1649,3.1581,3.1171,3.1559,3.1739,3.1484,3.2332,3.283,3.2746,3.3345,3.3593,3.3398,3.3978,3.432,3.4429,3.4937,3.5198,3.5209,3.5209,3.5209,3.5261,3.5261,3.5277,3.5304,3.5335,3.5398,3.5479,3.5944,3.6157,3.6267,3.676,3.7254,3.7676,3.7741,3.8058,3.8461,0.0,0.0,0.0,0.0,0.0,0.0,0.0,0.0,0.0,0.5492,0.5492,0.5492,0.5492,0.5492,0.5492,0.0,0.0,0.0,0.5492,0.0,0.0,0.0,0.0,0.0,0.0,0.0,0.0,0.0,0.0,0.0,0.0,0.0,0.0,0.0,0.0,0.0,0.0,0.0,0.0,0.7292,0.7296,0.7329,0.7392,0.7392,0.7392,0.7392,0.7392,0.7392,0.7392,0.7392,0.0,0.0,0.0,0.0,0.8362,0.8549,1.0137,1.2027,1.3044,0.0,1.8728,2.1808,2.2647,0.0,2.4493,2.5158,2.5554,2.5886,2.7305,2.8602,2.911,2.9334,2.952,2.9839,2.9889,2.9972,3.0166,3.0274,3.0348,3.0379,3.0451,3.0457,3.0332,3.0552,3.0704,3.0712,3.1583,3.1971,3.1634,3.2455,3.2711,3.224,3.3053,3.3539,3.3589,3.4516,3.4986,3.4999,3.5152,3.5261,3.5293,3.5308,3.5324,3.5315,3.5379,3.5427,3.5501,3.5502,3.5565,3.5623,3.5688,3.62,3.6895,3.6956,3.7439,3.8077,0.0,0.0,0.0,0.0,0.0,0.0,0.0,0.0,0.0,0.0,0.5492,0.5492,0.5492,0.5492,0.5492,0.5492,0.5492,0.5492,0.0,0.0,0.0,0.0,0.0,0.0,0.0,0.0,0.0,0.0,0.0,0.0,0.0,0.0,0.0,0.0,0.0,0.0,0.0,0.0,0.0,0.7306,0.7292,0.7341,0.7392,0.7392,0.7392,0.7392,0.7392,0.7392,0.7392,0.7392,0.7392,0.0,0.0,0.0,0.7773,0.8484,0.986,1.1561,0.0,0.0,1.9767,0.0,2.1639,2.2375,2.342,2.4278,2.5001,2.5346,2.6286,2.7368,2.8354,2.8622,2.8992,2.9784,2.9954,3.0036,3.0198,3.0305,3.0379,3.0379,3.0451,3.0261,2.9619,3.0248,3.0499,2.998,3.0881,3.1538,3.1778,3.2072,3.2276,3.2373,3.2629,3.2752,3.2762,3.3688,3.4159,3.4159,3.4917,3.5289,3.53,3.535,3.5398,3.5398,3.5398,3.5435,3.5502,3.5565,3.5623,3.5688,3.5763,3.5903,3.606,3.606,3.6181,3.6332,0.0,0.0,0.0,0.0,0.0,0.0,0.0,0.0,0.0,0.0,0.0,0.5465,0.5492,0.5492,0.5492,0.5492,0.5492,0.0,0.0,0.0,0.0,0.0,0.0,0.0,0.0,0.0,0.0,0.0,0.0,0.0,0.0,0.6969,0.753,0.0,0.0,0.0,0.0,0.0,0.0,0.7333,0.7698,0.789,0.0,0.0,0.8222,0.7912,0.7912,0.7687,0.7392,0.7392,0.7392,0.7392,0.7392,0.0,0.0,0.0,0.8993,1.0604,1.3691,1.6269,1.8572,0.0,2.1262,2.1905,2.3153,2.3896,2.4414,2.4807,2.5346,2.6176,2.7587,2.7983,2.8242,2.8702,2.8845,2.8906,2.9012,2.9053,2.9129,2.914,2.9198,2.9101,2.8818,2.9197,2.9386,2.9257,3.0161,3.0641,3.053,3.1065,3.1261,3.1009,3.158,3.1889,3.1939,3.2825,3.3295,3.333,3.4212,3.4621,3.4654,3.5205,3.5435,3.5412,3.5435,3.5502,3.5565,3.5626,3.5708,3.576,3.582,3.5908,3.5962,3.5958,3.5971,3.6003,0.0,0.0,0.0,0.0,0.0,0.0,0.0,0.0,0.0,0.0,0.0,0.5407,0.5473,0.0,0.0,0.0,0.5492,0.0,0.0,0.0,0.0,0.0,0.0,0.0,0.0,0.0,0.0,0.0,0.0,0.0,0.701,0.7314,0.7946,0.0,0.902,0.0,0.0,0.0,0.0,0.7568,0.8076,0.838,0.8631,0.9303,0.9246,0.8804,0.0,0.831,0.7663,0.7647,0.7518,0.7407,0.7421,0.7513,0.0,0.0,0.0,0.0,0.0,0.0,1.73,1.9455,2.0508,2.131,2.2508,2.3292,2.3894,2.4282,2.47,2.5386,2.6666,2.721,2.7549,2.7882,2.7986,2.8042,2.8099,2.8126,2.8154,2.8182,2.8209,2.8264,2.8327,2.844,2.8619,2.8834,2.9549,2.9832,2.9531,3.0188,3.0376,2.9959,3.0643,3.1028,3.1092,3.1962,3.2526,3.2833,3.3484,3.3909,3.4134,3.4867,3.5303,3.5457,3.5509,3.557,3.5637,3.5698,3.5757,3.5827,3.5899,3.5951,3.5996,3.5999,3.6007,3.5994,0.0,0.0,0.0,0.0,0.0,0.0,0.0,0.0,0.0,0.0,0.0,0.5398,0.5418,0.5465,0.5492,0.5492,0.5492,0.0,0.0,0.0,0.0,0.0,0.0,0.0,0.0,0.0,0.0,0.0,0.0,0.0,0.701,0.7279,0.8095,0.9336,0.9181,0.9275,0.9479,0.0,0.0,0.0,0.819,0.8609,0.9312,0.9994,1.0243,1.0214,1.0214,0.9403,0.8333,0.8282,0.787,0.7407,0.748,0.7543,0.765,0.0,0.0,0.0,0.0,1.4713,0.0,1.7149,1.8848,2.0515,2.078,2.2182,2.3473,2.3688,2.4499,2.5262,2.5452,2.6194,2.7017,2.7862,2.8042,2.8099,2.8099,2.8154,2.82,2.8182,2.8264,2.8327,2.838,2.8569,2.8767,2.898,2.9222,2.9412,2.9589,2.9809,2.9983,3.0087,3.0136,3.02,3.0261,3.1125,3.2023,3.2897,3.2935,3.3397,3.4192,3.4311,3.4812,3.559,3.5588,3.563,3.5697,3.5772,3.5827,3.589,3.5962,3.5996,3.6005,3.5993,3.5995,3.5996,0.0,0.0,0.0,0.0,0.0,0.0,0.0,0.0,0.0,0.0,0.0,0.0,0.0,0.5465,0.5492,0.5492,0.0,0.0,0.0,0.0,0.0,0.0,0.0,0.0,0.0,0.0,0.0,0.0,0.0,0.5856,0.6563,0.7124,0.7945,0.8981,0.9417,0.9597,0.9523,0.9242,0.0,0.0,0.9238,0.9849,0.0,1.1206,1.1447,1.1471,1.1547,1.0756,0.969,0.967,0.9246,0.868,0.8325,0.8277,0.8346,0.8206,0.9106,0.0,0.0,0.0,0.0,1.658,1.7743,1.87,1.982,2.1076,2.2136,2.2375,2.3172,2.4051,2.4698,2.5879,2.6888,2.7244,2.7788,2.8154,2.8154,2.8237,2.8291,2.8318,2.845,2.8562,2.8712,2.885,2.9056,2.9291,2.9415,2.9589,2.9769,2.9874,2.9956,3.0098,3.0094,3.0138,3.0194,3.0548,3.0925,3.1289,3.1864,3.2328,3.2684,3.3306,3.4078,3.4894,3.4943,3.5269,3.5768,3.585,3.5903,3.5971,3.5982,3.5991,3.5995,3.5996,3.5994,3.5984,0.0,0.0,0.0,0.4834,0.0,0.4773,0.4793,0.4863,0.0,0.0,0.0,0.0,0.0,0.0,0.0,0.0,0.0,0.0,0.0,0.0,0.0,0.0,0.0,0.0,0.0,0.0,0.0,0.0,0.0,0.0,0.0,0.0,0.76,0.8418,0.9046,0.9509,0.0,0.0,0.0,0.946,0.0,1.0823,1.1541,1.2436,1.2917,1.3141,1.3035,1.2337,1.137,1.1198,1.0587,0.984,0.9493,0.917,0.885,0.8421,0.8843,0.0,1.1011,0.0,0.0,0.0,1.67,1.7658,1.8768,2.0061,2.1139,2.1663,2.2286,2.3052,2.395,2.5179,2.6162,2.649,2.7014,2.7406,2.7406,2.77,2.7941,2.8036,2.8424,2.8767,2.8938,2.9123,2.9334,2.9551,2.9663,2.9787,2.9956,2.9972,3.0015,3.0138,3.0152,3.0194,3.0228,3.0292,3.0379,3.0444,3.1009,3.1496,3.1854,3.2504,3.3271,3.4105,3.4164,3.4835,3.588,3.5919,3.596,3.5992,3.5994,3.5996,3.5995,3.597,3.5955,3.5927,0.4793,0.4744,0.4686,0.4686,0.4693,0.4722,0.4793,0.4863,0.0,0.0,0.0,0.0,0.0,0.0,0.0,0.0,0.0,0.0,0.0,0.0,0.0,0.0,0.0,0.0,0.0,0.0,0.0,0.0,0.0,0.0,0.0,0.0,0.7083,0.0,0.8075,0.9001,1.032,0.0,0.9823,1.0054,0.0,1.1468,1.2269,0.0,1.4572,1.5165,1.466,1.4076,1.3432,1.2883,1.1881,1.0851,1.0926,1.0171,0.9124,0.8548,0.8914,0.9704,0.0,0.0,0.0,1.3722,1.566,1.7452,1.7602,1.9035,2.0621,2.1598,2.1966,2.2346,2.3223,2.4029,2.4817,2.5622,2.5765,2.58,2.58,2.6588,2.7198,2.7265,2.8197,2.8888,2.903,2.9299,2.9495,2.9624,2.9763,2.9899,3.0064,3.0094,3.0138,3.0188,3.0266,3.0286,3.0304,3.0379,3.0444,3.0509,3.0501,3.0991,3.1864,3.1929,3.2445,3.3275,3.3324,3.4344,3.5938,3.5948,3.5975,3.5996,3.5995,3.5992,3.5982,3.5919,3.5841,3.5795,0.4653,0.4644,0.4624,0.4575,0.4555,0.4584,0.4653,0.4715,0.0,0.0,0.0,0.0,0.0,0.0,0.0,0.0,0.0,0.0,0.0,0.0,0.0,0.0,0.0,0.0,0.0,0.0,0.0,0.0,0.0,0.0,0.0,0.0,0.0,0.0,0.8001,0.8611,0.9197,0.9648,0.0,1.0096,1.1252,1.2164,1.2976,1.4313,1.5307,1.6055,1.6491,1.6321,1.5771,1.5182,1.4571,1.3782,1.2417,1.1149,1.0113,0.9999,1.011,1.0462,1.1221,0.0,0.0,0.0,0.0,0.0,1.5884,1.7446,1.8875,1.9276,2.085,2.2255,2.2478,2.3216,2.3886,2.417,2.5135,2.5868,2.5868,2.6243,2.6576,2.665,2.7074,2.7449,2.7643,2.7844,2.8032,2.8108,2.8198,2.855,2.9281,2.9901,3.0253,3.0279,3.0286,3.0323,3.0379,3.0447,3.052,3.0567,3.063,3.0801,3.11,3.1122,3.1619,3.2434,3.2459,3.3086,3.418,3.4805,3.5428,3.601,3.6009,3.5977,3.5927,3.586,3.5788,3.5713,0.4564,0.4564,0.4535,0.4515,0.4507,0.4535,0.4633,0.4684,0.0,0.0,0.0,0.0,0.0,0.0,0.0,0.0,0.0,0.0,0.0,0.0,0.0,0.0,0.5492,0.0,0.0,0.0,0.0,0.0,0.0,0.0,0.0,0.0,0.0,0.0,0.7477,0.7842,0.8072,0.8872,0.9501,0.0,1.1458,1.247,1.3314,1.493,1.6097,1.6887,1.7451,1.7704,1.7683,1.7149,1.6502,1.5512,1.321,1.1992,1.1378,1.1139,1.1059,0.0,0.0,0.0,0.0,1.373,0.0,0.0,1.4933,1.6121,1.7339,1.7848,1.9427,2.0859,2.1224,2.1961,2.2646,2.303,2.3925,2.4671,2.4995,2.5524,2.5917,2.6004,2.656,2.6972,2.7133,2.7333,2.7475,2.7533,2.7597,2.7886,2.8472,2.9334,2.98,2.9793,3.0167,3.0406,3.0439,3.0501,3.0574,3.0637,3.0703,3.0769,3.0801,3.0804,3.1089,3.1601,3.1561,3.2046,3.2901,3.3406,3.4342,3.5491,3.5832,3.5923,3.5858,3.5774,3.5696,3.562,0.0,0.4507,0.4507,0.4507,0.4507,0.4535,0.4662,0.472,0.4818,0.0,0.0,0.0,0.0,0.0,0.0,0.0,0.0,0.0,0.0,0.0,0.0,0.5492,0.5492,0.5492,0.0,0.0,0.0,0.0,0.0,0.0,0.0,0.0,0.0,0.0,0.6794,0.6977,0.7147,0.7807,0.8797,1.0035,1.1444,1.2524,1.3538,1.5556,1.6866,1.7703,1.8055,1.8659,1.9206,1.8827,1.7868,1.6406,1.3903,1.3015,1.2832,1.2219,1.2062,0.0,1.375,1.4108,0.0,1.4116,1.4751,0.0,1.454,1.5169,1.6112,1.6869,1.7929,1.8943,1.9715,2.0537,2.136,2.2159,2.2447,2.2856,2.3689,2.4622,2.526,2.5374,2.6264,2.687,2.6951,2.7127,2.7248,2.7328,2.7459,2.7592,2.7647,2.8487,2.9021,2.9113,2.9918,3.0414,3.0501,3.0579,3.0639,3.0709,3.0774,3.0804,3.0806,3.0817,3.0839,3.0898,3.0829,3.1248,3.1967,3.2046,3.3064,3.4619,3.532,3.5574,3.5488,3.5417,3.5317,3.52,0.4466,0.4507,0.4507,0.4507,0.4507,0.4535,0.4613,0.4888,0.0,0.0,0.0,0.0,0.0,0.0,0.0,0.0,0.0,0.0,0.0,0.0,0.5492,0.5492,0.5492,0.5492,0.5492,0.0,0.0,0.0,0.0,0.0,0.0,0.0,0.0,0.0,0.6841,0.6977,0.712,0.7368,0.8211,0.9501,1.1286,1.2832,1.4312,1.6256,1.7692,1.8733,1.947,2.0033,2.0346,2.0063,1.8651,1.6944,1.6451,1.5454,1.4454,1.4325,1.4277,1.4346,1.4707,1.481,1.481,1.4852,1.5093,0.0,1.4481,1.5112,1.5745,1.5504,1.717,1.8766,1.9002,2.018,2.1202,2.154,2.1675,2.2261,2.3737,2.4321,2.4632,2.4756,2.5051,2.5303,2.5409,2.5511,2.5577,2.5584,2.6305,2.6757,2.6817,2.7657,2.8459,2.9154,2.937,2.9825,3.0567,3.0649,3.0716,3.0774,3.0791,3.0831,3.0878,3.0879,3.0856,3.0827,3.0819,3.0905,3.1102,3.1748,3.2619,3.359,3.3743,3.3731,3.3615,3.3557,3.3477,3.3384,0.4475,0.4507,0.4507,0.4507,0.4507,0.4575,0.4773,0.4962,0.0,0.0,0.0,0.0,0.0,0.0,0.0,0.0,0.0,0.0,0.0,0.0,0.5492,0.5492,0.5492,0.5492,0.5492,0.5492,0.0,0.0,0.0,0.0,0.0,0.0,0.0,0.0,0.0,0.7069,0.7228,0.7626,0.8348,0.9391,1.0977,1.2484,1.4051,1.6442,1.7843,1.8722,1.9903,2.0613,2.0927,2.0546,1.9674,1.8675,1.7993,1.7028,1.6091,1.6091,1.5831,1.5723,1.6495,1.6453,1.6207,1.6275,1.61,0.0,0.0,1.5114,1.521,1.5016,1.6042,1.6957,1.7041,1.8307,1.9541,2.0101,2.059,2.137,2.2703,2.3451,2.4046,2.4591,2.4768,2.4903,2.4996,2.5057,2.5113,2.5153,2.5592,2.5885,2.5946,2.6783,2.7468,2.7933,2.8367,2.8836,2.9361,2.9847,3.0131,3.0206,3.0636,3.0878,3.0898,3.0874,3.0825,3.081,3.0755,3.075,3.0773,3.1145,3.1533,3.1984,3.2858,3.3139,3.3033,3.2964,3.2872,3.2747,0.4495,0.4507,0.4486,0.4495,0.4475,0.4603,0.4941,0.5037,0.0,0.0,0.0,0.0,0.0,0.0,0.0,0.0,0.0,0.0,0.0,0.5806,0.5586,0.5492,0.5492,0.5511,0.553,0.5549,0.0,0.0,0.0,0.0,0.0,0.0,0.0,0.0,0.0,0.0,0.0,0.0,0.8903,0.9631,1.0942,1.2312,1.3845,1.6572,1.7951,1.8655,2.0108,2.0958,2.129,2.0872,2.0635,2.0307,1.917,1.8316,1.7691,1.7691,1.7265,1.7076,1.8284,1.8244,1.7823,1.7747,1.7319,1.6747,0.0,0.0,0.0,1.5223,1.5459,1.5607,1.5526,1.6663,1.7823,1.8428,1.9141,1.9946,2.0954,2.1816,2.2809,2.4091,2.4341,2.4515,2.4745,2.4835,2.4824,2.4722,2.4867,2.5003,2.5072,2.589,2.6458,2.6688,2.7395,2.7872,2.8118,2.9039,2.9525,2.962,3.0487,3.0898,3.0875,3.0825,3.0788,3.0786,3.0711,3.0685,3.0676,3.0607,3.0537,3.0617,3.2019,3.255,3.2463,3.2372,3.2216,3.2064,0.4466,0.4507,0.4475,0.4423,0.4403,0.4536,0.486,0.5167,0.0,0.0,0.0,0.0,0.0,0.0,0.0,0.0,0.0,0.6997,0.6147,0.6044,0.0,0.5513,0.5492,0.553,0.5595,0.5708,0.58,0.0,0.0,0.0,0.0,0.0,0.6858,0.702,0.7689,0.0,0.0,0.0,0.9611,1.0384,1.187,1.3256,1.4694,1.6984,1.8497,1.9514,2.0767,2.1356,2.1573,2.1565,2.1134,2.0558,2.0393,1.9794,1.9165,1.9165,1.9099,1.9094,1.9322,1.9359,1.9223,1.8626,1.8509,1.8209,1.694,0.0,1.6611,1.615,0.0,1.7045,1.6381,0.0,0.0,1.6954,1.701,1.7439,1.8386,1.8721,1.9787,2.2285,2.2644,2.3006,2.3847,2.3995,2.3749,2.3045,2.3707,2.4168,2.4216,2.5052,2.5898,2.6668,2.685,2.7349,2.8188,2.9063,2.9528,2.9605,3.0488,3.0877,3.0804,3.0807,3.0759,3.0709,3.0639,3.0614,3.0604,3.054,3.0462,3.0428,3.0625,3.0678,3.0573,3.0414,3.0231,3.0101,0.4374,0.4386,0.4374,0.4354,0.4342,0.451,0.5046,0.585,0.0,0.0,0.0,0.0,0.0,0.9291,0.9327,0.0,0.8767,0.8272,0.738,0.7108,0.0,0.593,0.5949,0.5883,0.5718,0.5774,0.5904,0.0,0.6284,0.0,0.0,0.0,0.6927,0.7085,0.7796,0.0,0.886,0.9975,1.0907,1.1765,1.3272,1.4566,1.578,1.7471,1.9123,2.0576,2.1243,2.1542,2.1664,2.1797,2.1611,2.1346,2.1404,2.0922,2.0345,2.0345,2.003,1.9781,2.024,1.976,1.9186,1.937,1.8863,1.8206,1.771,1.7354,1.7091,1.6976,0.0,0.0,0.0,0.0,0.0,0.0,1.6607,1.6805,1.7278,1.7431,1.8471,2.1166,2.1542,2.1979,2.3004,2.3119,2.3031,2.2719,2.3506,2.4024,2.4107,2.4924,2.5584,2.5994,2.6075,2.631,2.6755,2.7608,2.8057,2.8105,2.9491,3.0107,3.0066,3.052,3.0709,3.0637,3.0571,3.052,3.0479,3.0447,3.0371,3.0279,3.0203,3.0163,3.0095,2.9946,2.9803,2.9664,0.4211,0.0,0.0,0.4301,0.4301,0.4525,0.5224,0.6356,0.728,0.7657,0.8454,0.9181,0.9665,1.0284,1.0477,1.0097,0.9953,0.9532,0.8652,0.8084,0.7455,0.6666,0.6585,0.637,0.6021,0.6067,0.6169,0.6331,0.0,0.0,0.0,0.0,0.0,0.715,0.7995,0.8775,0.9535,1.0937,1.2024,1.2912,1.4292,1.574,1.7167,1.8342,1.9783,2.1278,2.1528,2.1664,2.1738,2.1869,2.1957,2.2015,2.2073,2.1776,2.1417,2.1406,2.1002,2.0699,2.1255,2.0608,1.9858,2.0068,1.9423,1.8633,1.835,1.7912,1.7625,1.7789,1.74,0.0,0.0,0.0,1.661,1.6232,0.0,1.6211,1.6123,1.6169,1.7122,1.9577,2.037,2.0921,2.1494,2.1994,2.221,2.2038,2.3035,2.3696,2.3763,2.4819,2.5452,2.5537,2.5571,2.5632,2.5696,2.6552,2.7009,2.7011,2.874,2.9542,2.9511,3.0289,3.061,3.0548,3.0472,3.0409,3.0374,3.0343,3.026,3.0133,2.9992,2.9899,2.9834,2.9732,2.9589,2.9433,0.4009,0.4158,0.0,0.0,0.4305,0.4549,0.5282,0.6474,0.7507,0.8096,0.9264,1.0312,1.0974,1.162,1.1922,1.1551,1.1126,1.0495,0.9707,0.8773,0.8104,0.7757,0.7381,0.6991,0.6579,0.6764,0.6707,0.6401,0.6604,0.0,0.0,0.0,0.0,0.0,0.8503,0.9446,1.0163,1.1585,1.2668,1.3554,1.4562,1.6569,1.8988,1.9679,2.0508,2.1309,2.1528,2.1694,2.1827,2.1869,2.2073,2.2304,2.2287,2.2371,2.2453,2.2371,2.2326,2.2309,2.2343,2.2364,2.2053,2.0708,2.0454,2.0157,1.8816,1.8524,1.8582,1.8643,1.8626,1.8395,1.7682,1.7556,0.0,0.0,1.5339,0.0,0.0,1.4447,1.5166,1.7009,1.8831,1.9669,1.8992,2.0451,2.111,2.0337,2.1859,2.2879,2.2939,2.4562,2.5517,2.5586,2.5598,2.5626,2.5707,2.6558,2.6992,2.7027,2.8703,2.9468,2.9438,3.0168,3.0462,3.0402,3.0333,3.0311,3.0292,3.0234,3.0133,2.9992,2.9867,2.9662,2.9433,2.9394,2.9293,2.9104,0.0,0.0,0.0,0.0,0.0,0.4893,0.6029,0.7092,0.8158,0.9235,1.0155,1.0951,1.1671,1.229,1.248,1.211,1.2161,1.1778,1.0693,1.0386,0.9809,0.8901,0.8761,0.8394,0.7736,0.7888,0.7645,0.6988,0.7199,0.0,0.0,0.0,0.0,0.0,0.0,0.9758,1.0888,1.2744,1.4269,1.564,1.7466,1.8831,1.9814,2.0056,2.071,2.1511,2.1589,2.1708,2.1899,2.2118,2.2287,2.2443,2.2605,2.2685,2.2764,2.2738,2.2738,2.2738,2.2738,2.2427,2.1861,2.0917,2.0359,1.9832,1.8906,1.8714,1.8911,1.9503,1.9629,1.9719,2.0009,1.9201,0.0,0.0,0.0,0.0,0.0,1.4462,1.486,1.5552,1.7135,1.8124,1.7966,1.8515,1.9033,1.9372,2.1022,2.2294,2.2929,2.4613,2.56,2.5658,2.5673,2.5687,2.5701,2.5996,2.6149,2.6152,2.7254,2.8018,2.8504,2.9282,2.9881,3.0333,3.0267,3.0221,3.0152,3.0094,2.9969,2.9786,2.9608,2.9395,2.9191,2.9191,2.9101,2.8938,0.429,0.0,0.0,0.0,0.475,0.5516,0.6495,0.7731,0.8948,0.9934,1.0969,1.1787,1.2331,1.2851,1.3051,1.2762,1.2855,1.2609,1.1909,1.146,1.0952,1.0277,1.0069,0.9642,0.8984,0.8965,0.8645,0.801,0.7785,0.7559,0.0,0.0,0.0,0.0,0.0,1.0017,1.1545,1.3426,1.5096,1.6677,1.8905,1.9984,2.0305,2.0548,2.1028,2.162,2.162,2.1814,2.2061,2.2276,2.247,2.2659,2.2816,2.2944,2.3045,2.3003,2.302,2.302,2.3045,2.2726,2.2259,2.1582,2.0886,2.02,1.9488,1.9327,1.9489,2.0047,2.0426,2.0697,2.0951,2.0156,1.9107,0.0,0.0,0.0,0.0,1.4606,1.4785,1.4886,1.6092,1.6952,1.7051,1.7404,1.8025,1.8963,2.0385,2.1604,2.2524,2.4234,2.5194,2.5238,2.5538,2.5701,2.5703,2.5699,2.5687,2.5675,2.6466,2.7226,2.7989,2.8762,2.9533,3.0267,3.0188,3.0138,3.0049,2.9975,2.9806,2.957,2.9355,2.9166,2.8989,2.8989,2.8892,2.8743,0.4807,0.4829,0.4796,0.4637,0.5549,0.6423,0.6749,0.8406,0.9744,1.0195,1.1631,1.2711,1.2913,1.3351,1.3621,1.3621,1.3171,1.3049,1.3263,1.2093,1.1561,1.1889,1.1273,1.0751,1.0343,1.0064,0.9742,0.9341,0.8338,0.0,0.0,0.0,0.0,0.0,0.8902,0.0,1.2083,1.3666,1.5213,1.6843,1.8967,2.0093,2.0521,2.1173,2.1495,2.1603,2.1694,2.1932,2.222,2.2377,2.2632,2.2919,2.2995,2.3151,2.3289,2.3241,2.3217,2.3241,2.3313,2.336,2.3257,2.2689,2.1994,2.1295,2.0535,2.0372,2.0389,2.0424,2.1097,2.1443,2.0658,2.044,1.9877,0.0,0.0,0.0,1.4814,1.4728,1.4831,1.4911,1.5645,1.6179,1.625,1.7051,1.796,1.8919,1.9886,2.0823,2.1698,2.343,2.4399,2.4391,2.5254,2.5703,2.5699,2.5703,2.5655,2.56,2.6307,2.7069,2.7856,2.8595,2.9366,3.0131,3.0104,3.0049,2.9972,2.9842,2.9626,2.9353,2.9148,2.8943,2.8761,2.8785,2.8662,2.8466,0.4807,0.5243,0.5718,0.5998,0.6222,0.6746,0.7859,0.8932,0.9997,1.11,1.2019,1.2787,1.3356,1.3548,1.3621,1.3621,1.3507,1.3392,1.3329,1.3065,1.2953,1.3066,1.305,1.2743,1.214,1.1775,1.1044,0.9967,0.8917,0.0,0.7987,0.0,0.0,0.0,0.0,1.0284,1.2083,1.3653,1.598,1.8777,2.0034,2.0783,2.1173,2.1352,2.1509,2.1694,2.1738,2.1945,2.2248,2.2525,2.279,2.302,2.3241,2.336,2.3448,2.3448,2.3407,2.3453,2.3567,2.3598,2.3487,2.2935,2.2666,2.2319,2.1586,2.1418,2.1582,2.219,2.2518,2.2662,2.2441,2.1904,2.0963,1.9376,1.7409,1.5808,1.4944,1.4904,1.4971,1.5034,1.5255,1.5405,1.5472,1.5695,1.6231,1.7163,1.8675,1.9932,2.0855,2.313,2.4406,2.4391,2.5254,2.5699,2.5691,2.5642,2.5591,2.5525,2.5673,2.614,2.6894,2.7661,2.8473,2.926,2.9802,2.994,2.977,2.957,2.9332,2.9093,2.8892,2.8669,2.8458,2.8543,2.851,2.838,0.5625,0.6181,0.683,0.7439,0.7637,0.7911,0.866,0.956,1.0578,1.1704,1.2437,1.304,1.3542,1.3621,1.3621,1.3621,1.3668,1.3695,1.3707,1.3728,1.3805,1.4032,1.4116,1.3891,1.3335,1.2985,1.2208,1.1002,0.9681,0.8811,0.8333,0.0,0.0,0.0,0.0,1.0483,1.2625,1.4863,1.7242,1.9529,2.0461,2.1071,0.0,2.1464,2.1587,2.1724,2.184,2.2032,2.2293,2.2632,2.2893,2.3095,2.3313,2.3448,2.3494,2.3494,2.3517,2.3585,2.3703,2.3813,2.3828,2.3565,2.3271,2.2936,2.2545,2.2467,2.2595,2.3077,2.3514,2.3582,2.2856,2.2349,2.1428,1.9431,1.7978,1.6834,1.6139,1.6086,1.6162,1.6227,1.5892,1.5696,1.5759,1.5452,1.5622,1.6537,1.754,1.8676,1.9961,2.2082,2.3435,2.3827,2.5056,2.5689,2.5657,2.558,2.5511,2.5456,2.5359,2.5725,2.6531,2.7306,2.8095,2.8898,2.963,2.9823,2.9589,2.9355,2.9119,2.8839,2.8619,2.8406,2.8219,2.8201,2.8174,2.8091,0.6914,0.7348,0.7981,0.8712,0.9136,0.9349,0.9305,1.0256,1.1284,1.2093,1.2795,1.3314,1.3563,1.3621,1.3621,1.3621,1.3716,1.3905,1.4222,1.4149,1.4312,1.4799,1.4833,1.4647,1.4237,1.3916,1.3207,1.2141,1.0426,0.9337,0.0,0.0,0.0,0.0,0.0,0.0,1.3356,1.6455,1.8387,1.9452,2.0479,2.1103,2.1386,2.1542,2.165,2.1738,2.1957,2.2147,2.2349,2.2685,2.2944,2.3144,2.3336,2.3453,2.3494,2.3517,2.3562,2.3634,2.3792,2.3976,2.4152,2.4284,2.3854,2.3398,2.3465,2.35,2.3497,2.3574,2.42,2.4268,2.2689,2.2279,2.1413,1.9028,1.8636,1.8393,1.764,1.7584,1.7643,1.7704,1.6945,0.0,1.6494,1.5676,1.5481,1.6378,1.6489,1.7294,1.9044,2.0836,2.2207,2.3066,2.4772,2.5668,2.5605,2.5523,2.5449,2.5385,2.5264,2.5581,2.635,2.7204,2.7951,2.8654,2.9493,2.97,2.9414,2.9169,2.8897,2.8594,2.8309,2.8136,2.7968,2.776,2.7654,2.7595,0.7963,0.8283,0.8581,0.9119,0.9509,0.9856,1.036,1.1066,1.1695,1.2132,1.2899,1.342,1.3563,1.3621,1.3621,1.3621,1.3716,1.3952,1.4326,1.4607,1.4959,1.5416,1.5788,1.5819,1.5484,1.4723,1.3838,1.2821,1.0674,0.9351,0.0,0.0,0.0,0.0,0.0,0.0,1.3542,1.6547,1.8111,1.8718,2.0289,2.1071,2.134,2.1511,2.1664,2.1827,2.2061,2.2237,2.2366,2.2764,2.2995,2.3126,2.3383,2.3494,2.3517,2.3562,2.3629,2.3721,2.3915,2.4057,2.4229,2.4409,2.4449,2.4436,2.4451,2.4497,2.4542,2.4546,2.4752,2.4628,2.3613,2.2414,2.0956,1.9134,1.8854,1.8578,1.7779,1.7716,1.7773,1.7785,1.701,1.6493,1.6502,1.5115,1.4605,1.5546,1.5613,1.6393,1.8124,2.0505,2.2207,2.3065,2.4737,2.5613,2.5595,2.5478,2.5376,2.5322,2.5248,2.5244,2.5393,2.6858,2.7561,2.7717,2.9004,2.9418,2.9148,2.8943,2.8601,2.8164,2.7904,2.7654,2.7396,2.7161,2.6954,2.6825,0.8882,0.9074,0.9267,0.9801,1.0157,1.0506,1.0968,1.1628,1.2206,1.2539,1.305,1.3467,1.3573,1.3621,1.3621,1.3716,1.3905,1.4186,1.464,1.5051,1.5457,1.5869,1.6337,1.6384,1.5922,1.5324,1.4484,1.3408,1.1439,1.0222,0.0,0.859,0.8644,0.9675,0.0,1.251,1.4683,1.7015,1.8391,1.9092,2.0432,2.1135,2.1325,2.1573,2.1738,2.1899,2.2192,2.2377,2.2515,2.2842,2.3045,2.3193,2.3424,2.3517,2.3562,2.3629,2.3721,2.3852,2.4037,2.4192,2.4355,2.4561,2.4676,2.4772,2.4798,2.4827,2.4856,2.4903,2.4972,2.4828,2.4047,2.294,2.1737,2.0496,2.0339,2.0057,1.9223,1.9128,1.9144,1.9158,1.8013,1.7232,1.7223,1.5303,1.4221,1.4639,1.4715,1.5498,1.7228,1.9354,2.1306,2.3056,2.428,2.5123,2.5531,2.5412,2.5303,2.5209,2.5137,2.5279,2.5655,2.6828,2.7509,2.7862,2.8894,2.9191,2.892,2.8601,2.8255,2.7864,2.7689,2.7369,2.7019,2.6841,2.659,2.64,0.9551,0.9661,0.9869,1.0518,1.0832,1.1114,1.1499,1.2231,1.2779,1.29,1.3238,1.3467,1.3573,1.3621,1.3668,1.3773,1.4093,1.4455,1.4903,1.5412,1.5856,1.6244,1.6663,1.6671,1.6194,1.5867,1.5121,1.3958,1.2423,1.1321,1.0658,0.9698,0.9676,1.0545,1.2765,1.4466,1.5801,1.767,1.8873,1.9625,2.0671,2.1183,2.134,2.1617,2.1811,2.1998,2.2332,2.2569,2.2712,2.2995,2.3102,2.3241,2.3453,2.3562,2.3629,2.3721,2.3852,2.3998,2.4192,2.4356,2.4476,2.466,2.4757,2.4817,2.487,2.4898,2.494,2.5012,2.5101,2.4919,2.4253,2.3562,2.284,2.2029,2.1942,2.1692,2.0813,2.0698,2.0636,2.0448,1.8948,1.7913,1.7907,1.5607,1.4084,1.4021,1.4075,1.4861,1.6608,1.834,2.0362,2.2723,2.3757,2.4575,2.5182,2.5226,2.5179,2.5068,2.4987,2.5333,2.6072,2.6789,2.7511,2.8202,2.8836,2.8943,2.8626,2.8273,2.7922,2.7595,2.7417,2.7085,2.6691,2.6504,2.6295,2.6063,0.9841,0.9953,1.0164,1.083,1.1161,1.1581,1.2344,1.3095,1.3428,1.2978,1.3296,1.3573,1.3621,1.3621,1.3668,1.3773,1.414,1.4558,1.5062,1.5635,1.6088,1.6362,1.6778,1.6934,1.6811,1.6477,1.5722,1.452,1.3376,1.2311,1.1296,1.0731,1.0952,1.1989,1.4295,1.5491,1.602,1.8236,1.9403,1.9751,2.0719,2.1215,2.1417,2.1691,2.194,2.2237,2.2561,2.279,2.2977,2.3193,2.3241,2.3241,2.3517,2.3652,2.3721,2.3834,2.3998,2.4116,2.4321,2.4481,2.4596,2.4676,2.4753,2.4827,2.4884,2.494,2.5012,2.5089,2.5195,2.5053,2.4328,2.4121,2.3812,2.2994,2.2925,2.2652,2.1789,2.1674,2.137,2.059,1.9015,1.796,1.7909,1.5592,1.4108,1.4095,1.4093,1.4864,1.6615,1.8299,2.0016,2.1776,2.337,2.4188,2.4147,2.4779,2.5056,2.4929,2.4842,2.517,2.5843,2.6581,2.7342,2.8059,2.859,2.8619,2.8237,2.795,2.7654,2.7303,2.7004,2.6657,2.633,2.6063,2.5824,2.5637,1.0075,1.0196,1.0409,1.1091,1.1415,1.1834,1.2474,1.3204,1.3748,1.3795,1.3912,1.3921,1.3652,1.3621,1.3668,1.3915,1.4291,1.4743,1.5289,1.5824,1.6219,1.6436,1.6833,1.696,1.6876,1.6554,1.6153,1.567,1.4542,1.3624,1.2944,1.2432,1.2872,1.4083,1.5551,1.6848,1.7944,1.8932,1.9747,2.0415,2.0943,2.1325,2.1617,2.1882,2.2198,2.2544,2.2799,2.2977,2.3126,2.3313,2.3336,2.336,2.3607,2.3721,2.3792,2.3959,2.4154,2.4321,2.4481,2.4599,2.4676,2.4734,2.4813,2.487,2.4931,2.5018,2.5082,2.5094,2.5234,2.5286,2.5085,2.5032,2.4778,2.3973,2.3862,2.3391,2.1993,2.183,2.1346,1.996,1.873,1.7773,1.7226,1.6269,1.5234,1.4178,1.4097,1.486,1.6602,1.7797,1.9435,2.1639,2.2771,2.3522,2.3886,2.4612,2.4874,2.4648,2.4591,2.5165,2.6283,2.6495,2.7211,2.8312,2.8417,2.8327,2.8126,2.7748,2.7382,2.7034,2.6708,2.6365,2.6026,2.5864,2.5642,2.547,1.0379,1.0424,1.0647,1.1386,1.1711,1.219,1.3046,1.3728,1.4299,1.4626,1.4705,1.448,1.389,1.3817,1.3861,1.3984,1.4384,1.488,1.5468,1.5969,1.6318,1.6479,1.682,1.696,1.6876,1.671,1.6558,1.6388,1.5539,1.4905,1.4546,1.4382,1.4903,1.5956,1.6916,1.8061,1.9287,1.9586,2.0174,2.0941,2.1167,2.1495,2.184,2.2141,2.2473,2.2816,2.302,2.3168,2.3313,2.343,2.3499,2.3549,2.3682,2.3813,2.3939,2.4135,2.4321,2.4481,2.4599,2.4695,2.4757,2.4813,2.487,2.4931,2.4991,2.5044,2.5113,2.5171,2.532,2.5459,2.5587,2.5625,2.5442,2.4859,2.4781,2.4168,2.2437,2.2226,2.1601,1.9861,1.8878,1.8111,1.7485,1.7208,1.6543,1.5319,1.5226,1.5637,1.6611,1.7672,1.9284,2.1546,2.2345,2.3054,2.3714,2.4431,2.4685,2.4441,2.4355,2.4967,2.6167,2.6494,2.7248,2.8335,2.8164,2.7996,2.7836,2.7461,2.71,2.6674,2.6383,2.6046,2.5733,2.5605,2.5492,2.5301,1.0751,1.0808,1.1027,1.1831,1.2254,1.2957,1.4278,1.4864,1.5234,1.5371,1.555,1.5328,1.4397,1.4304,1.4216,1.4015,1.4444,1.4937,1.5457,1.6044,1.6436,1.6522,1.682,1.696,1.6876,1.7073,1.6924,1.6388,1.6375,1.6178,1.5795,1.6466,1.7001,1.743,1.8437,1.9073,1.9432,2.0198,2.0761,2.1215,2.134,2.1675,2.2124,2.2473,2.2756,2.3003,2.3217,2.3383,2.3517,2.3656,2.3747,2.3795,2.3795,2.3939,2.4135,2.4339,2.4481,2.4596,2.4676,2.4757,2.4802,2.487,2.4898,2.4912,2.498,2.5044,2.5153,2.5359,2.5444,2.5517,2.5581,2.5648,2.571,2.5696,2.5687,2.5072,2.334,2.3084,2.2434,2.0685,1.9726,1.9176,1.9165,1.8399,1.7874,1.7858,1.7854,1.7488,1.6648,1.8174,1.9804,2.1353,2.2183,2.2886,2.3512,2.4242,2.4493,2.4303,2.4171,2.4454,2.5168,2.6561,2.7486,2.8014,2.7847,2.7624,2.7303,2.7034,2.6657,2.6295,2.6026,2.5696,2.5394,2.5317,2.524,2.5091,1.0931,1.0975,1.1256,1.2079,1.2506,1.3091,1.4332,1.4883,1.5361,1.5796,1.6033,1.5929,1.5318,1.4966,1.482,1.4917,1.5433,1.5961,1.6478,1.6708,1.6876,1.7099,1.6921,1.6846,1.6876,1.7002,1.7037,1.6937,1.7046,1.697,1.6773,1.7398,1.7873,1.8248,1.9196,1.9844,2.0182,2.0516,2.0876,2.1294,2.1495,2.1869,2.2354,2.2642,2.2902,2.3168,2.336,2.3526,2.3664,2.3792,2.3937,2.4078,2.4174,2.4229,2.4266,2.4478,2.4613,2.4676,2.4753,2.4813,2.4889,2.495,2.4972,2.4999,2.5044,2.5198,2.5341,2.5449,2.5525,2.56,2.5667,2.5687,2.5707,2.5703,2.5696,2.5292,2.414,2.3471,2.2444,2.0711,1.9724,1.8947,1.8319,1.8523,1.8468,1.7882,1.889,1.9179,1.8358,1.9296,2.0312,2.1292,2.2574,2.3215,2.3225,2.3946,2.4192,2.3899,2.3852,2.4136,2.4736,2.6205,2.6851,2.686,2.7174,2.7164,2.6939,2.6505,2.6227,2.599,2.568,2.547,2.5317,2.5333,2.5123,2.4895,1.1277,1.1321,1.1502,1.2266,1.2666,1.3268,1.4469,1.5001,1.5526,1.6124,1.6316,1.627,1.598,1.5735,1.552,1.5424,1.5884,1.645,1.6971,1.7206,1.7399,1.7689,1.7498,1.7384,1.7529,1.7385,1.744,1.7555,1.7608,1.7665,1.771,1.8235,1.8687,1.9056,1.9703,2.0166,2.046,2.0677,2.0974,2.1371,2.1661,2.2089,2.2525,2.2799,2.3045,2.3265,2.3499,2.366,2.3756,2.3919,2.4116,2.4302,2.4424,2.4478,2.4513,2.4645,2.4689,2.4734,2.4827,2.4903,2.4945,2.4991,2.5012,2.5057,2.5153,2.5313,2.5464,2.5518,2.556,2.5624,2.5679,2.5701,2.5698,2.5691,2.5701,2.539,2.4525,2.3905,2.3023,2.1562,2.091,2.0313,1.969,2.0152,2.0246,1.965,2.0611,2.0957,2.0369,2.0512,2.1071,2.2059,2.2924,2.3425,2.3473,2.3878,2.3919,2.3646,2.3549,2.375,2.4321,2.546,2.6005,2.6079,2.6599,2.6691,2.6487,2.6085,2.5811,2.5659,2.5378,2.524,2.51,2.5045,2.4871,2.463,1.1622,1.1622,1.1809,1.2359,1.2781,1.3433,1.4706,1.5177,1.5652,1.6316,1.6384,1.6384,1.6384,1.6534,1.6279,1.5563,1.5994,1.6553,1.7076,1.7593,1.7968,1.8267,1.8358,1.8439,1.8605,1.819,1.8057,1.8266,1.8085,1.8201,1.8553,1.895,1.9325,1.9726,1.9919,2.0146,2.0423,2.0695,2.1039,2.1448,2.1853,2.2243,2.2659,2.297,2.3193,2.3336,2.3611,2.3747,2.3837,2.4113,2.434,2.4552,2.4725,2.4876,2.4956,2.4844,2.4817,2.4808,2.4884,2.4945,2.4991,2.5012,2.5076,2.5153,2.5274,2.5412,2.5524,2.5595,2.56,2.5632,2.5691,2.571,2.5705,2.5699,2.5703,2.5425,2.4598,2.4374,2.3961,2.3082,2.2866,2.2778,2.2709,2.2757,2.2729,2.2592,2.2651,2.2618,2.2488,2.1802,2.2016,2.3345,2.33,2.3508,2.4056,2.3876,2.3707,2.3549,2.3223,2.3344,2.3811,2.4471,2.5016,2.5492,2.6015,2.6154,2.5937,2.568,2.5454,2.5294,2.5146,2.4966,2.4782,2.463,2.4426,2.4219,1.1622,1.1622,1.1747,1.2243,1.272,1.3373,1.4588,1.5118,1.5652,1.6316,1.6384,1.6384,1.6384,1.6534,1.6599,1.6643,1.7168,1.776,1.8324,1.8406,1.8524,1.8783,1.843,1.8346,1.8593,1.859,1.8653,1.8708,1.837,1.8436,1.8903,1.9191,1.9472,1.9726,1.9919,2.0146,2.0423,2.0745,2.1166,2.1648,2.1969,2.2337,2.2764,2.2952,2.3144,2.3336,2.3562,2.3765,2.4069,2.4891,2.5355,2.5693,2.6408,2.6733,2.6537,2.5253,2.4889,2.4884,2.4953,2.4999,2.5025,2.5132,2.525,2.5351,2.5429,2.5524,2.5568,2.5605,2.5632,2.5675,2.569,2.5701,2.5691,2.5703,2.5702,2.5609,2.5352,2.4681,2.4115,2.3848,2.3163,2.2709,2.2709,2.2628,2.2555,2.2528,2.245,2.2614,2.313,2.2809,2.2771,2.3147,2.3584,2.3779,2.3714,2.362,2.3412,2.3126,2.297,2.2833,2.2798,2.3866,2.4309,2.4265,2.5343,2.568,2.553,2.5301,2.5185,2.5146,2.5045,2.4886,2.463,2.4426,2.412,2.3724,1.1622,1.1622,1.1747,1.2243,1.272,1.3373,1.4469,1.5059,1.5594,1.6192,1.6316,1.6431,1.6477,1.6648,1.692,1.7301,1.7733,1.8224,1.8744,1.8943,1.9131,1.9384,1.9095,1.9043,1.9349,1.9201,1.9238,1.9343,1.946,1.9615,1.9908,2.022,2.0302,2.0154,2.0388,2.0605,2.0837,2.1286,2.1892,2.2635,2.305,2.3431,2.3801,2.399,2.4181,2.4375,2.4617,2.4852,2.5186,2.587,2.6265,2.6604,2.7135,2.7365,2.726,2.6365,2.6081,2.6015,2.5682,2.5621,2.5571,2.5354,2.5341,2.5418,2.5471,2.5543,2.561,2.5648,2.5668,2.5707,2.5701,2.5709,2.5699,2.5702,2.5672,2.5623,2.5556,2.5085,2.471,2.46,2.4139,2.3818,2.3767,2.3669,2.3556,2.3515,2.3413,2.3484,2.3791,2.3565,2.3437,2.3456,2.3642,2.3667,2.3508,2.3389,2.3168,2.2868,2.2712,2.2436,2.2152,2.332,2.3769,2.3632,2.4862,2.5339,2.5262,2.5107,2.5068,2.5029,2.4886,2.467,2.4426,2.4078,2.3681,2.3246,1.156,1.156,1.1747,1.2182,1.2658,1.3321,1.4282,1.5001,1.5526,1.5999,1.6249,1.6431,1.6581,1.6874,1.7222,1.7656,1.8007,1.8387,1.8839,1.9303,1.9656,1.9798,1.9798,1.9965,2.022,1.9941,1.988,2.0136,2.0656,2.0976,2.1085,2.1385,2.1277,2.0857,2.1069,2.1255,2.1497,2.2033,2.2813,2.3769,2.4288,2.4705,2.5034,2.5227,2.5428,2.564,2.5918,2.6181,2.649,2.687,2.7158,2.7426,2.7622,2.7759,2.7873,2.7873,2.7884,2.7685,2.6754,2.6467,2.6301,2.5736,2.5506,2.5444,2.5505,2.5576,2.5632,2.5683,2.5701,2.5696,2.5707,2.5697,2.5703,2.5694,2.5632,2.5561,2.5499,2.5426,2.5331,2.5198,2.518,2.5107,2.4977,2.4912,2.4804,2.4692,2.461,2.4478,2.4266,2.3981,2.3821,2.3774,2.3518,2.3353,2.3313,2.3144,2.2902,2.2659,2.2453,2.213,2.1771,2.2916,2.3361,2.3337,2.4563,2.5091,2.5068,2.5005,2.4966,2.4926,2.467,2.4426,2.4135,2.3681,2.3201,2.2799,1.1365,1.1498,1.1685,1.2058,1.249,1.3155,1.4094,1.4815,1.541,1.5951,1.6259,1.6431,1.6431,1.6941,1.7379,1.7755,1.8356,1.8839,1.9133,1.9448,1.9656,1.9798,1.9798,1.9952,2.0372,2.0447,2.0809,2.1352,2.1096,2.1126,2.144,2.16,2.1635,2.1545,2.1765,2.198,2.2251,2.2746,2.3351,2.4,2.4351,2.4735,2.5103,2.5255,2.5464,2.5725,2.5906,2.6232,2.6688,2.7539,2.8017,2.8437,2.9168,2.9463,2.9545,2.9611,2.9658,2.9345,2.7826,2.6979,2.6554,2.6508,2.6035,2.5582,2.5654,2.5679,2.5694,2.569,2.5701,2.5709,2.5697,2.5703,2.5681,2.5622,2.5605,2.5565,2.5441,2.536,2.5271,2.5137,2.507,2.4977,2.4842,2.4783,2.4707,2.4613,2.4445,2.4266,2.4056,2.3674,2.3427,2.3319,2.3247,2.3151,2.2995,2.2893,2.2694,2.2453,2.2186,2.1853,2.1497,2.2647,2.3115,2.3108,2.4426,2.5005,2.5005,2.4886,2.4766,2.463,2.4426,2.4094,2.3638,2.3201,2.2754,2.2417,1.1185,1.1247,1.1435,1.1872,1.2305,1.2972,1.3932,1.4588,1.5186,1.5768,1.6192,1.6431,1.6545,1.7267,1.781,1.8073,1.8667,1.9146,1.9396,1.9604,1.9759,1.9798,1.9862,2.0169,2.0822,2.1186,2.1625,2.2126,2.2149,2.2263,2.2475,2.2617,2.2521,2.2259,2.2485,2.2731,2.304,2.3606,2.4349,2.5125,2.5628,2.6042,2.6363,2.6562,2.6843,2.7137,2.7324,2.7656,2.8021,2.8524,2.8914,2.9209,2.9658,2.9841,2.9924,3.0022,2.9794,2.9344,2.8619,2.7881,2.7273,2.6861,2.6533,2.6189,2.5792,2.5694,2.569,2.5701,2.5691,2.5698,2.5703,2.5702,2.5689,2.5609,2.5561,2.5499,2.5369,2.5262,2.5164,2.507,2.4959,2.4842,2.4768,2.4642,2.4528,2.441,2.4192,2.3978,2.3728,2.3445,2.3206,2.3028,2.3045,2.2944,2.2738,2.2659,2.2453,2.213,2.1823,2.1493,2.1167,2.1959,2.2501,2.2854,2.384,2.4422,2.4742,2.4661,2.4523,2.4287,2.4036,2.3681,2.3246,2.2814,2.2402,2.2044,1.1059,1.1059,1.1247,1.1685,1.2112,1.2666,1.37,1.4369,1.4951,1.5526,1.6066,1.6488,1.6715,1.7479,1.8073,1.8278,1.8815,1.9291,1.9565,1.9708,1.9798,1.9798,2.008,2.0536,2.1229,2.1793,2.2278,2.2692,2.2933,2.3157,2.3363,2.3466,2.3284,2.2975,2.3234,2.3557,2.3858,2.451,2.5288,2.6118,2.6759,2.7169,2.7465,2.7748,2.8091,2.8388,2.8619,2.8887,2.916,2.9312,2.9532,2.9735,2.9789,2.9857,2.9956,3.0068,2.9754,2.9363,2.9413,2.8898,2.8133,2.7336,2.702,2.6684,2.5882,2.5707,2.5703,2.5709,2.5698,2.5703,2.5681,2.567,2.5642,2.5595,2.5512,2.5418,2.5273,2.5157,2.505,2.4964,2.4861,2.4734,2.466,2.4547,2.4374,2.4173,2.3939,2.3728,2.3481,2.3223,2.302,2.279,2.2816,2.2712,2.2525,2.2415,2.2175,2.1764,2.1462,2.115,2.0876,2.1437,2.1987,2.2618,2.3281,2.3887,2.4457,2.4374,2.4177,2.3894,2.3537,2.3201,2.2859,2.2402,2.2044,2.1746,1.0807,1.0996,1.1185,1.156,1.1817,1.2243,1.313,1.3983,1.4765,1.5352,1.6009,1.6488,1.6761,1.7256,1.7788,1.8321,1.8762,1.9146,1.942,1.9656,1.9798,1.9798,2.0396,2.0957,2.1375,2.2044,2.254,2.2889,2.3023,2.3216,2.3509,2.3509,2.3566,2.3721,2.4059,2.4415,2.4823,2.5379,2.5872,2.633,2.6809,2.7201,2.7526,2.7911,2.8282,2.8601,2.8887,2.9097,2.9332,2.9511,2.9664,2.9808,2.9859,2.9943,3.0022,3.0142,3.029,3.0385,3.0395,2.9859,2.9096,2.8304,2.7498,2.6697,2.5888,2.5703,2.5709,2.5698,2.5703,2.5681,2.5627,2.5619,2.5586,2.5531,2.541,2.5265,2.5118,2.505,2.4953,2.4836,2.4757,2.466,2.4534,2.4447,2.4303,2.4036,2.3774,2.3518,2.3336,2.302,2.2712,2.2432,2.2487,2.247,2.2315,2.2073,2.1781,2.1448,2.1166,2.0926,2.0742,2.1315,2.1967,2.2618,2.3258,2.3823,2.4302,2.3967,2.3696,2.3406,2.2965,2.2632,2.2417,2.1983,2.1746,2.1616,1.0618,1.0744,1.087,1.1247,1.149,1.1926,1.2826,1.3855,1.4706,1.5294,1.5594,1.6009,1.6648,1.7179,1.7776,1.8441,1.8869,1.9291,1.9604,1.9759,1.9901,2.0169,2.056,2.1104,2.1746,2.2184,2.2555,2.2918,2.2933,2.3112,2.3363,2.3466,2.364,2.3925,2.4302,2.4695,2.5036,2.5626,2.6066,2.6418,2.7006,2.7417,2.773,2.8174,2.8569,2.8887,2.9112,2.9307,2.9492,2.9626,2.9756,2.9859,2.9874,2.9975,3.0098,3.026,3.0452,3.0579,3.0613,3.0426,3.0016,2.9206,2.8377,2.756,2.6691,2.6095,2.5694,2.5702,2.5702,2.5689,2.5619,2.5566,2.5493,2.539,2.5303,2.519,2.505,2.494,2.4846,2.4757,2.4647,2.4532,2.4447,2.4266,2.4037,2.3774,2.3491,2.323,2.2927,2.2571,2.2281,2.2089,2.2032,2.2003,2.2003,2.1721,2.1432,2.1087,2.0828,2.0628,2.054,2.062,2.126,2.2286,2.2408,2.298,2.3797,2.348,2.3172,2.2859,2.254,2.2217,2.1996,2.1746,2.1616,2.1471,1.0434,1.0498,1.0624,1.0933,1.1115,1.1545,1.2528,1.3752,1.4656,1.5128,1.5294,1.571,1.6477,1.7011,1.7667,1.8398,1.8827,1.9239,1.9656,1.9811,2.0016,2.0372,2.0759,2.1251,2.1983,2.2324,2.2615,2.2888,2.2888,2.3023,2.3319,2.3466,2.3726,2.4109,2.4492,2.4895,2.5285,2.5864,2.626,2.6556,2.7166,2.76,2.7915,2.837,2.8767,2.9067,2.9243,2.945,2.9607,2.9719,2.9844,2.9926,2.9956,3.006,3.0228,3.0411,3.0535,3.0652,3.07,3.0721,3.054,2.9706,2.9097,2.8449,2.7596,2.6727,2.6111,2.6113,2.5867,2.5642,2.5591,2.5493,2.5398,2.5255,2.519,2.5082,2.4959,2.4846,2.4742,2.4663,2.4532,2.443,2.4284,2.4056,2.3792,2.3513,2.323,2.2902,2.248,2.2169,2.1911,2.1721,2.1587,2.1526,2.1479,2.1308,2.1087,2.0763,2.0561,2.0407,2.0304,2.015,2.0761,2.1909,2.1729,2.2233,2.3231,2.2994,2.2678,2.237,2.2137,2.1902,2.1698,2.1616,2.1471,2.1423,1.0244,1.0301,1.0428,1.0744,1.0681,1.1059,1.2297,1.3649,1.4565,1.4793,1.5128,1.5642,1.6239,1.6729,1.729,1.803,1.853,1.8958,1.9368,1.9784,2.0131,2.0372,2.0921,2.1471,2.1996,2.237,2.2706,2.2888,2.2888,2.3023,2.3319,2.3466,2.3797,2.4302,2.4719,2.5153,2.5642,2.6118,2.6453,2.6758,2.7293,2.7701,2.8037,2.8525,2.8881,2.9112,2.933,2.9491,2.9626,2.9844,2.9943,3.0003,3.0079,3.0248,3.0423,3.0558,3.0651,3.073,3.0779,3.081,3.0599,2.9737,2.9503,2.9291,2.8485,2.7634,2.7011,2.7005,2.6253,2.5586,2.5512,2.539,2.5255,2.5118,2.5038,2.494,2.4821,2.4742,2.4645,2.4517,2.4447,2.4284,2.4016,2.3816,2.3558,2.3223,2.2944,2.2517,2.1928,2.184,2.1631,2.1325,2.123,2.1071,2.0794,2.0877,2.0778,2.0494,2.0441,2.0304,2.0115,2.0025,2.0572,2.1595,2.137,2.1856,2.2663,2.2495,2.2231,2.1996,2.1712,2.1616,2.1568,2.1471,2.1423,2.1423,1.0047,1.0174,1.0308,1.0428,1.08,1.1296,1.2166,1.3459,1.4369,1.4538,1.4961,1.5488,1.6114,1.657,1.7245,1.8182,1.8572,1.8999,1.9512,1.9926,2.0271,2.066,2.1019,2.152,2.2137,2.2417,2.2706,2.2888,2.2888,2.3023,2.3319,2.3494,2.3882,2.4457,2.4791,2.5208,2.5701,2.6082,2.6435,2.6825,2.74,2.7869,2.8264,2.8731,2.9052,2.927,2.9394,2.957,2.9681,2.9857,2.9972,3.0109,3.0253,3.0432,3.0565,3.0644,3.0722,3.0765,3.0794,3.081,3.0738,3.0482,2.9999,2.9517,2.927,2.8496,2.7845,2.7839,2.7104,2.6418,2.6296,2.5698,2.519,2.5056,2.4929,2.4842,2.4738,2.4631,2.4515,2.4447,2.4247,2.4018,2.3816,2.3513,2.3247,2.2927,2.2409,2.1928,2.157,2.1402,2.1166,2.0828,2.0745,2.0595,2.0308,2.0512,2.0561,2.0441,2.0254,2.0065,1.9874,1.969,2.0106,2.1029,2.0851,2.1296,2.2217,2.203,2.1888,2.1712,2.152,2.1471,2.1471,2.1423,2.1423,2.1423,0.9722,0.9983,1.0117,1.0308,1.08,1.1421,1.2042,1.3208,1.413,1.4359,1.4784,1.5381,1.6056,1.657,1.7245,1.8127,1.8679,1.9117,1.9512,1.9926,2.0372,2.0795,2.1444,2.1959,2.2278,2.2523,2.2766,2.2888,2.2888,2.3023,2.3319,2.3523,2.3952,2.4564,2.491,2.5323,2.5791,2.6206,2.6572,2.6989,2.7565,2.801,2.8438,2.8868,2.9138,2.927,2.9453,2.9589,2.9716,2.9886,3.0071,3.0273,3.0433,3.0554,3.0644,3.0697,3.076,3.081,3.0791,3.0821,3.0845,3.0845,3.0479,3.0113,3.0077,2.9372,2.8706,2.8684,2.7906,2.7094,2.6689,2.6077,2.5531,2.5038,2.4851,2.4738,2.4626,2.4479,2.4358,2.4247,2.3998,2.3753,2.3513,2.323,2.2876,2.2436,2.1899,2.1479,2.123,2.099,2.0761,2.0478,2.0376,2.0254,2.0045,2.0185,2.022,2.025,2.0045,1.9818,1.9639,1.9574,1.9912,2.0514,2.0654,2.115,2.1746,2.1746,2.1664,2.152,2.1423,2.1423,2.1423,2.1423,2.1423,2.1423,0.9396,0.9658,0.9862,1.0238,1.08,1.1358,1.1919,1.3025,1.389,1.413,1.4675,1.5264,1.5999,1.6616,1.7312,1.8098,1.8905,1.9368,1.9515,2.0078,2.0527,2.0954,2.2201,2.2797,2.2601,2.2861,2.297,2.2975,2.2975,2.3081,2.3319,2.3523,2.3994,2.463,2.5052,2.5476,2.5934,2.6399,2.6792,2.7149,2.7695,2.8138,2.8543,2.8952,2.9134,2.9222,2.9433,2.9589,2.9734,2.9962,3.026,3.0521,3.0587,3.0646,3.0709,3.0711,3.0747,3.0794,3.0799,3.0847,3.0891,3.0897,3.0898,3.0879,3.0819,3.0179,2.9593,2.9516,2.871,2.7759,2.6948,2.6642,2.6161,2.5181,2.4873,2.472,2.4513,2.4302,2.4115,2.3978,2.3732,2.345,2.3175,2.2876,2.2453,2.1781,2.1464,2.1135,2.0861,2.0613,2.0392,2.027,2.015,2.0045,1.9955,1.9848,1.9848,1.997,1.9762,1.9574,1.9442,1.9627,1.9892,2.0152,2.0778,2.1175,2.1375,2.152,2.152,2.1423,2.1423,2.1423,2.1423,2.1423,2.1423,2.1423,0.9204,0.946,0.9652,0.9983,1.0681,1.1303,1.1926,1.2781,1.358,1.401,1.4675,1.5381,1.5884,1.656,1.7444,1.8645,1.9684,2.0374,2.0631,2.1214,2.1809,2.2339,2.3135,2.3722,2.4055,2.4215,2.4067,2.3688,2.3688,2.3549,2.3319,2.361,2.4036,2.463,2.5084,2.5508,2.5917,2.6295,2.6691,2.7149,2.7754,2.8219,2.8601,2.9044,2.9218,2.9283,2.9451,2.9589,2.9769,3.0177,3.0422,3.0582,3.0659,3.072,3.0779,3.0774,3.0791,3.0801,3.0864,3.0894,3.0898,3.0839,3.0816,3.0825,3.0806,3.0615,3.0411,3.0285,2.9506,2.8756,2.8466,2.7782,2.6954,2.5985,2.5649,2.5221,2.445,2.4115,2.3899,2.3714,2.3445,2.3175,2.2902,2.2354,2.184,2.1433,2.1135,2.0828,2.0545,2.0392,2.02,1.9919,1.9869,1.9812,1.9683,1.956,1.9596,1.9762,1.9442,1.9409,1.9631,1.9318,1.961,2.0397,2.0514,2.0799,2.1229,2.1375,2.1423,2.1423,2.1423,2.1423,2.1423,2.1423,2.1423,2.1375,0.8888,0.9274,0.953,0.9862,1.0428,1.1052,1.167,1.2528,1.326,1.383,1.4713,1.5554,1.6195,1.7074,1.8184,1.9448,2.0189,2.0758,2.1099,2.1703,2.2294,2.2884,2.3788,2.4423,2.481,2.53,2.5149,2.437,2.4451,2.4403,2.4295,2.4702,2.5142,2.5712,2.6149,2.6587,2.701,2.7473,2.7947,2.8395,2.9012,2.9457,2.9821,3.0207,3.0146,2.9879,3.0049,3.0037,2.9988,3.0329,3.0528,3.0664,3.0725,3.0774,3.0806,3.0807,3.0819,3.0866,3.0892,3.0878,3.0839,3.0813,3.0794,3.079,3.0751,3.07,3.061,3.0472,3.0012,2.9468,2.8981,2.8417,2.7698,2.6691,2.6019,2.5412,2.4815,2.4151,2.3642,2.3422,2.3133,2.2799,2.2354,2.1869,2.1433,2.1135,2.0844,2.0579,2.0357,2.015,1.9975,1.9797,1.9741,1.9632,1.9501,1.9558,1.9589,1.9599,1.9445,1.9344,1.9362,1.9623,1.9931,2.0368,2.0664,2.096,2.1229,2.1277,2.1277,2.1277,2.1229,2.1229,2.1277,2.1229,2.1166,2.1068,0.8571,0.9017,0.9338,0.9734,1.0174,1.0674,1.1358,1.2267,1.3116,1.3744,1.4814,1.5804,1.6598,1.7888,1.9186,2.0276,2.072,2.1083,2.1555,2.2219,2.2813,2.3339,2.4378,2.5082,2.5346,2.6093,2.6015,2.5038,2.5219,2.5339,2.5491,2.5863,2.6378,2.6938,2.74,2.7794,2.8246,2.8851,2.9317,2.9754,3.0368,3.081,3.1146,3.1477,3.1214,3.0735,3.0949,3.0854,3.0669,3.0878,3.103,3.1158,3.1217,3.1141,3.1016,3.1028,3.096,3.0891,3.0897,3.0839,3.0795,3.0794,3.0782,3.0764,3.0684,3.0618,3.0548,3.0432,3.0297,2.9964,2.9217,2.8916,2.8416,2.7362,2.6413,2.5713,2.5372,2.4446,2.3679,2.3337,2.2842,2.2343,2.1768,2.1433,2.1103,2.0828,2.0545,2.0308,2.0235,1.994,1.9812,1.9777,1.9647,1.9501,1.9339,1.9609,1.9632,1.9388,1.9558,1.9545,1.9277,2.008,2.0409,2.0388,2.0979,2.118,2.118,2.118,2.1131,2.1131,2.1033,2.1033,2.1131,2.1033,2.0871,2.0709,0.8361,0.8818,0.9215,0.9734,1.0117,1.0555,1.124,1.2287,1.3306,1.3953,1.5223,1.636,1.7039,1.8808,2.0224,2.077,2.162,2.2384,2.2852,2.3593,2.4239,2.4705,2.5273,2.5713,2.5983,2.6229,2.6141,2.5662,2.5927,2.5976,2.5771,2.6213,2.6673,2.711,2.7623,2.7987,2.8246,2.8851,2.9317,2.9754,3.0368,3.081,3.1146,3.1477,3.1589,3.157,3.1834,3.2153,3.2473,3.2677,3.2839,3.2966,3.3028,3.2533,3.1913,3.1914,3.1436,3.0896,3.084,3.0814,3.0799,3.0802,3.0753,3.0683,3.0567,3.0521,3.0491,3.0414,3.0292,3.0118,2.982,2.96,2.9102,2.8049,2.7515,2.6908,2.5955,2.5409,2.4777,2.3829,2.266,2.1781,2.1402,2.1103,2.0828,2.0512,2.0357,2.0185,1.9869,1.9833,1.9741,1.9647,1.9501,1.9317,1.9069,1.9373,1.9362,1.8975,1.9929,2.0329,2.0297,2.0274,2.0542,2.1073,2.1153,2.118,2.118,2.1082,2.0983,2.0858,2.0858,2.0921,2.1033,2.0997,2.0785,2.0422,0.8042,0.8565,0.9068,0.961,1.0027,1.0529,1.1206,1.2138,1.3092,1.3949,1.5251,1.6468,1.75,1.9316,2.0711,2.1284,2.198,2.2665,2.321,2.4015,2.4637,2.5118,2.5508,2.5784,2.6002,2.6272,2.6433,2.6557,2.6825,2.7075,2.7238,2.7659,2.8039,2.8471,2.8887,2.928,2.9629,3.0213,3.0731,3.1247,3.1796,3.2202,3.2529,3.2845,3.2741,3.2482,3.2448,3.2651,3.2952,3.31,3.3218,3.3315,3.3384,3.3142,3.2736,3.2248,3.1849,3.1464,3.0935,3.0801,3.079,3.0753,3.0664,3.0557,3.0479,3.039,3.0311,3.0253,3.0123,2.9969,2.9769,2.957,2.9204,2.8552,2.7791,2.7051,2.6428,2.5682,2.4873,2.4049,2.2872,2.2004,2.1729,2.1082,2.0579,2.0392,2.0254,2.0115,1.9919,1.9848,1.9705,1.9487,1.9339,1.9078,1.876,1.9013,1.9045,1.8862,1.9499,1.9986,2.0227,2.0513,2.0793,2.1082,2.118,2.118,2.118,2.097,2.0809,2.066,2.0623,2.0649,2.0699,2.0686,2.0422,2.0016]}]]